     2              OBSERVATION DATA    GPS                 RINEX VERSION / TYPE
ASRINEXO V2.4.4 UX USGS 06-FEB-98 12:10                     PGM / RUN BY / DATE
                                                            COMMENT
Original Marker Name: law4 LAPW4_2901_31_dor_1972_USGS      COMMENT
Campaign Name: usgs.landers.pro                             COMMENT
4-Character Station Name: LAW4                              COMMENT
6-Character Antenna Code: DMRCHT                            COMMENT
Vertical Measurement Point: BCR                             COMMENT
Vertical Offset to Rinex Ref. Point: 0.0348                 COMMENT
Radial Measurement Point: ECF                               COMMENT
Radial Offset to Rinex Ref. Point: 0.1897                   COMMENT
Antenna Height from Field Measurement: 1.4015 m             COMMENT
Additional Antenna Identification Info.:                    COMMENT
Turborogue and Ashtech Choke Ring                           COMMENT
Original XYZ: -2347600.4177 -4704013.5050 3600975.1605      COMMENT
New XYZ position is based on association with SCEC monument COMMENT
E1F2H4F0+0011. Position of that monument is believed to be  COMMENT
valid to within 1 m horizontally; vertical accuracy         COMMENT
should be no worse than 3-times this value.                 COMMENT
                                                            COMMENT
Revised Rinex header created by UCSD GPS archive for        COMMENT
GSAC on 11-Nov-1999 (1999:315) 01:06:42 GMT                 COMMENT
For assistance contact dagnew@ucsd.edu or hjohnson@ucsd.edu COMMENT
                                                            COMMENT
LAW4 LAPW4_2901_31_DOR_1972_USGS                            MARKER NAME
CHS US GEOLOGICAL SURVEY                                    OBSERVER / AGENCY
597 ASHTECH Z-XII3 1E95                                     REC # / TYPE / VERS
333 DORNE-MARGOL. TYPE T                                    ANT # / TYPE
 -2363098.0000 -4705614.0000  3588553.0000                  APPROX POSITION XYZ
        1.3538        0.0000        0.0000                  ANTENNA: DELTA H/E/N
     1     1     0                                          WAVELENGTH FACT L1/2
     5    C1    L1    L2    P1    P2                        # / TYPES OF OBSERV
    30                                                      INTERVAL
  1998     2     3    16    39    0.000000                  TIME OF FIRST OBS
  1998     2     3    23    30    0.000000                  TIME OF LAST OBS
                                                            END OF HEADER
 98  2  3 16 39  0.0000000  0  6 22  3 19 18 14 16
  22232159.893      329269.86949    233076.93249  22232158.3674   22232163.1414
  24453337.141      -18696.08949                  24453335.948    24453341.1434
  22411372.909      -13570.90749     -9809.21049  22411372.1404   22411376.9104
  21233998.212      -14162.86749    -10163.67149  21233997.1604   21234001.5864
  21459632.114      334452.31349    238110.09249  21459631.2464   21459636.0484
  20737612.872      200243.95149    141653.40649  20737611.6604   20737616.6534
 98  2  3 16 39 30.0000000  0  6 22  3 19 18 14 16
  22256844.509      458987.93349    334155.90149  22256842.7984   22256848.5794
  24451078.515      -37127.44759    -27942.25049  24451077.7014   24451083.9514
  22409926.490      -21173.75149    -15733.48949  22409925.2224   22409930.2894
  21232510.960      -21977.70349    -16253.15649  21232510.0994   21232514.3184
  21484845.157      466947.79749    341353.29449  21484844.1524   21484849.3174
  20752525.356      278608.21149    202716.44549  20752523.8474   20752528.9654
 98  2  3 16 40  0.0000000  0  6 22  3 19 18 14 16
  22281342.285      587723.85549    434469.57449  22281341.1484   22281345.7284
  24448591.544      -50197.47449    -38126.66249  24448589.9034   24448595.3384
  22408250.260      -29981.75849    -22596.85349  22408248.9624   22408254.0154
  21230794.573      -30997.37849    -23281.46849  21230793.9974   21230797.7604
  21509870.485      598456.33649    443827.44449  21509869.6874   21509874.4354
  20767278.963      356139.67049    263130.55149  20767277.6234   20767282.6804
 98  2  3 16 40 30.0000000  0  6 22  3 19 18 14 16
  22305672.643      715580.41749    534098.02749  22305671.1354   22305676.1464
  24445897.378      -64356.21249    -49159.39949  24445896.5984   24445902.6734
  22406370.202      -39860.56349    -30294.61749  22406369.2334   22406374.0994
  21228873.543      -41093.15449    -31148.30149  21228872.3874   21228876.5024
  21534731.570      729101.84849    545629.10849  21534730.8464   21534735.7004
  20781898.661      432967.02149    322996.00149  20781897.4524   20781902.2824
 98  2  3 16 41  0.0000000  0  6 22  3 19 18 14 16
  22329848.621      842625.93149    633094.48949  22329847.4484   22329852.1684
  24443002.390      -79569.52249    -61013.88949  24443002.1924   24443006.2584
  22404300.495      -50736.47149    -38769.34549  22404299.4964   22404304.0154
  21226762.706      -52185.71749    -39791.84949  21226761.8794   21226766.0774
  21559442.465      858957.99249    646815.67249  21559441.8694   21559446.5664
  20796398.126      509162.31849    382368.93949  20796397.0344   20796402.1094
 98  2  3 16 41 30.0000000  0  6 22  3 19 18 14 16
  22353882.526      968924.48849    731508.90749  22353881.2404   22353885.9524
  24439918.029      -95777.90449    -73643.76049  24439916.7584   24439921.9224
  22402053.773      -62543.08849    -47969.29549  22402052.7924   22402057.5124
  21224480.155      -64180.70949    -49138.59149  21224479.1694   21224483.3624
  21584016.961      988097.40749    747443.75349  21584016.2174   21584020.9014
  20810792.085      584802.98449    441309.70049  20810790.9094   20810796.0084
 98  2  3 16 42  0.0000000  0  6 22  3 19 18 14 16
  22377793.667     1094578.28249    829420.91749  22377792.0574   22377797.1284
  24436664.361     -112875.44449    -86966.49249  24436662.8704   24436668.9674
  22399647.708      -75186.89849    -57821.60949  22399646.7774   22399651.9174
  21222043.219      -76986.89349    -59117.43149  21222042.3364   21222046.2494
  21608472.735     1116613.12049    847585.83349  21608471.9064   21608477.1284
  20825096.501      659973.19349    499883.86949  20825095.4164   20825100.3174
 98  2  3 16 42 30.0000000  0  6 22  3 19 18 14 16
  22401600.184     1219682.63149    926904.78549  22401598.9064   22401603.5344
  24433255.512     -130788.34849   -100924.53949  24433254.5304   24433259.8194
  22397096.007      -88596.37049    -68270.54349  22397095.5434   22397100.3634
  21219467.584      -90522.01449    -69664.27349  21219466.6094   21219470.7354
  21632822.040     1244569.54949    947292.10149  21632821.0504   21632826.1184
  20839323.986      734738.76049    558142.73549  20839323.0274   20839327.8864
 98  2  3 16 43  0.0000000  0  6 22  3 19 18 14 16
  22425312.683     1344292.47949   1024003.33349  22425311.4704   22425315.7584
  24429705.228     -149444.77149   -115461.95149  24429703.4584   24429709.9614
  22394407.990     -102722.22749    -79277.69849  22394407.4244   22394412.2824
  21216765.099     -104723.69849    -80730.51549  21216764.1904   21216768.3994
  21657073.836     1372013.61749   1046599.13049  21657072.7904   21657077.5544
  20853483.378      809146.63749    616122.88049  20853482.2854   20853487.1924
 98  2  3 16 43 30.0000000  0  6 22  3 19 18 14 16
  22448939.980     1468454.43949   1120752.87149  22448938.5334   22448943.6674
  24426030.015     -168757.50649   -130510.79849  24426029.1724   24426034.6594
  22391593.825     -117510.79249    -90801.25549  22391592.9734   22391597.9964
  21213944.583     -119545.47549    -92279.93549  21213943.5924   21213947.8554
  21681237.839     1498996.42149   1145546.73849  21681237.3224   21681241.8144
  20867583.366      883242.36049    673859.79049  20867582.1244   20867587.1854
 98  2  3 16 44  0.0000000  0  6 22  3 19 18 14 16
  22472490.200     1592211.34249   1217186.78349  22472489.3894   22472493.3164
  24422240.567     -188671.16649   -146027.88349  24422239.8254   24422245.6584
  22388664.318     -132905.45349   -102797.08749  22388663.7014   22388668.4304
  21211013.225     -134949.69649   -104283.22249  21211012.2824   21211016.6464
  21705322.466     1625561.73949   1244169.02349  21705321.8384   21705326.6024
  20881631.441      957065.42649    731384.24249  20881630.2484   20881635.4234
 98  2  3 16 44 30.0000000  0  6 22  3 19 18 14 16
  22495971.625     1715606.68349   1313338.96049  22495970.6944   22495975.0804
  24418345.997     -209137.14749   -161975.35249  24418346.3014   24418351.7994
  22385631.015     -148845.63349   -115217.99149  22385630.2814   22385635.1954
  21207982.693     -150875.37549   -116692.84549  21207981.6204   21207986.0934
  21729336.276     1751755.03549   1342501.43149  21729335.3344   21729340.3214
  20895639.224     1030677.02749    788743.91349  20895637.9614   20895643.1164
 98  2  3 16 45  0.0000000  0  6 22  3 19 18 14 16
  22519391.871     1838680.60949   1409240.68149  22519390.9004   22519395.4504
  24414357.233     -230098.73949   -178308.98649  24414355.7934   24414363.0254
  22382500.492     -165296.28049   -128036.67349  22382499.6384   22382504.5974
  21204860.837     -167280.82949   -129476.31249  21204860.0614   21204864.0034
  21753286.967     1877616.93649   1440575.60049  21753286.4134   21753291.3064
  20909615.587     1104123.35849    845974.79949  20909614.5854   20909619.5404
 98  2  3 16 45 30.0000000  0  6 22  3 19 18 14 16
  22542759.100     1961475.88349   1504925.27349  22542758.1334   22542762.2014
  24410280.793     -251520.40449   -195001.13349  24410280.4154   24410284.4534
  22379280.151     -182219.48149   -141223.56549  22379279.0574   22379283.9884
  21201653.930     -184133.37249   -142608.15949  21201653.1814   21201657.3364
  21777181.224     2003181.88649   1538418.38049  21777180.5624   21777185.5164
  20923570.375     1177456.11349    903117.18449  20923569.2644   20923574.0224
 98  2  3 16 46  0.0000000  0  6 22  3 19 18 14 16
  22566083.966     2084048.66049   1600436.48749  22566082.4964   22566087.5594
  24406127.475     -273346.38049   -212008.31549  24406127.5394   24406132.2244
  22375978.324     -199570.68549   -154743.97049  22375977.7734   22375982.3694
  21198374.046     -201369.41349   -156038.84049  21198373.1524   21198377.3264
  21801027.762     2128495.76649   1636065.52249  21801027.2834   21801032.3384
  20937515.808     1250739.59649    960221.17649  20937514.7104   20937519.6624
 98  2  3 16 46 30.0000000  0  6 22  3 19 18 14 16
  22589365.674     2206394.62149   1695770.95549  22589363.9294   22589369.2614
  24401897.790     -295573.12349   -229327.79649  24401897.7984   24401901.7294
  22372589.105     -217381.10849   -168622.20349  22372587.8704   22372592.9104
  21195019.747     -218996.50749   -169774.24249  21195019.0144   21195023.0844
  21824826.117     2253556.44149   1733515.35949  21824825.8574   21824830.7704
  20951450.662     1323967.33349   1017281.72549  20951449.6634   20951454.6244
 98  2  3 16 47  0.0000000  0  6 22  3 19 18 14 16
  22612609.294     2328540.51949   1790949.54249  22612608.0974   22612613.0394
  24397598.122     -318167.12349   -246933.44849  24397597.3654   24397603.3504
  22369117.648     -235623.66849   -182837.16549  22369116.8734   22369122.1094
  21191596.328     -236986.67449   -183792.55149  21191595.4444   21191599.5584
  21848584.314     2378405.90249   1830800.61449  21848583.9004   21848588.7154
  20965381.471     1397174.28149   1074326.07949  20965380.2094   20965385.4624
 98  2  3 16 47 30.0000000  0  6 22  3 19 18 14 16
  22635808.448     2450452.59549   1885945.92449  22635807.7164   22635812.6604
  24393225.621     -341144.88749   -264838.15049  24393225.2824   24393230.8724
  22365561.843     -254309.55849   -197397.57849  22365561.1544   22365566.2424
  21188101.895     -255350.35149   -198101.91049  21188101.1234   21188105.1064
  21872299.922     2503031.81149   1927911.67349  21872299.4924   21872304.3074
  20979305.731     1470346.62949   1131343.47449  20979304.4904   20979309.7954
 98  2  3 16 48  0.0000000  0  6 22  3 19 18 14 16
  22658974.825     2572192.76049   1980808.35249  22658973.1294   22658978.7034
  24388792.691     -364439.85349   -282990.02849  24388791.8314   24388796.7674
  22361934.385     -273371.95949   -212251.37849  22361933.8754   22361938.9004
  21184549.849     -274016.51749   -212646.97349  21184549.1524   21184553.3014
  21895985.971     2627502.42749   2024901.72549  21895985.5554   21895990.5844
  20993233.248     1543536.20749   1188374.29649  20993232.1284   20993237.4644
 98  2  3 16 48 30.0000000  0  6 22  3 19 18 14 16
  22682109.978     2693768.78049   2075542.87649  22682108.8934   22682113.3104
  24384300.278     -388047.38849   -301385.46349  24384299.5314   24384305.4824
  22358243.248     -292769.09349   -227366.00449  22358242.4414   22358247.5964
  21180942.512     -292973.51749   -227418.66149  21180941.6894   21180945.9444
  21919644.118     2751826.53849   2121777.61749  21919643.4074   21919648.5644
  21007166.826     1616757.48849   1245429.82349  21007165.8524   21007170.9864
 98  2  3 16 49  0.0000000  0  6 22  3 19 18 14 16
  22705209.670     2815158.36649   2170132.12949  22705207.5724   22705213.3644
  24379747.307     -411973.13249   -320028.84549  24379745.3534   24379752.1554
  22354490.205     -312491.40249   -242734.02449  22354489.3094   22354494.2264
  21177279.862     -312221.11149   -242416.79249  21177278.9154   21177283.0314
  21943269.133     2875976.98849   2218518.19349  21943268.2224   21943273.2394
  21021103.586     1689995.50449   1302498.38749  21021102.5744   21021107.8064
 98  2  3 16 49 30.0000000  0  6 22  3 19 18 14 16
  22728276.280     2936374.04749   2264585.87449  22728274.9834   22728280.4624
  24375134.820     -436211.43949   -338915.78049  24375133.6164   24375140.3804
  22350675.567     -332537.33449   -258354.20949  22350675.0804   22350680.1254
  21173561.792     -331759.86249   -257641.79949  21173560.8894   21173565.1374
  21966859.729     2999946.73749   2315117.96449  21966858.4104   21966863.7694
  21035040.103     1763232.08549   1359565.83549  21035039.2054   21035044.1794
 98  2  3 16 50  0.0000000  0  6 22  3 19 18 14 16
  22751322.829     3057484.26249   2358957.43349  22751321.3784   22751326.2214
  24370471.692     -460716.64649   -358010.68249  24370470.9744   24370476.9854
  22346811.129     -352845.25249   -274178.54149  22346810.3354   22346815.2334
  21169798.285     -351537.30249   -273052.79549  21169797.2344   21169801.2854
  21990426.385     3123790.74149   2411619.75249  21990425.2754   21990430.7864
  21048985.985     1836518.05249   1416671.76549  21048985.0114   21048990.0304
 98  2  3 16 50 30.0000000  0  6 22  3 19 18 14 16
  22774335.210     3178415.05849   2453189.19149  22774333.7474   22774339.3244
  24365745.768     -485551.85649   -377362.73149  24365745.1964   24365750.4334
  22342883.563     -373484.63949   -290261.15749  22342882.7544   22342888.0624
  21165979.226     -371606.33049   -288691.00149  21165978.5684   21165982.6894
  22013956.921     3247444.95449   2507973.64949  22013956.1054   22013961.8034
  21062928.889     1909788.48749   1473765.59349  21062927.8484   21062932.9644
 98  2  3 16 51  0.0000000  0  6 22  3 19 18 14 16
  22797326.003     3299232.24549   2547332.41749  22797325.1604   22797329.6624
  24360971.311     -510641.91149   -396913.34949  24360970.4014   24360976.3214
  22338902.157     -394407.09749   -306564.35149  22338901.5104   22338906.2754
  21162119.757     -391888.03949   -304494.93149  21162119.1304   21162123.2044
  22037464.553     3370978.36349   2604233.41249  22037464.3314   22037469.0794
  21076879.903     1983101.46149   1530892.57049  21076878.8404   21076884.0254
 98  2  3 16 51 30.0000000  0  6 22  3 19 18 14 16
  22820297.517     3419948.21549   2641396.77549  22820296.3684   22820301.1024
  24356148.018     -535988.42949   -416663.81949  24356147.4904   24356152.4694
  22334867.307     -415610.13849   -323086.17849  22334866.3344   22334871.2624
  21158220.744     -412377.71049   -320460.91249  21158219.9394   21158224.0894
  22060950.263     3494396.12449   2700403.06249  22060949.9524   22060955.0334
  21090841.326     2056469.12949   1588062.16549  21090840.0254   21090845.4864
 98  2  3 16 52  0.0000000  0  6 22  3 19 18 14 16
  22843253.955     3540585.05849   2735399.47049  22843252.8554   22843257.6214
  24351286.065     -561538.21449   -436572.67349  24351285.4264   24351291.4184
  22330787.436     -437049.93649   -339792.49549  22330786.9684   22330791.4254
  21154292.694     -433019.75249   -336545.62449  21154291.9384   21154295.8024
  22084420.983     3617734.97449   2796511.21449  22084420.4344   22084425.2614
  21104825.391     2129955.80549   1645324.49449  21104824.3544   21104829.6064
 98  2  3 16 52 30.0000000  0  6 22  3 19 18 14 16
  22866189.814     3661113.80449   2829317.94849  22866188.5674   22866193.4804
  24346386.076     -587287.79149   -456637.22449  24346385.0784   24346390.7854
  22326658.518     -458747.69949   -356699.82749  22326657.7164   22326662.3614
  21150331.378     -453836.51949   -352766.48849  21150330.6314   21150334.4934
  22107871.775     3740969.07849   2892537.74049  22107871.3094   22107876.2684
  21118828.412     2203541.97349   1702664.34449  21118827.4804   21118832.7044
 98  2  3 16 53  0.0000000  0  6 22  3 19 18 14 16
  22889107.647     3781547.37349   2923162.25749  22889106.5614   22889111.1034
  24341451.595     -613217.80049   -476842.34949  24341450.3154   24341456.5424
  22322481.706     -480696.54849   -373802.80449  22322481.0684   22322485.9404
  21146334.142     -474842.14449   -369134.50449  21146333.4984   21146337.5454
  22131301.260     3864091.47549   2988477.23449  22131300.9894   22131305.5314
  21132852.275     2277237.73449   1760089.59749  21132851.2914   21132856.2194
 98  2  3 16 53 30.0010000  0  6 22  3 19 18 14 16
  22912008.838     3901893.39949   3016938.34249  22912007.5574   22912011.9254
  24336485.468     -639314.69849   -497177.51849  24336484.7024   24336490.8254
  22318258.984     -502887.31249   -391094.29249  22318258.5214   22318263.0284
  21142300.088     -496041.10049   -385653.17449  21142299.1614   21142303.3834
  22154711.635     3987113.46349   3084338.47949  22154710.6734   22154715.5994
  21146901.352     2351065.88249   1817618.00149  21146900.4954   21146905.3764
 98  2  3 16 54  0.0010000  0  6 22  3 19 18 14 16
  22934894.758     4022159.66649   3110652.29149  22934893.7434   22934898.7984
  24331491.710     -665557.08849   -517626.06449  24331490.9994   24331497.2334
  22313995.286     -525293.10349   -408553.32949  22313994.6034   22313999.6224
  21138233.891     -517409.01549   -402303.49749  21138232.9264   21138237.4474
  22178105.869     4110050.92249   3180133.86249  22178105.3674   22178110.2394
  21160978.337     2425040.86349   1875260.82349  21160977.1904   21160982.5014
 98  2  3 16 54 30.0010000  0  6 22  3 19 18 14 16
  22957767.616     4142357.31449   3204312.76149  22957766.5594   22957770.8414
  24326467.847     -691957.59049   -538197.82149  24326467.1074   24326472.5064
  22309690.377     -547915.71049   -426181.31449  22309689.6734   22309694.4604
  21134135.206     -538947.75149   -419086.92749  21134134.4334   21134138.7784
  22201485.333     4232910.58749   3275868.62449  22201484.5624   22201490.0194
  21175082.312     2499157.73749   1933014.21049  21175081.0764   21175086.4514
 98  2  3 16 55  0.0010000  0  6 22  3 19 18 14 16
  22980628.770     4262493.23749   3297925.13349  22980627.2334   22980632.3484
  24321410.757     -718532.79249   -558905.71149  24321409.3394   24321414.7934
  22305343.846     -570756.87349   -443979.59849  22305342.9224   22305348.0144
  21130006.385     -560644.82149   -435993.72949  21130005.6914   21130009.9164
  22224849.805     4355692.02449   3371542.42849  22224848.9174   22224853.9324
  21189215.101     2573426.20049   1990885.72149  21189214.0124   21189219.1494
 98  2  3 16 55 30.0010000  0  6 22  3 19 18 14 16
  23003492.379     4382642.06549   3391547.56149  23003491.5344   23003495.9264
  24316331.783     -745222.92249   -579703.16249  24316331.2444   24316336.0114
  22300968.850     -593747.59049   -461894.41749  22300968.3814   22300973.4974
  21125865.934     -582403.22849   -452948.32549  21125865.2584   21125869.3244
  22248216.520     4478485.25349   3467225.42249  22248215.6714   22248221.3454
  21203391.173     2647922.06149   2048934.42349  21203390.1184   21203395.4034
 98  2  3 16 56  0.0010000  0  6 22  3 19 18 14 16
  23026358.541     4502804.19049   3485180.34149  23026356.9754   23026362.6574
  24311232.895     -772017.80149   -600582.22949  24311232.0444   24311238.0184
  22296564.472     -616892.77249   -479929.60549  22296563.7404   22296568.8384
  21121714.775     -604217.64249   -469946.57549  21121714.0024   21121718.3934
  22271584.950     4601287.24749   3562915.24349  22271584.0134   22271589.8484
  21217607.754     2722630.58449   2107148.83749  21217606.6974   21217611.9164
 98  2  3 16 56 30.0010000  0  6 22  3 19 18 14 16
  23049226.800     4622977.67849   3578821.99249  23049225.8934   23049230.8224
  24306118.659     -798893.18649   -621524.03749  24306117.8554   24306123.1764
  22292129.167     -640200.46449   -498091.41949  22292128.1014   22292133.1694
  21117552.099     -626092.62349   -486992.01149  21117551.5634   21117555.5844
  22294954.250     4724093.90449   3658608.69849  22294953.7954   22294959.2754
  21231862.142     2797537.74049   2165518.03049  21231861.3184   21231866.3534
 98  2  3 16 57  0.0010000  0  6 22  3 19 18 14 16
  23072089.159     4743120.16949   3672439.47349  23072087.2264   23072092.6144
  24300987.954     -825855.06749   -642533.23549  24300987.3874   24300992.1154
  22287657.496     -663699.02549   -516401.95949  22287656.3674   22287661.6024
  21113372.087     -648058.89249   -504108.58649  21113371.2274   21113375.4534
  22318317.152     4846866.26949   3754275.43049  22318316.4114   22318321.7474
  21246145.547     2872597.18049   2224005.88549  21246144.6904   21246149.7004
 98  2  3 16 57 30.0010000  0  6 22  3 19 18 14 16
  23094955.035     4863281.11049   3766071.32949  23094953.9864   23094958.4724
  24295859.743     -852804.03249   -663532.37749  24295859.0474   24295863.7704
  22283163.885     -687312.82549   -534802.30649  22283163.5274   22283168.3194
  21109189.649     -670037.86549   -521235.06249  21109188.8534   21109192.9634
  22341687.129     4969675.55149   3849970.92949  22341686.7924   22341691.1994
  21260469.558     2947870.01849   2282660.02149  21260468.6844   21260473.6604
 98  2  3 16 58  0.0010000  0  6 22  3 19 18 14 16
  23117811.120     4983390.57149   3859663.08449  23117809.8634   23117815.4704
  24290727.061     -879775.77149   -684549.27949  24290725.8804   24290731.6174
  22278641.049     -711080.34349   -553322.42949  22278640.0784   22278645.2944
  21104994.432     -692083.84649   -538413.74849  21104993.5874   21104997.7834
  22365050.629     5092451.13949   3945640.17549  22365050.4584   22365055.0664
  21274822.874     3023297.01049   2341434.28249  21274821.8774   21274826.9624
 98  2  3 16 58 30.0010000  0  6 22  3 19 18 14 16
  23140659.241     5103458.05849   3953222.11849  23140658.0964   23140662.7804
  24285590.322     -906768.69649   -705582.70349  24285589.5664   24285594.5104
  22274093.076     -734980.08349   -571945.59149  22274092.4674   22274097.5034
  21100791.666     -714169.72349   -555623.52849  21100790.9464   21100795.0824
  22388410.130     5215205.18149   4041292.62549  22388410.2264   22388414.7574
  21289208.314     3098892.76049   2400340.03749  21289207.4184   21289212.3814
 98  2  3 16 59  0.0010000  0  6 22  3 19 18 14 16
  23163502.168     5223498.35449   4046759.95949  23163500.8424   23163506.3314
  24280451.126     -933774.82149   -726626.39449  24280450.5844   24280456.2724
  22269526.368     -758978.48849   -590645.62749  22269525.6384   22269530.5634
  21096586.845     -736266.38549   -572841.71049  21096586.1474   21096590.2444
  22411769.104     5337956.64649   4136943.05849  22411768.7054   22411773.6194
  21303633.248     3174696.20249   2459407.63549  21303632.2324   21303637.3224
 98  2  3 16 59 30.0010000  0  6 22  3 19 18 14 16
  23186343.313     5343529.23549   4140290.46549  23186341.4004   23186347.8454
  24275307.669     -960803.38949   -747687.58549  24275306.8354   24275313.1624
  22264941.093     -783073.96549   -609421.31149  22264940.4324   22264945.5474
  21092379.885     -758374.10049   -590068.50349  21092378.9804   21092383.1094
  22435128.773     5460712.10449   4232596.60349  22435128.6544   22435132.9914
  21318100.133     3250720.25849   2518647.14149  21318099.1074   21318104.4514
 98  2  3 17  0  0.0010000  0  7 22  3 19 18 14 16 31
  23209190.859     5463593.83649   4233847.24749  23209189.5724   23209194.6614
  24270161.060     -987848.85549   -768761.95849  24270161.0774   24270165.9414
  22260341.619     -807244.35949   -628255.36849  22260340.7774   22260345.8894
  21088171.897     -780486.96449   -607299.30449  21088171.0334   21088175.0694
  22458491.084     5583481.64949   4328261.13249  22458490.8204   22458495.2004
  21332611.886     3326979.80549   2578070.14549  21332611.0114   21332616.2704
  24999876.824    -2022923.01749  -1484359.97149  24999876.1864   24999882.7434
 98  2  3 17  0 30.0010000  0  7 22  3 19 18 14 16 31
  23232038.055     5583656.16349   4327402.25449  23232036.8764   23232042.2874
  24265002.513    -1014957.29949   -789885.42249  24265001.9794   24265007.4724
  22255717.982     -831541.85949   -647188.47049  22255717.1984   22255722.4664
  21083954.234     -802650.88249   -624569.89249  21083953.5534   21083957.6414
  22481850.634     5706236.73049   4423914.39049  22481850.1394   22481855.3654
  21347159.097     3403425.75449   2637638.39749  21347157.9904   21347163.4044
  24988192.506    -2084324.50849  -1532205.17549  24988190.2464   24988198.2904
 98  2  3 17  1  0.0010000  0  7 22  3 19 18 14 16 31
  23254878.493     5703683.37049   4420929.89549  23254877.2234   23254882.1044
  24259828.794    -1042145.81449   -811071.28049  24259827.5314   24259834.5734
  22251061.741     -856010.62749   -666255.03249  22251060.8814   22251066.0504
  21079718.916     -824907.90449   -641913.02549  21079718.0254   21079722.3714
  22505201.408     5828945.61249   4519531.65649  22505200.5544   22505206.2544
  21361736.542     3480030.81149   2697330.63149  21361735.4584   21361740.7254
  24976429.996    -2146136.22649  -1580370.02949  24976428.4884   24976435.9904
 98  2  3 17  1 30.0010000  0  7 22  3 19 18 14 16 31
  23277720.478     5823718.57349   4514463.76749  23277719.2804   23277724.1284
  24254650.178    -1069360.04449   -832277.17449  24254649.3964   24254654.8324
  22246376.093     -880633.77949   -685441.89249  22246375.6354   22246380.2434
  21075474.116     -847214.40949   -659294.71849  21075473.0844   21075477.1764
  22528549.886     5951642.96949   4615139.93249  22528549.2604   22528554.7004
  21376348.528     3556817.33349   2757164.26549  21376347.4334   21376352.8674
  24964597.181    -2208317.81449  -1628823.08949  24964594.4514   24964602.0144
 98  2  3 17  2  0.0010000  0  7 22  3 19 18 14 16 31
  23300574.895     5943818.76049   4608048.27749  23300573.1194   23300578.7504
  24249480.348    -1096527.98649   -853447.00949  24249478.8754   24249484.8974
  22241674.634     -905340.14049   -704693.60149  22241673.6604   22241678.9234
  21071234.571     -869493.18849   -676654.80549  21071233.9284   21071238.0544
  22551907.833     6074389.94449   4710786.88049  22551907.2004   22551912.9624
  21391008.218     3633854.25449   2817193.01549  21391007.2844   21391012.5584
  24952707.558    -2270797.33349  -1677508.29549  24952706.8704   24952712.9764
 98  2  3 17  2 30.0010000  0  7 22  3 19 18 14 16 31
  23323430.613     6063926.11649   4701638.35649  23323429.2364   23323434.3434
  24244315.380    -1123670.49249   -874597.03249  24244314.2014   24244319.5084
  22236948.965     -930173.65949   -724044.38449  22236948.3014   22236952.9304
  21066995.578     -891769.39549   -694012.88749  21066994.8334   21066999.0174
  22575265.866     6197137.27449   4806434.09549  22575265.2894   22575270.8964
  21405709.739     3711111.20949   2877393.21749  21405708.9864   21405714.0284
  24940756.330    -2333600.77449  -1726445.89449  24940756.4544   24940763.2134
 98  2  3 17  3  0.0010000  0  7 22  3 19 18 14 16 31
  23346289.125     6184048.62649   4795240.27049  23346288.9204   23346293.3834
  24239158.008    -1150772.41549   -895715.43549  24239157.4704   24239162.9404
  22232202.717     -955115.40349   -743479.49449  22232202.1974   22232207.0804
  21062759.864     -914028.18049   -711357.39449  21062759.2154   21062763.3884
  22598619.652     6319862.45749   4902064.05949  22598618.5524   22598625.0934
  21420457.057     3788608.69549   2937780.85049  21420456.2574   21420461.2164
  24928744.000    -2396725.73349  -1775634.00949  24928741.8514   24928750.4964
 98  2  3 17  3 30.0010000  0  7 22  3 19 18 14 16 31
  23369145.911     6304161.53549   4888834.69049  23369144.4984   23369150.0164
  24234003.366    -1177859.72749   -916822.45449  24234001.6404   24234008.3584
  22227436.807     -980160.39949   -762995.06149  22227436.0964   22227441.0634
  21058525.328     -936280.95049   -728697.21149  21058524.5574   21058528.8334
  22621965.296     6442544.71849   4997660.57349  22621964.5904   22621970.6254
  21435245.956     3866324.82049   2998338.84649  21435244.8694   21435250.1644
  24916667.235    -2460187.76049  -1825084.75549  24916665.8214   24916671.1814
 98  2  3 17  4  0.0010000  0  7 22  3 19 18 14 16 31
  23392000.269     6424261.84949   4982419.29349  23391999.4164   23392004.1604
  24228851.433    -1204932.83649   -937918.43049  24228850.6364   24228855.9774
  22222654.830    -1005289.81149   -782576.40749  22222653.9574   22222658.8994
  21054293.250     -958520.62249   -746026.82849  21054292.5974   21054296.7494
  22645305.224     6565196.82749   5093233.58849  22645304.9924   22645310.7384
  21450078.164     3944268.52849   3059074.18049  21450077.2514   21450082.4444
  24904527.570    -2523981.11249  -1874793.67049  24904526.1454   24904534.3544
 98  2  3 17  4 30.0010000  0  7 22  3 19 18 14 16 31
  23414857.396     6544376.62049   5076015.15549  23414856.5224   23414861.4254
  24223709.385    -1231953.99949   -958973.90849  24223708.8654   24223714.6844
  22217860.200    -1030485.66449   -802209.52449  22217859.3164   22217864.4834
  21050071.002     -980708.60749   -763316.16949  21050070.2904   21050074.6284
  22668646.330     6687854.94549   5188811.29249  22668645.8134   22668651.3034
  21464957.645     4022460.53149   3120002.99049  21464956.7304   21464961.8304
  24892328.720    -2588086.80349  -1924745.99949  24892328.1604   24892334.4804
 98  2  3 17  5  0.0010000  0  8 22  3 19 18 14 27 16 31
  23437730.549     6664575.30449   5169676.41849  23437729.0984   23437734.1764
  24218586.751    -1258873.64349   -979950.29949  24218585.8624   24218592.4374
  22213064.435    -1055687.75949   -821847.50249  22213063.7164   22213068.1924
  21045871.623    -1002776.71349   -780512.09849  21045871.0374   21045875.1564
  22692006.130     6810611.10849   5284465.38449  22692005.6414   22692011.4324
  25464899.386    -1988822.39749  -1465591.97549  25464898.5684   25464905.2774
  21479895.268     4100958.23449   3181170.00749  21479894.4294   21479899.5004
  24880081.867    -2652444.42249  -1974894.64749  24880080.4094   24880088.2854
 98  2  3 17  5 30.0010000  0  8 22  3 19 18 14 27 16 31
  23460622.093     6784871.06549   5263413.32449  23460621.5804   23460626.3404
  24213485.198    -1285682.33049  -1000840.20449  24213483.9044   24213490.0464
  22208267.209    -1080897.41549   -841491.36749  22208266.5274   22208271.2754
  21041696.205    -1024718.60849   -797609.68149  21041695.4974   21041699.6164
  22715390.238     6933495.09949   5380219.08549  22715389.9934   22715395.1284
  25455364.116    -2038930.14249  -1504636.92449  25455364.1784   25455369.6124
  21494890.757     4179759.85949   3242573.84749  21494889.7774   21494895.0324
  24867791.101    -2717032.63449  -2025222.98749  24867790.2974   24867797.1714
 98  2  3 17  6  0.0010000  0  8 22  3 19 18 14 27 16 31
  23483518.069     6905190.05349   5357168.33749  23483516.1904   23483521.8954
  24208391.145    -1312451.73949  -1021699.48849  24208390.6404   24208396.0054
  22203450.454    -1106209.77349   -861215.25649  22203449.9714   22203454.3944
  21037530.673    -1046608.77749   -814666.95749  21037530.1214   21037534.0854
  22738781.781     7056417.92149   5476003.04949  22738781.0594   22738786.8884
  25445788.026    -2089252.63049  -1543849.21249  25445787.2484   25445792.9834
  21509930.769     4258795.52449   3304160.05949  21509929.7064   21509935.0264
  24855442.403    -2781925.98449  -2075789.10349  24855441.3364   24855448.9064
 98  2  3 17  6 30.0010000  0  8 22  3 19 18 14 27 16 31
  23506416.084     7025519.67149   5450931.61249  23506415.1174   23506420.8134
  24203303.734    -1339186.78049  -1042531.98249  24203303.4624   24203308.9874
  22198615.482    -1131617.72649   -881013.64049  22198614.6194   22198619.4834
  21033374.771    -1068448.37749   -831684.83649  21033374.0384   21033378.1044
  22762176.249     7179356.27049   5571799.09949  22762175.6644   22762181.1574
  25436170.407    -2139793.38349  -1583231.57049  25436169.3064   25436176.2264
  21525015.264     4338065.03749   3365928.48749  21525014.4534   21525019.4364
  24843036.614    -2847118.30149  -2126588.18949  24843035.2654   24843042.2614
 98  2  3 17  7  0.0010000  0  8 22  3 19 18 14 27 16 31
  23529326.348     7145913.58149   5544745.00349  23529325.5874   23529329.6124
  24198235.228    -1365822.33249  -1063286.93749  24198233.9714   24198239.9104
  22193777.928    -1157039.32549   -900822.66049  22193777.1984   22193782.1974
  21029237.930    -1090187.65449   -848624.54249  21029237.2624   21029241.5744
  22785583.908     7302364.13049   5667649.31949  22785583.2194   22785588.8264
  25426525.439    -2190477.40249  -1622725.56449  25426523.7544   25426530.9544
  21540156.100     4417630.49049   3427927.51649  21540155.2314   21540160.4054
  24830587.959    -2912535.67849  -2177562.66649  24830586.7424   24830593.9414
 98  2  3 17  7 30.0010000  0  8 22  3 19 18 14 27 16 31
  23552246.845     7266361.25349   5638600.29449  23552245.5004   23552250.1914
  24193189.991    -1392335.34449  -1083946.40749  24193189.4234   24193195.3454
  22188938.849    -1182468.76249   -920637.79049  22188938.1884   22188942.9094
  21025118.807    -1111833.73049   -865491.62049  21025118.1144   21025122.3894
  22809000.112     7425416.62949   5763534.32949  22808999.7984   22809004.7194
  25416853.188    -2241305.80049  -1662332.05649  25416853.0794   25416858.8214
  21555352.672     4497488.98749   3490154.89049  21555351.8304   21555356.8624
  24818097.175    -2978174.47149  -2228709.68349  24818095.8604   24818102.7674
 98  2  3 17  8  0.0010000  0  8 22  3 19 18 14 27 16 31
  23575169.589     7386821.06249   5732465.02749  23575168.6804   23575173.9674
  24188165.147    -1418741.05249  -1104522.25549  24188164.9324   24188170.3724
  22184093.057    -1207933.37349   -940480.32349  22184092.0434   22184097.0364
  21021014.874    -1133399.98049   -882296.49549  21021014.1354   21021018.3874
  22832416.972     7548472.74349   5859422.15049  22832416.7974   22832421.7624
  25407149.990    -2292296.34849  -1702064.92749  25407149.1274   25407155.7014
  21570598.127     4577604.36249   3552582.43349  21570597.1164   21570602.3404
  24805558.658    -3044064.47949  -2280052.45349  24805557.5804   24805564.4504
 98  2  3 17  8 30.0010000  0  8 22  3 19 18 14 27 16 31
  23598111.044     7507378.79949   5826406.07649  23598109.3994   23598114.6834
  24183179.152    -1444942.67549  -1124939.07549  24183177.9144   24183184.2464
  22179258.791    -1233337.44549   -960275.69349  22179258.1594   22179262.9744
  21016941.602    -1154805.32749   -898975.99549  21016940.9154   21016945.0424
  22855850.838     7671618.47649   5955379.80649  22855850.4944   22855855.6154
  25397434.857    -2343349.85649  -1741846.85349  25397434.2924   25397439.6444
  21585905.432     4658044.68449   3615263.17749  21585904.5794   21585909.8524
  24792989.546    -3110115.19449  -2331520.46249  24792988.6314   24792995.8294
 98  2  3 17  9  0.0010000  0  8 22  3 19 18 14 27 16 31
  23621080.316     7628082.85749   5920461.13949  23621079.0774   23621084.7304
  24178240.395    -1470895.85649  -1145162.28249  24178239.4034   24178245.2784
  22174441.149    -1258654.36949   -980003.14749  22174440.2844   22174445.2704
  21012904.074    -1176022.72249   -915509.03549  21012903.3404   21012907.3844
  22879309.331     7794893.61049   6051438.29249  22879308.5644   22879314.2744
  25387710.907    -2394449.31249  -1781664.59949  25387710.3144   25387717.1214
  21601280.256     4738839.86049   3678220.43349  21601279.2264   21601284.5864
  24780396.880    -3176289.84949  -2383085.06849  24780395.4594   24780402.9194
 98  2  3 17  9 30.0010000  0  8 22  3 19 18 14 27 16 31
  23644077.439     7748933.11249   6014630.11149  23644076.1274   23644081.3124
  24173346.655    -1496612.46449  -1165201.17049  24173345.6514   24173351.9724
  22169636.893    -1283900.74849   -999675.64149  22169636.0204   22169641.4624
  21008904.460    -1197040.86249   -931886.81749  21008903.7794   21008907.8164
  22902790.625     7918288.68149   6147590.22849  22902790.2584   22902795.7464
  25377976.328    -2445604.60349  -1821525.85849  25377975.8134   25377981.6564
  21616721.793     4819985.65149   3741450.89549  21616720.9654   21616726.1224
  24767780.512    -3242588.46449  -2434746.26049  24767778.4544   24767786.4344
 98  2  3 17 10  0.0010000  0  8 22  3 19 18 14 27 16 31
  23667095.130     7869891.63449   6108883.45249  23667093.7424   23667099.2274
  24168487.903    -1522145.21749  -1185096.78449  24168487.2444   24168492.4884
  22164838.757    -1309115.09549  -1019323.17249  22164838.0824   22164842.9274
  21004937.429    -1217887.85349   -948131.22649  21004936.7754   21004940.8574
  22926288.154     8041768.85149   6243808.49149  22926287.6314   22926293.4774
  25368222.161    -2496863.18449  -1861467.60749  25368221.5564   25368227.7334
  21632221.739     4901438.23849   3804920.41949  21632221.0154   21632226.1894
  24755133.075    -3309050.17249  -2486534.54049  24755131.9194   24755139.5234
 98  2  3 17 10 30.0010000  0  8 22  3 19 18 14 27 16 31
  23690124.523     7990911.55549   6203184.65049  23690123.4994   23690128.8964
  24163655.845    -1547537.71049  -1204883.09249  24163654.5304   24163660.7554
  22160039.778    -1334333.85349  -1038974.13749  22160039.2144   22160043.7964
  21000992.788    -1238617.26549   -964284.01649  21000991.8064   21000996.1184
  22949796.367     8165305.11149   6340070.45249  22949796.0974   22949801.3854
  25358437.843    -2548280.43949  -1901533.00249  25358436.8394   25358442.9734
  21647774.529     4983168.60249   3868606.39749  21647773.3784   21647778.9614
  24742447.782    -3375711.26549  -2538478.18849  24742445.8714   24742454.6214
 98  2  3 17 11  0.0010000  0  8 22  3 19 18 14 27 16 31
  23713158.447     8111955.41649   6297504.48149  23713157.3034   23713161.1534
  24158843.506    -1572826.29349  -1224588.44149  24158843.2814   24158848.6954
  22155232.809    -1359594.45849  -1058657.71749  22155232.0424   22155236.7394
  20997067.670    -1259243.54549   -980356.44249  20997066.9234   20997071.2044
  22973312.597     8288883.64449   6436365.35049  22973312.4474   22973318.0494
  25348619.446    -2599876.83749  -1941738.00349  25348618.4574   25348624.5224
  21663377.938     5065164.87049   3932499.56949  21663376.9764   21663382.2824
  24729718.136    -3442605.86449  -2590603.79449  24729716.8334   24729724.7964
 98  2  3 17 11 30.0010000  0  8 22  3 19 18 14 27 16 31
  23736197.988     8233029.25249   6391847.67449  23736195.9044   23736201.9354
  24154055.180    -1597988.92849  -1244195.65349  24154054.3664   24154061.2264
  22150419.869    -1384886.40749  -1078365.71549  22150419.1744   22150423.9034
  20993169.064    -1279730.84749   -996320.56749  20993168.2724   20993172.6184
  22996840.155     8412521.37349   6532706.38549  22996840.0694   22996845.2404
  25338771.766    -2651626.63849  -1982062.53949  25338771.2944   25338777.5614
  21679034.928     5147442.74149   3996612.17649  21679034.1774   21679039.4734
  24716945.661    -3509725.30249  -2642904.58149  24716945.2854   24716951.2364
 98  2  3 17 12  0.0010000  0  8 22  3 19 18 14 27 16 31
  23759249.721     8354166.79849   6486240.49549  23759248.1454   23759254.1204
  24149300.466    -1622975.16249  -1263665.42349  24149299.4184   24149305.6464
  22145608.504    -1410170.23149  -1098067.39449  22145607.9554   22145612.7634
  20989302.629    -1300049.11749  -1012152.99049  20989301.9994   20989306.0774
  23020384.613     8536247.75749   6629116.49949  23020384.3304   23020390.1574
  25328900.207    -2703502.55749  -2022485.34549  25328899.7284   25328905.2834
  21694752.530     5230039.19349   4060973.02249  21694751.6364   21694757.1374
  24704135.635    -3577042.28849  -2695359.28949  24704135.0934   24704141.0914
 98  2  3 17 12 30.0010000  0  8 22  3 19 18 14 27 16 31
  23782318.215     8475392.77249   6580702.22849  23782316.9654   23782322.1644
  24144584.222    -1647759.21249  -1282977.64049  24144583.7724   24144588.9264
  22140803.086    -1435422.65349  -1117744.59949  22140802.7914   22140807.1964
  20985472.419    -1320177.19249  -1027837.20649  20985471.8804   20985475.9564
  23043948.581     8660077.23649   6725606.94349  23043948.0474   23043954.2734
  25319011.880    -2755466.28049  -2062976.58049  25319010.9234   25319017.0704
  21710535.763     5312980.55249   4125602.62949  21710534.8694   21710539.9454
  24691294.078    -3644524.40149  -2747942.64449  24691292.1944   24691300.0414
 98  2  3 17 13  0.0010000  0  8 22  3 19 18 14 27 16 31
  23805407.261     8596726.40849   6675247.85349  23805405.6314   23805411.8424
  24139910.053    -1672322.10849  -1302117.53049  24139909.6484   24139915.0354
  22136006.978    -1460626.67449  -1137384.09049  22136006.5324   22136011.0684
  20981682.733    -1340092.25849  -1043355.44149  20981682.2944   20981686.5074
  23067530.438     8784000.60749   6822170.54249  23067530.2014   23067535.9004
  25309109.000    -2807506.06049  -2103527.07549  25309108.3594   25309113.9624
  21726385.118     5396269.45249   4190503.04649  21726384.2074   21726389.5084
  24678424.461    -3712154.58749  -2800641.38949  24678423.2134   24678429.4874
 98  2  3 17 13 30.0010000  0  8 22  3 19 18 14 27 16 31
  23828517.583     8718171.88449   6769880.63549  23828516.3914   23828522.4554
  24135282.346    -1696640.85049  -1321067.17049  24135281.8424   24135287.0224
  22131223.067    -1485766.21249  -1156973.32949  22131222.2644   22131227.0024
  20977934.128    -1359791.42549  -1058705.44049  20977933.3894   20977937.6644
  23091127.970     8908005.86849   6918797.95749  23091127.3754   23091133.4884
  25299190.464    -2859628.44149  -2144141.92549  25299190.2354   25299195.5414
  21742298.938     5479896.94449   4255667.30649  21742298.0904   21742303.3814
  24665533.623    -3779896.35449  -2853427.04149  24665533.6964   24665540.1614
 98  2  3 17 14  0.0010000  0  8 22  3 19 18 14 27 16 31
  23851648.948     8839727.57549   6864599.29949  23851647.9884   23851653.0754
  24130703.132    -1720704.90149  -1339818.35449  24130702.0634   24130708.2754
  22126452.353    -1510836.43549  -1176508.56349  22126451.5164   22126456.6014
  20974225.613    -1379279.69249  -1073891.09849  20974224.7764   20974229.0034
  23114741.344     9032094.34149   7015490.21849  23114740.8284   23114746.3964
  25289257.785    -2911824.91749  -2184814.50749  25289257.2424   25289263.2754
  21758277.333     5563863.92949   4321096.10149  21758276.3094   21758281.6484
  24652627.808    -3847717.07849  -2906274.21349  24652626.4924   24652633.4464
 98  2  3 17 14 30.0010000  0  8 22  3 19 18 14 27 16 31
  23874800.217     8961387.98549   6959399.57749  23874799.7904   23874805.1364
  24126172.813    -1744512.50449  -1358369.72549  24126172.3484   24126178.2304
  22121696.307    -1535829.73249  -1195983.85349  22121695.6694   22121700.0304
  20970559.455    -1398545.20749  -1088903.18949  20970558.6444   20970562.7804
  23138373.839     9156283.67149   7112261.07449  23138373.2284   23138379.1474
  25279314.877    -2964075.10349  -2225528.93949  25279313.4554   25279319.6314
  21774322.019     5648179.29149   4386796.35749  21774321.0814   21774326.5284
  24639713.360    -3915583.02949  -2959156.62749  24639711.8524   24639719.1344
 98  2  3 17 15  0.0010000  0  8 22  3 19 18 14 27 16 31
  23897977.578     9083185.89049   7054306.98149  23897976.5954   23897982.6174
  24121700.445    -1768015.02049  -1376683.35349  24121699.8054   24121705.3384
  22116962.706    -1560705.05249  -1215367.21149  22116962.2764   22116966.6364
  20966942.737    -1417550.93449  -1103712.84249  20966941.8884   20966946.0324
  23162035.359     9280625.69749   7209150.90449  23162034.4974   23162040.0714
  25269368.085    -3016345.91749  -2266259.43949  25269367.5414   25269372.7184
  21790441.352     5732886.78949   4452802.17949  21790440.2924   21790445.7894
  24626798.349    -3983451.57549  -3012041.05749  24626797.2734   24626803.0164
 98  2  3 17 15 30.0010000  0  8 22  3 19 18 14 27 16 31
  23921175.702     9205092.53849   7149299.10849  23921175.2254   23921180.3464
  24117278.468    -1791252.32349  -1394790.34449  24117277.2364   24117282.9644
  22112243.633    -1585504.12649  -1234691.15749  22112243.0334   22112247.5024
  20963370.843    -1436321.41149  -1118339.19049  20963370.2514   20963374.3234
  23185721.502     9405096.98649   7306141.44449  23185720.7704   23185726.6594
  25259415.657    -3068646.19949  -2307012.88049  25259414.2214   25259420.3904
  21806630.065     5817959.11549   4519092.27749  21806629.3254   21806634.6394
  24613877.129    -4051352.84249  -3064950.98849  24613876.3384   24613882.8084
 98  2  3 17 16  0.0010000  0  9 22  3 19 18 14 27 13 16 31
  23944397.251     9327122.12949   7244387.03549  23944396.2494   23944402.1224
  24112906.592    -1814226.21949  -1412692.05849  24112905.3934   24112911.3614
  22107539.741    -1610222.95049  -1253952.56749  22107539.2294   22107543.6644
  20959847.102    -1454838.78949  -1132768.32349  20959846.5204   20959850.5764
  23209435.228     9529713.06949   7403244.81249  23209435.2224   23209439.8494
  25249461.174    -3120957.09949  -2347774.61349  25249459.7034   25249466.2264
  25007066.015    -1986503.74849  -1384515.95049  25007064.4004   25007068.3254
  21822889.640     5903403.52249   4585672.30549  21822888.7484   21822894.1964
  24600946.684    -4119302.60349  -3117898.69949  24600944.4914   24600950.7714
 98  2  3 17 16 30.0010000  0  9 22  3 19 18 14 27 13 16 31
  23967639.092     9449258.34649   7339558.05849  23967637.9004   23967644.1164
  24108579.519    -1836964.68349  -1430410.33949  24108578.1594   24108583.9394
  22102848.447    -1634875.96449  -1273162.69549  22102847.9874   22102852.7584
  20956368.083    -1473121.17349  -1147014.33949  20956367.5194   20956371.6434
  23233171.006     9654444.99449   7500438.46549  23233170.6314   23233176.6324
  25239499.298    -3173307.08149  -2388566.75849  25239497.7794   25239505.0404
  24993373.119    -2058460.13949  -1440585.82949  24993372.7884   24993377.0774
  21839216.299     5989200.58749   4652527.14149  21839215.3564   21839221.0224
  24587998.762    -4187344.11549  -3170917.93849  24587997.0244   24588003.4594
 98  2  3 17 17  0.0010000  0  9 22  3 19 18 14 27 13 16 31
  23990902.176     9571506.49649   7434816.28849  23990900.8054   23990906.7384
  24104297.320    -1859467.42749  -1447944.92749  24104295.9234   24104301.9514
  22098167.948    -1659472.21749  -1292328.60349  22098167.1174   22098171.9624
  20952933.406    -1491170.63449  -1161078.86049  20952932.9764   20952937.0064
  23256925.037     9779273.07249   7597707.02349  23256924.3864   23256929.3224
  25229529.350    -3225699.54449  -2429392.03849  25229529.3504   25229533.6624
  24979648.636    -2130582.21849  -1496784.81749  24979649.4894   24979651.8814
  21855606.338     6075330.88049   4719641.62849  21855605.5494   21855611.0944
  24575029.523    -4255497.59049  -3224024.41649  24575029.0814   24575033.6184
 98  2  3 17 17 30.0010000  0  9 22  3 19 18 14 27 13 16 31
  24014182.769     9693846.55049   7530146.14049  24014181.9984   24014187.7214
  24100057.076    -1881749.99049  -1465307.95449  24100056.8284   24100062.4384
  22093495.029    -1684028.50449  -1311463.36049  22093494.2524   22093498.8554
  20949541.999    -1508992.79849  -1174966.25949  20949541.3344   20949545.5164
  23280691.506     9904166.19049   7695026.27449  23280690.4034   23280696.0144
  25219547.246    -3278155.28149  -2470266.62649  25219548.4804   25219553.3194
  24965887.448    -2202897.51949  -1553134.35549  24965887.8164   24965891.5104
  21872052.805     6161757.38849   4786986.94049  21872051.9244   21872057.5954
  24562036.526    -4323775.73549  -3277228.04149  24562035.2074   24562041.2624
 98  2  3 17 18  0.0010000  0  9 22  3 19 18 14 27 13 16 31
  24037479.931     9816273.54349   7625543.71749  24037479.0504   24037484.0684
  24095863.470    -1903787.76349  -1482480.24149  24095862.3724   24095868.1824
  22088835.264    -1708515.50249  -1330544.13049  22088834.5484   22088839.4904
  20946194.939    -1526581.89949  -1188672.06049  20946194.2714   20946198.5174
  23304472.785    10029136.83349   7792405.92949  23304472.6094   23304477.1044
  25209551.709    -3330681.76249  -2511196.30249  25209550.7614   25209557.6064
  24952090.545    -2275400.66649  -1609630.26949  24952090.3474   24952094.1774
  21888557.263     6248488.88949   4854569.90349  21888556.3684   21888561.9454
  24549024.073    -4392155.68749  -3330511.00149  24549022.5054   24549028.6394
 98  2  3 17 18 30.0010000  0  9 22  3 19 18 14 27 13 16 31
  24060791.286     9938775.15049   7720999.45249  24060790.5514   24060794.8854
  24091717.025    -1925577.43249  -1499459.19449  24091716.9914   24091721.5514
  22084188.712    -1732933.26149  -1349570.95149  22084188.1554   22084193.1314
  20942890.309    -1543947.93349  -1202204.04049  20942889.6594   20942893.9034
  23328265.890    10154169.76449   7889834.11649  23328265.0084   23328271.1184
  25199541.901    -3383283.65749  -2552184.75149  25199540.9314   25199548.5224
  24938256.898    -2348096.94549  -1666276.67649  24938257.4144   24938260.2704
  21905120.191     6335527.57149   4922392.22949  21905119.3014   21905124.7384
  24535994.547    -4460625.52949  -3383864.01849  24535993.4654   24535999.5484
 98  2  3 17 19  0.0010000  0  9 22  3 19 18 14 27 13 16 31
  24084116.833    10061351.07249   7816513.08649  24084116.3534   24084121.5624
  24087619.555    -1947110.11749  -1516237.90549  24087618.2894   24087624.1794
  22079557.288    -1757271.58849  -1368535.88049  22079556.6314   22079561.4424
  20939629.307    -1561084.58749  -1215557.28649  20939628.8174   20939632.9124
  23352073.144    10279277.26749   7987320.40149  23352072.9964   23352077.6154
  25189519.386    -3435951.93949  -2593224.93449  25189517.9404   25189523.9444
  24924388.003    -2420978.23549  -1723067.23449  24924387.8754   24924391.6154
  21921739.803     6422864.07549   4990446.62149  21921738.9564   21921744.6034
  24522952.499    -4529161.26349  -3437268.39449  24522951.2344   24522958.2784
 98  2  3 17 19 30.0010000  0  9 22  3 19 18 14 27 13 16 31
  24107455.512    10183996.14349   7912080.61849  24107454.8664   24107460.9434
  24083571.987    -1968380.11249  -1532811.93249  24083571.5404   24083576.7764
  22074942.335    -1781523.25249  -1387433.27649  22074941.6864   22074946.4724
  20936411.978    -1577991.72249  -1228731.68149  20936411.3544   20936415.5374
  23375894.108    10404456.74949   8084862.77549  23375893.1564   23375899.2014
  25179481.114    -3488702.50949  -2634329.24249  25179480.1094   25179486.2064
  24910486.479    -2494030.90049  -1779991.32649  24910487.0094   24910491.7364
  21938417.984     6510508.34649   5058740.83249  21938417.1604   21938422.5974
  24509899.119    -4597756.65049  -3490719.25649  24509897.7614   24509903.6164
 98  2  3 17 20  0.0010000  0  9 22  3 19 18 14 27 13 16 31
  24130807.163    10306709.74849   8007701.54149  24130805.9714   24130812.3864
  24079575.447    -1989382.20349  -1549177.19649  24079575.2174   24079580.6134
  22070343.546    -1805689.97149  -1406264.49049  22070342.8704   22070347.5364
  20933237.795    -1594672.21949  -1241729.48549  20933237.2114   20933241.5764
  23399728.460    10529707.08849   8182460.36149  23399728.1854   23399732.7774
  25169429.201    -3541525.25849  -2675489.83149  25169427.9484   25169435.0384
  24896555.135    -2567240.02149  -1837037.33049  24896555.8034   24896559.7274
  21955158.068     6598478.04949   5127288.62249  21955157.1814   21955162.4644
  24496833.804    -4666414.28049  -3544218.62349  24496832.3264   24496838.8494
 98  2  3 17 20 30.0010000  0  9 22  3 19 18 14 27 13 16 31
  24154174.941    10429508.22149   8103388.59249  24154173.8634   24154179.3924
  24075632.764    -2010101.29149  -1565321.92849  24075632.0474   24075637.7394
  22065759.186    -1829780.87349  -1425036.62249  22065758.5634   22065763.3904
  20930106.831    -1611125.56649  -1254550.27949  20930106.2394   20930110.4774
  23423574.823    10655020.31749   8280106.95949  23423573.9774   23423579.8764
  25159365.570    -3594409.91349  -2716698.64349  25159364.7844   25159371.0754
  24882596.134    -2640594.70749  -1894196.76249  24882595.8174   24882601.0774
  21971961.434     6686780.33249   5196095.57049  21971960.4584   21971965.7364
  24483758.367    -4735125.20749  -3597759.52849  24483756.9084   24483763.7994
 98  2  3 17 21  0.0010000  0  9 22  3 19 18 14 27 13 16 31
  24177548.370    10552336.32549   8199098.71349  24177546.9734   24177552.8544
  24071733.481    -2030592.10249  -1581288.79349  24071732.2274   24071738.1904
  22061176.253    -1853864.62549  -1443803.18149  22061175.5764   22061179.9914
  20927008.099    -1627409.69449  -1267239.21549  20927007.4644   20927011.7604
  23447420.058    10780327.79149   8377749.07749  23447419.3194   23447424.4174
  25149277.049    -3647426.12949  -2758009.99049  25149276.3184   25149283.1044
  24868599.044    -2714149.58449  -1951512.19349  24868600.0064   24868603.8234
  21988815.700     6775350.02549   5265110.88749  21988814.7604   21988820.4164
  24470661.025    -4803951.62549  -3651390.42849  24470659.9954   24470666.7224
 98  2  3 17 21 30.0010000  0  9 22  3 19 18 14 27 13 16 31
  24200926.087    10675186.80649   8294826.28849  24200923.9794   24200931.0874
  24067878.709    -2050849.42049  -1597073.72749  24067877.5254   24067883.6524
  22056590.198    -1877964.47449  -1462582.28549  22056589.3214   22056594.0204
  20923942.792    -1643518.14349  -1279791.26249  20923942.2364   20923946.5334
  23471260.579    10905610.49149   8475371.87149  23471260.1654   23471266.7374
  25139161.764    -3700582.67549  -2799430.68349  25139160.8714   25139167.6984
  24854560.928    -2787920.59749  -2008996.04549  24854561.5054   24854565.2724
  22005723.167     6864198.98449   5334343.81149  22005722.4254   22005727.9624
  24457539.873    -4872903.64449  -3705119.21249  24457538.8584   24457545.5304
 98  2  3 17 22  0.0010000  0  9 22  3 19 18 14 27 13 16 31
  24224323.426    10798140.63749   8390634.37849  24224321.5814   24224327.7354
  24064082.955    -2070795.85349  -1612616.38849  24064082.3024   24064087.7524
  22052014.105    -1902012.17449  -1481320.74949  22052013.6194   22052018.2364
  20920928.101    -1659360.58849  -1292136.03149  20920927.6434   20920931.7304
  23495112.760    11030954.81449   8573042.69649  23495111.7734   23495117.8174
  25129035.471    -3753796.05349  -2840895.66649  25129035.2014   25129041.4094
  24840493.985    -2861843.01849  -2066597.89249  24840493.0844   24840498.4564
  22022697.931     6953401.82149   5403852.48649  22022697.2144   22022702.4034
  24444411.584    -4941892.74949  -3758876.89949  24444409.7474   24444416.4644
 98  2  3 17 22 30.0010000  0  9 22  3 19 18 14 27 13 16 31
  24247741.758    10921204.48649   8486528.20549  24247740.7084   24247745.9294
  24060347.149    -2090427.61349  -1627913.85649  24060346.7094   24060351.9444
  22047446.395    -1926015.93149  -1500024.96849  22047445.8014   22047450.4714
  20917966.732    -1674922.93149  -1304262.53549  20917965.9634   20917970.2184
  23518978.206    11156368.74649   8670767.77949  23518977.6814   23518984.0154
  25118898.513    -3807066.60249  -2882405.20649  25118898.1094   25118904.4954
  24826397.323    -2935921.50849  -2124321.36749  24826397.2634   24826400.8654
  22039737.053     7042943.06549   5473624.86149  22039736.3984   22039741.7804
  24431277.346    -5010913.37349  -3812659.15849  24431276.7994   24431282.1564
 98  2  3 17 23  0.0010000  0  9 22  3 19 18 14 27 13 16 31
  24271180.880    11044377.52449   8582507.11549  24271180.1924   24271186.0924
  24056669.503    -2109753.87449  -1642973.27749  24056668.8554   24056674.0214
  22042888.363    -1949968.68049  -1518689.44549  22042887.6964   22042892.2004
  20915062.793    -1690183.20849  -1316153.66949  20915062.1144   20915066.3714
  23542861.281    11281875.32449   8768565.04249  23542860.1674   23542866.5674
  25108753.150    -3860381.36849  -2923949.19849  25108752.9824   25108759.1084
  24812272.722    -3010146.87849  -2182159.29649  24812273.2314   24812276.0334
  22056839.246     7132815.34649   5543655.18249  22056838.3894   22056843.8454
  24418137.112    -5079966.13249  -3866466.46249  24418136.3264   24418142.2994
 98  2  3 17 23 30.0010000  0  9 22  3 19 18 14 27 13 16 31
  24294639.126    11167651.00149   8678564.28349  24294637.6624   24294643.8374
  24053049.762    -2128776.30549  -1657795.93849  24053049.6704   24053054.8374
  22038341.734    -1973861.32649  -1537307.08849  22038341.1344   22038345.3684
  20912216.956    -1705138.28149  -1327806.98249  20912216.3044   20912220.4824
  23566767.063    11407501.34449   8866455.38849  23566766.8774   23566772.5664
  25098601.260    -3913730.42749  -2965519.90449  25098600.4804   25098607.2014
  24798123.611    -3084501.25149  -2240097.76549  24798122.8174   24798128.0144
  22074003.916     7223016.24049   5613941.56649  22074002.9164   22074008.5244
  24404992.576    -5149040.81049  -3920290.85149  24404992.1364   24404997.2824
 98  2  3 17 24  0.0010000  0  9 22  3 19 18 14 27 13 16 31
  24318121.188    11291049.89049   8774719.16249  24318120.0764   24318125.8894
  24049493.843    -2147462.87949  -1672356.88849  24049492.8434   24049499.5364
  22033816.346    -1997642.57549  -1555837.93049  22033815.7974   22033820.3194
  20909432.783    -1719769.10949  -1339207.63449  20909431.8924   20909436.0494
  23590702.110    11533280.71849   8964465.20349  23590701.8274   23590707.4964
  25088451.197    -3967069.57949  -3007082.87849  25088450.6774   25088456.4724
  24783961.979    -3158921.04149  -2298087.21249  24783961.5804   24783966.1084
  22091233.265     7313556.65649   5684492.51349  22091232.4084   22091237.8984
  24391852.180    -5218093.76249  -3974098.29449  24391851.1534   24391857.1284
 98  2  3 17 24 30.0010000  0  9 22  3 19 18 14 27 13 16 31
  24341628.961    11414583.46749   8870979.01349  24341627.7024   24341633.8804
  24046008.486    -2165778.42749  -1686628.73349  24046006.7364   24046013.5754
  22029320.456    -2021268.68149  -1574247.88049  22029319.8694   22029324.4124
  20906712.225    -1734065.62949  -1350347.79249  20906711.6954   20906715.9664
  23614668.813    11659226.50449   9062604.69049  23614668.5554   23614675.3944
  25078310.454    -4020359.99149  -3048607.85249  25078309.1484   25078316.1334
  24769796.632    -3233360.15049  -2356091.71149  24769796.7174   24769800.9364
  22108532.590     7404465.07649   5755330.21449  22108531.7524   22108537.5684
  24378722.842    -5287089.31349  -4027861.01349  24378722.6124   24378727.9634
 98  2  3 17 25  0.0020000  0  9 22  3 19 18 14 27 13 16 31
  24365153.064    11538202.74249   8967305.64749  24365152.3864   24365158.2304
  24042587.564    -2183755.57449  -1700636.88049  24042586.5244   24042592.1454
  22024851.943    -2044750.84149  -1592545.67449  22024851.1934   22024856.0134
  20904047.275    -1748070.23849  -1361260.48349  20904046.5104   20904050.5914
  23638657.959    11785289.81749   9160835.76349  23638657.5284   23638663.8214
  25068170.763    -4073644.42749  -3090128.15449  25068170.0774   25068175.7964
  24755620.568    -3307856.31449  -2414140.68349  24755621.1804   24755623.8154
  22125898.603     7495724.18549   5826441.18049  22125897.5004   22125903.3614
  24365598.843    -5356056.52649  -4081601.66449  24365598.0274   24365603.7044
 98  2  3 17 25 30.0020000  0  9 22  3 19 18 14 27 13 16 31
  24388694.908    11661915.53249   9063705.13749  24388694.5184   24388699.1644
  24039239.377    -2201349.97049  -1714346.77749  24039238.4424   24039245.0804
  22020418.599    -2068048.02949  -1610699.33349  22020417.7724   22020422.5314
  20901442.360    -1761759.04549  -1371927.09249  20901441.6434   20901445.8164
  23662668.585    11911465.23749   9259154.19849  23662668.7154   23662674.7444
  25058036.251    -4126902.01349  -3131627.54149  25058035.6534   25058041.2254
  24741439.309    -3382379.30549  -2472210.56749  24741439.1684   24741443.3434
  22143335.316     7587354.31049   5897841.25249  22143334.3294   22143340.1744
  24352485.788    -5424965.84549  -4135297.20049  24352484.2664   24352490.5094
 98  2  3 17 26  0.0020000  0  9 22  3 19 18 14 27 13 16 31
  24412255.032    11785724.47049   9160179.55749  24412254.2484   24412260.4244
  24035964.837    -2218557.85749  -1727755.49549  24035964.7984   24035969.3824
  22016021.075    -2091157.15349  -1628706.45049  22016020.5064   22016025.2144
  20898899.648    -1775121.23449  -1382339.19849  20898899.1934   20898903.3294
  23686695.363    12037725.89749   9357539.04849  23686695.6724   23686700.8474
  25047906.802    -4180132.31549  -3173105.65549  25047906.1154   25047912.4164
  24727247.725    -3456956.53749  -2530322.69949  24727248.0724   24727252.0984
  22160842.819     7679356.83449   5969531.49649  22160841.9084   22160847.8414
  24339384.611    -5493813.13549  -4188944.39849  24339383.2464   24339389.3974
 98  2  3 17 26 30.0020000  0  9 22  3 19 18 14 27 13 16 31
  24435833.636    11909630.19449   9256729.37949  24435833.0454   24435838.6694
  24032761.606    -2235390.71749  -1740871.99649  24032761.1564   24032766.1744
  22011653.780    -2114107.27549  -1646589.67349  22011653.0104   22011657.7374
  20896419.101    -1788156.65649  -1392496.68149  20896418.3514   20896422.6944
  23710735.863    12164058.61149   9455980.03049  23710735.5194   23710741.4834
  25037778.884    -4233354.71849  -3214577.61249  25037777.1484   25037783.9944
  24713040.159    -3531617.64149  -2588500.17749  24713039.5894   24713045.1444
  22178421.759     7771734.46149   6041514.03149  22178420.7494   22178426.4904
  24326292.905    -5562610.51949  -4242552.71149  24326292.4484   24326298.0284
 98  2  3 17 27  0.0020000  0  9 22  3 19 18 14 27 13 16 31
  24459432.619    12033643.21749   9353362.81649  24459431.4184   24459437.4634
  24029629.154    -2251851.50549  -1753698.55949  24029628.2054   24029634.1264
  22007313.736    -2136914.19149  -1664361.30549  22007313.0644   22007317.6204
  20894001.632    -1800860.63349  -1402395.89449  20894000.7344   20894005.0884
  23734789.708    12290461.33649   9554475.57949  23734789.3674   23734793.7504
  25027650.064    -4286581.51649  -3256053.00149  25027648.8094   25027655.4314
  24698814.786    -3606372.42749  -2646750.67849  24698813.6274   24698818.8874
  22196067.735     7864464.54449   6113771.20749  22196066.8034   22196072.4764
  24313209.204    -5631365.83149  -4296128.23149  24313208.5164   24313214.1484
 98  2  3 17 27 30.0020000  0  9 22  3 19 18 14 27 13 16 31
  24483051.953    12157763.52849   9450079.84749  24483051.3764   24483056.7104
  24026563.772    -2267959.85949  -1766250.49549  24026563.2464   24026568.3004
  22002992.615    -2159621.88849  -1682055.62349  22002992.1554   22002996.5234
  20891644.956    -1813244.97549  -1412046.04349  20891644.2764   20891648.5344
  23758854.545    12416921.84149   9653016.14249  23758854.9074   23758859.9834
  25017517.100    -4339829.73849  -3297545.07349  25017516.0944   25017522.6634
  24684568.301    -3681237.90949  -2705087.41749  24684567.9394   24684573.2534
  22213773.415     7957508.42949   6186272.89649  22213772.4854   22213778.1124
  24300132.411    -5700084.57549  -4349675.25149  24300131.4494   24300137.1784
 98  2  3 17 28  0.0020000  0  9 22  3 19 18 14 27 13 16 31
  24506691.703    12281991.04049   9546880.41449  24506690.6714   24506696.8174
  24023564.979    -2283718.65049  -1778530.04849  24023564.4524   24023568.9024
  21998685.912    -2182253.80549  -1699690.88949  21998685.5474   21998690.5344
  20889348.310    -1825313.94849  -1421450.45149  20889347.6864   20889352.0244
  23782930.190    12543439.15249   9751600.96949  23782929.6204   23782934.8174
  25007379.622    -4393102.11549  -3339055.99049  25007378.9424   25007384.8154
  24670300.040    -3756217.70349  -2763513.22649  24670298.7184   24670303.8264
  22231539.335     8050868.73649   6259021.15349  22231538.4564   22231543.9394
  24287066.514    -5768745.90249  -4403177.54249  24287065.2654   24287071.2794
 98  2  3 17 28 30.0020000  0  9 22  3 19 18 14 27 13 16 31
  24530336.219    12406243.53849   9643700.44149  24530335.3024   24530341.7014
  24020620.961    -2299189.45649  -1790585.19849  24020620.7604   24020624.6314
  21994379.097    -2204886.29949  -1717326.60349  21994378.4894   21994383.2624
  20887096.455    -1837147.51149  -1430671.41449  20887095.8844   20887100.3654
  23807005.562    12669955.26149   9850184.87349  23807005.3534   23807009.9944
  24997224.714    -4446466.35449  -3380638.48449  24997223.8324   24997230.6884
  24656001.236    -3831358.40449  -2822064.41349  24656000.4164   24656006.1004
  22249352.352     8144476.60349   6331962.31849  22249351.5244   22249356.7674
  24273996.633    -5837428.04949  -4456696.05649  24273995.3334   24274001.9544
 98  2  3 17 29  0.0020000  0  9 22  3 19 18 14 27 13 16 31
  24553988.051    12530534.71249   9740550.59949  24553986.5294   24553993.1384
  24017739.606    -2314330.84949  -1802383.67449  24017738.2564   24017744.3844
  21990081.314    -2227471.30349  -1734925.31549  21990080.8744   21990085.7994
  20884898.498    -1848698.01249  -1439671.81249  20884897.6864   20884902.1364
  23831087.391    12796505.70949   9948795.51849  23831086.3024   23831092.2024
  24987058.612    -4499889.87149  -3422267.17249  24987058.4394   24987064.3334
  24641678.348    -3906625.64649  -2880714.21749  24641677.4724   24641682.3794
  22267217.894     8238360.70049   6405118.72349  22267216.9364   22267222.2814
  24260929.654    -5906094.98049  -4510202.72249  24260927.9194   24260934.4734
 98  2  3 17 29 30.0020000  0  9 22  3 19 18 14 27 13 16 31
  24577653.348    12654896.37949   9837455.67549  24577652.4754   24577658.3064
  24014930.443    -2329093.15949  -1813886.74949  24014929.7404   24014934.4184
  21985802.682    -2249955.77249  -1752445.68749  21985801.9364   21985806.8834
  20882764.976    -1859909.67549  -1448408.18849  20882764.2734   20882768.6224
  23855185.458    12923142.24049  10047473.24349  23855185.1194   23855189.9434
  24976891.080    -4553320.43349  -3463901.35749  24976891.0984   24976897.0314
  24627343.053    -3981958.11449  -2939414.84349  24627342.3264   24627347.4554
  22285147.617     8332581.92449   6478537.82149  22285146.8644   22285152.2814
  24247873.496    -5974705.47249  -4563665.40849  24247873.0074   24247878.5644
 98  2  3 17 30  0.0020000  0  9 22  3 19 18 14 27 13 16 31
  24601329.369    12779314.04949   9934404.41649  24601328.7354   24601334.0724
  24012195.132    -2343467.48549  -1825087.49949  24012194.4044   24012199.8224
  21981547.043    -2272319.33249  -1769871.84149  21981546.5624   21981551.6684
  20880696.293    -1870780.74749  -1456879.16749  20880695.6154   20880699.8264
  23879299.665    13049862.91549  10146216.54149  23879298.9554   23879303.9604
  24966725.600    -4606740.26549  -3505527.18249  24966725.0164   24966731.6994
  24612998.836    -4057337.72549  -2998152.20149  24612999.1754   24613003.0534
  22303143.955     8427153.29549   6552229.75949  22303143.3454   22303148.9994
  24234825.195    -6043274.73549  -4617095.94749  24234824.3604   24234830.3684
 98  2  3 17 30 30.0020000  0  9 22  3 19 18 14 27 13 16 31
  24625016.090    12903788.41749  10031397.32949  24625015.8464   24625020.9584
  24009531.083    -2357467.38349  -1835996.48749  24009530.5984   24009536.1814
  21977315.062    -2294558.81249  -1787201.30949  21977314.4824   21977319.3344
  20878692.696    -1881309.69749  -1465083.55849  20878692.0724   20878696.2254
  23903429.066    13176664.16749  10245022.61349  23903428.3214   23903433.9944
  24956561.304    -4660154.27049  -3547148.47449  24956560.1634   24956566.9504
  24598645.595    -4132764.84549  -3056926.56449  24598646.0424   24598648.6694
  22321203.536     8522056.90949   6626180.59349  22321202.6334   22321208.0504
  24221781.156    -6111821.69249  -4670509.10549  24221780.8404   24221786.2054
 98  2  3 17 31  0.0020000  0  9 22  3 19 18 14 27 13 16 31
  24648715.446    13028329.42949  10128442.16749  24648715.5194   24648721.1254
  24006934.398    -2371112.93849  -1846629.37749  24006933.2864   24006938.8154
  21973106.101    -2316677.13449  -1804436.36949  21973105.3664   21973110.3424
  20876753.359    -1891501.06349  -1473024.89449  20876752.6254   20876756.8264
  23927570.758    13303530.28549  10343879.22149  23927569.8284   23927576.1294
  24946394.406    -4713581.97349  -3588780.44249  24946393.4514   24946399.6824
  24584280.089    -4208255.73649  -3115750.61449  24584279.1484   24584283.9644
  22339320.889     8617264.28049   6700368.11849  22339320.0214   22339325.7504
  24208743.048    -6180337.33249  -4723897.85949  24208741.9374   24208747.7694
 98  2  3 17 31 30.0020000  0  9 22  3 19 18 14 27 13 16 31
  24672421.931    13152907.67849  10225516.01249  24672421.5184   24672425.9424
  24004397.273    -2384445.65649  -1857018.49249  24004396.5324   24004402.0314
  21968911.598    -2338719.42549  -1821612.19249  21968910.8204   21968915.8364
  20874868.147    -1901408.25349  -1480744.80249  20874867.5904   20874871.7224
  23951716.388    13430416.93549  10442751.82949  23951715.9524   23951721.8734
  24936219.553    -4767051.45949  -3630444.98949  24936218.3454   24936223.7034
  24569897.888    -4283834.09049  -3174642.81449  24569897.6844   24569901.8264
  22357487.721     8712731.37049   6774758.01849  22357487.0544   22357492.4674
  24195706.496    -6248844.67649  -4777280.12849  24195706.2414   24195711.9464
 98  2  3 17 32  0.0020000  0  9 22  3 19 18 14 27 13 16 31
  24696138.420    13277538.28749  10322630.64849  24696137.1104   24696144.9284
  24001923.424    -2397445.66149  -1867148.35949  24001923.1844   24001928.2094
  21964732.903    -2360678.48149  -1838723.15049  21964732.4324   21964737.2954
  20873038.768    -1911021.75949  -1488235.85649  20873038.1964   20873042.4424
  23975865.715    13557322.62749  10541639.29149  23975865.4944   23975870.9684
  24926037.669    -4820557.37349  -3672137.89949  24926036.5844   24926042.1104
  24555497.864    -4359506.73749  -3233608.50549  24555497.2734   24555502.4814
  22375704.825     8808462.75249   6849353.86649  22375704.1224   22375709.6454
  24182677.726    -6317311.24049  -4830630.64249  24182676.4814   24182683.2164
 98  2  3 17 32 30.0020000  0  9 22  3 19 18 14 27 13 16 31
  24719863.908    13402216.18249  10419782.11149  24719861.6664   24719866.8734
  23999515.597    -2410098.93349  -1877008.05649  23999514.8924   23999520.2974
  21960569.442    -2382557.59649  -1855771.81849  21960568.7954   21960573.9414
  20871267.253    -1920331.29249  -1495490.05249  20871266.4234   20871270.8424
  24000020.358    13684255.91049  10640548.23949  24000018.2734   24000025.3494
  24915847.601    -4874106.18049  -3713864.22649  24915846.8184   24915852.3064
  24541079.400    -4435276.60049  -3292649.94249  24541079.4444   24541084.0374
  22393973.195     8904463.37449   6924159.51049  22393972.5154   22393978.1284
  24169661.973    -6385709.72049  -4883928.12249  24169661.6514   24169666.5704
 98  2  3 17 33  0.0020000  0  9 22  3 19 18 14 27 13 16 31
  24743596.996    13526934.23949  10516964.90949  24743596.1754   24743601.0224
  23997179.984    -2422372.46449  -1886571.85649  23997179.8384   23997185.2894
  21956422.105    -2404351.96449  -1872754.45249  21956421.6164   21956426.6284
  20869556.417    -1929321.75249  -1502495.61949  20869555.6874   20869559.9434
  24024182.412    13811228.76649  10739488.03149  24024181.8154   24024187.3934
  24905652.885    -4927679.35749  -3755609.52949  24905652.3164   24905659.0494
  24526645.920    -4511125.15749  -3351752.70749  24526646.9264   24526650.5744
  22412297.139     9000756.12449   6999192.78349  22412296.3404   22412301.7544
  24156664.604    -6454011.78649  -4937150.46549  24156664.4194   24156669.4134
 98  2  3 17 33 30.0020000  0  9 22  3 19 18 14 27 13 16 31
  24767335.504    13651680.38749  10614169.58649  24767334.9414   24767341.1554
  23994921.174    -2434242.47649  -1895821.21349  23994920.8424   23994926.8274
  21952289.161    -2426070.90049  -1889678.30849  21952288.5574   21952293.3454
  20867908.780    -1937980.06549  -1509242.36949  20867908.1184   20867912.4114
  24048351.462    13938238.56649  10838456.60749  24048350.1244   24048356.5214
  24895454.185    -4981273.80449  -3797371.40549  24895453.7664   24895459.6284
  24512196.144    -4587059.36649  -3410922.20949  24512196.1804   24512200.1574
  22430680.919     9097363.20449   7074470.98349  22430680.3334   22430685.8604
  24143683.707    -6522226.99749  -4990305.12849  24143683.2864   24143688.4814
 98  2  3 17 34  0.0020000  0  9 22  3 19 18 14 27 13 16 31
  24791075.577    13776434.85949  10711380.75049  24791074.3364   24791081.0344
  23992736.772    -2445721.62149  -1904766.00549  23992736.2544   23992741.5544
  21948166.996    -2447733.00149  -1906557.87849  21948166.3214   21948171.1144
  20866323.537    -1946310.81449  -1515733.86949  20866322.9954   20866327.2264
  24072524.463    14065269.16249  10937441.38649  24072524.1884   24072530.7164
  24885245.665    -5034919.71849  -3839173.38949  24885245.2334   24885250.4794
  24497724.404    -4663109.47049  -3470182.01949  24497724.0894   24497728.7104
  22449120.653     9194264.18949   7149978.20549  22449119.5484   22449125.1904
  24130713.306    -6590386.51949  -5043416.38249  24130712.3454   24130717.7674
 98  2  3 17 34 30.0020000  0  9 22  3 19 18 14 27 13 16 31
  24814821.457    13901219.60349  10808615.50049  24814819.7884   24814826.4914
  23990627.606    -2456805.22349  -1913402.59649  23990626.9754   23990632.0904
  21944059.879    -2469316.01649  -1923375.81949  21944059.5244   21944063.8084
  20864804.396    -1954294.00349  -1521954.54649  20864803.7374   20864808.1324
  24096704.883    14192338.08449  11036456.03149  24096704.3094   24096711.5424
  24875030.429    -5088601.05649  -3881002.96749  24875029.7154   24875035.8104
  24483236.728    -4739243.04949  -3529506.87349  24483237.0084   24483241.0304
  22467618.889     9291472.93649   7225725.23649  22467617.8824   22467623.6094
  24117755.322    -6658481.18149  -5096477.10949  24117755.1364   24117761.0634
 98  2  3 17 35  0.0020000  0  9 22  3 19 18 14 27 13 16 31
  24838577.557    14026058.03449  10905892.11249  24838576.3314   24838583.6724
  23988591.746    -2467504.15549  -1921739.42449  23988591.3244   23988596.2894
  21939969.509    -2490811.20849  -1940125.32649  21939969.0354   21939973.6954
  20863352.172    -1961925.37049  -1527901.07549  20863351.6024   20863356.0374
  24120890.244    14319433.05649  11135490.97849  24120889.3464   24120897.2464
  24864808.244    -5142319.25949  -3922861.27549  24864807.4224   24864813.6504
  24468731.166    -4815470.92349  -3588905.19149  24468730.9204   24468734.2524
  22486172.135     9388970.80049   7301697.56049  22486171.4374   22486176.6384
  24104807.731    -6726520.85449  -5149494.99749  24104806.3204   24104811.4854
 98  2  3 17 35 30.0020000  0  9 22  3 19 18 14 27 13 16 31
  24862346.751    14150965.29849  11003222.34249  24862345.9764   24862351.7874
  23986627.904    -2477824.23849  -1929781.06649  23986627.7434   23986632.5164
  21935899.664    -2512198.56949  -1956790.81649  21935899.2634   21935904.1824
  20861968.317    -1969197.76349  -1533567.88749  20861967.6404   20861971.9394
  24145080.306    14446552.70749  11234545.14849  24145079.3894   24145087.1644
  24854580.524    -5196066.22649  -3964741.99349  24854579.5234   24854585.6764
  24454205.847    -4891801.98849  -3648383.91449  24454204.9264   24454209.7474
  22504778.846     9486749.48649   7377888.69549  22504778.0264   22504783.4804
  24091870.916    -6794503.99849  -5202468.84549  24091869.7064   24091875.7694
 98  2  3 17 36  0.0020000  0  9 22  3 19 18 14 27 13 16 31
  24886127.269    14275931.85049  11100598.77449  24886126.4734   24886132.5864
  23984732.296    -2487785.84249  -1937543.36349  23984730.4474   23984737.9744
  21931853.241    -2533462.74649  -1973360.30749  21931852.7244   21931857.2524
  20860649.747    -1976126.91049  -1538967.23249  20860649.1534   20860653.3324
  24169272.476    14573682.62349  11333607.32049  24169272.0414   24169278.8524
  24844347.947    -5249838.68449  -4006642.57849  24844347.1864   24844353.3214
  24439663.463    -4968222.77649  -3707932.56349  24439663.3434   24439667.0734
  22523434.756     9584786.92949   7454281.46349  22523433.5714   22523439.4944
  24078946.307    -6862423.10149  -5255392.79449  24078944.9334   24078950.4524
 98  2  3 17 36 30.0020000  0  9 22  3 19 18 14 27 13 16 31
  24909916.249    14400942.89849  11198009.86149  24909915.1854   24909921.8114
  23982903.726    -2497394.88149  -1945030.92749  23982903.1824   23982908.2344
  21927830.545    -2554602.17249  -1989832.59049  21927829.8394   21927834.5344
  20859395.761    -1982716.92749  -1544102.31749  20859395.2114   20859399.5324
  24193464.702    14700813.28449  11432670.06749  24193464.4534   24193471.4044
  24834112.219    -5303627.51849  -4048555.93049  24834111.9724   24834117.7364
  24425103.044    -5044738.15149  -3767554.91149  24425102.2144   24425106.9164
  22542139.343     9683080.32349   7530873.67749  22542138.2224   22542143.8474
  24066034.747    -6930273.37249  -5308263.09049  24066032.7224   24066039.1524
 98  2  3 17 37  0.0020000  0  9 22  3 19 18 14 27 13 16 31
  24933711.915    14525989.51149  11295448.67949  24933711.1814   24933717.6404
  23981142.666    -2506649.21849  -1952242.11049  23981141.7514   23981147.1824
  21923830.777    -2575621.13849  -2006211.00349  21923830.0984   21923834.9294
  20858205.320    -1988972.74449  -1548976.98549  20858204.7054   20858208.9074
  24217656.723    14827943.11749  11531732.16549  24217655.9964   24217663.6374
  24823873.527    -5357432.27649  -4090481.68149  24823872.8904   24823878.5444
  24410523.816    -5121351.89049  -3827253.90849  24410523.6964   24410527.4124
  22560892.089     9781626.76349   7607663.06749  22560891.2904   22560896.8924
  24053138.052    -6998045.82249  -5361072.75349  24053136.7004   24053143.5544
 98  2  3 17 37 30.0020000  0  9 22  3 19 18 14 27 13 16 31
  24957512.397    14651061.58949  11392907.32749  24957511.9144   24957518.3254
  23979452.441    -2515531.25349  -1959163.17749  23979451.7914   23979457.0304
  21919856.909    -2596503.82349  -2022483.23249  21919856.2294   21919860.8074
  20857078.545    -1994894.04049  -1553590.99449  20857077.9954   20857082.2434
  24241851.208    14955086.28449  11630804.64549  24241851.2264   24241858.0264
  24813634.335    -5411240.04449  -4132409.80149  24813633.6894   24813639.7094
  24395934.415    -5198019.24049  -3886994.67549  24395933.7864   24395937.9714
  22579698.048     9880452.76949   7684670.29849  22579697.2114   22579702.9004
  24040258.439    -7065728.45249  -5413812.41749  24040257.7364   24040263.2254
 98  2  3 17 38  0.0020000  0  9 22  3 19 18 14 27 13 16 31
  24981316.744    14776153.76249  11490381.63549  24981316.0654   24981321.8804
  23977833.530    -2524038.45449  -1965792.16849  23977832.7024   23977838.8044
  21915908.350    -2617253.82849  -2038652.07049  21915907.9334   21915912.4734
  20856014.853    -2000483.76649  -1557946.63749  20856014.1824   20856018.4964
  24266048.137    15082241.80649  11729886.73849  24266048.4644   24266056.0134
  24803393.998    -5465053.65049  -4174342.47449  24803392.3294   24803399.5814
  24381339.347    -5274716.74549  -3946758.93949  24381339.5604   24381343.8534
  22598557.837     9979561.59749   7761897.90749  22598556.8254   22598562.7444
  24027395.294    -7133324.50549  -5466484.63749  24027394.8114   24027399.8134
 98  2  3 17 38 30.0020000  0  9 22  3 19 18 14 27 13 16 31
  25005128.153    14901283.21349  11587884.97349  25005127.7704   25005133.8354
  23976291.854    -2532140.10249  -1972105.14449  23976291.0494   23976296.4004
  21911985.247    -2637869.95049  -2054716.59249  21911984.3994   21911989.5384
  20855018.764    -2005718.20249  -1562025.43549  20855018.0914   20855022.3244
  24290253.589    15209441.74849  11829003.45049  24290253.3184   24290260.6504
  24793154.615    -5518861.47749  -4216270.63649  24793153.3074   24793159.9844
  24366741.165    -5351430.16549  -4006535.60649  24366741.4664   24366745.4784
  22617475.517    10078974.46549   7839362.43349  22617474.7184   22617480.6874
  24014553.864    -7200806.68549  -5519068.11849  24014552.8114   24014557.9624
 98  2  3 17 39  0.0020000  0  9 22  3 19 18 14 27 13 16 31
  25028945.475    15026443.52549  11685412.38649  25028944.2724   25028950.0074
  23974829.802    -2539823.00749  -1978091.83549  23974828.8114   23974835.6014
  21908086.959    -2658355.80549  -2070679.59749  21908086.1984   21908091.1624
  20854088.040    -2010609.25549  -1565836.66149  20854087.2364   20854091.5504
  24314466.324    15336679.19449  11928149.38549  24314465.6964   24314473.0624
  24782914.985    -5572670.95849  -4258200.09549  24782914.1964   24782920.4634
  24352143.166    -5428142.88249  -4066311.73349  24352144.0314   24352147.4184
  22636448.125    10178675.83849   7917051.77449  22636447.3844   22636453.1144
  24001737.360    -7268157.71949  -5571549.41449  24001736.8634   24001741.8624
 98  2  3 17 39 30.0020000  0  9 22  3 19 18 14 27 13 16 31
  25052764.592    15151613.17149  11782947.05249  25052763.9824   25052769.8654
  23973447.714    -2547085.68949  -1983751.06749  23973447.1884   23973452.6864
  21904210.264    -2678727.90849  -2086553.97049  21904209.8214   21904214.5754
  20853221.739    -2015161.91049  -1569384.20149  20853220.9864   20853225.3934
  24338684.043    15463942.60249  12027315.54049  24338683.9504   24338691.0534
  24772674.594    -5626484.55249  -4300132.75649  24772673.5854   24772680.0364
  24337541.830    -5504873.09049  -4126101.49649  24337542.0404   24337545.2414
  22655472.471    10278649.03249   7994952.91449  22655471.6434   22655477.5784
  23988945.520    -7335379.02649  -5623929.63749  23988944.4194   23988949.5654
 98  2  3 17 40  0.0020000  0  9 22  3 19 18 14 27 13 16 31
  25076589.176    15276811.84949  11880504.31449  25076588.6994   25076594.0214
  23972149.638    -2553907.38249  -1989066.68049  23972149.4764   23972154.7514
  21900355.299    -2698985.98049  -2102339.49049  21900354.9404   21900359.5524
  20852424.304    -2019352.53049  -1572649.63249  20852423.6874   20852427.9384
  24362908.460    15591241.12849  12126509.08049  24362908.2904   24362914.9894
  24762434.876    -5680294.47949  -4342062.57749  24762435.0434   24762439.3784
  24322934.612    -5581634.54849  -4185915.61349  24322934.8334   24322939.0974
  22674548.669    10378894.78949   8073066.44649  22674548.0974   22674553.8424
  23976186.029    -7402430.11249  -5676177.20749  23976184.3834   23976190.7564
 98  2  3 17 40 30.0020000  0  9 22  3 19 18 14 27 13 16 31
  25100410.430    15401993.07549  11978047.98949  25100408.7394   25100415.7354
  23970925.683    -2560339.83449  -1994078.97649  23970924.4044   23970930.8844
  21896510.160    -2719192.30549  -2118084.68749  21896509.4124   21896514.3624
  20851687.189    -2023226.14049  -1575668.03949  20851686.4984   20851690.9294
  24387127.759    15718512.59949  12225681.53949  24387128.5224   24387134.5054
  24752184.508    -5734160.96949  -4384036.46149  24752183.6704   24752189.5324
  24308308.721    -5658494.65449  -4245806.60349  24308309.1284   24308312.8494
  22693665.852    10479355.74549   8151347.66649  22693665.0834   22693671.0044
  23963453.094    -7469341.68649  -5728316.07149  23963452.8874   23963457.2394
 98  2  3 17 41  0.0020000  0  9 22  3 19 18 14 27 13 16 31
  25124235.833    15527195.76149  12075608.37049  25124235.3144   25124242.0894
  23969778.820    -2566367.20449  -1998775.62549  23969778.5384   23969782.9544
  21892681.461    -2739312.23949  -2133762.56749  21892680.7624   21892685.5174
  20851017.959    -2026742.92749  -1578408.40449  20851017.3314   20851021.5834
  24411345.752    15845777.14949  12324848.59149  24411346.1774   24411352.1274
  24741929.619    -5788050.82049  -4426028.54749  24741928.2494   24741934.3564
  24293669.520    -5735424.46549  -4305751.92749  24293669.0034   24293673.9394
  22712831.009    10580068.80849   8229825.33149  22712830.2754   22712835.8324
  23950750.191    -7536095.96349  -5780332.37849  23950749.1514   23950754.7574
 98  2  3 17 41 30.0020000  0  9 22  3 19 18 14 27 13 16 31
  25148068.113    15652434.41249  12173196.78549  25148067.5854   25148074.0104
  23968708.006    -2571994.62149  -2003160.62749  23968707.3194   23968712.2434
  21888871.338    -2759334.55049  -2149364.37549  21888870.6704   21888875.6384
  20850420.734    -2029881.44949  -1580854.02249  20850420.0554   20850424.4214
  24435563.732    15973041.60549  12424015.57049  24435563.9514   24435570.1274
  24731669.523    -5841968.22649  -4468042.09849  24731669.1724   24731674.0634
  24279017.259    -5812422.70949  -4365750.56049  24279017.9064   24279019.9534
  22732047.569    10681052.31449   8308513.72849  22732046.7914   22732052.6134
  23938074.665    -7602706.11349  -5832236.36949  23938073.8364   23938080.1064
 98  2  3 17 42  0.0020000  0  9 22  3 19 18 14 27 13 16 31
  25171905.405    15777699.67149  12270805.94449  25171903.5444   25171911.8554
  23967710.369    -2577237.17749  -2007245.73749  23967709.5804   23967715.8704
  21885078.387    -2779266.75749  -2164895.97249  21885077.7864   21885082.6434
  20849894.048    -2032649.41849  -1583010.90049  20849893.6194   20849897.9504
  24459776.904    16100281.03349  12523163.03449  24459777.2594   24459783.1524
  24721402.286    -5895922.97349  -4510084.74849  24721401.5804   24721406.9514
  24264352.693    -5889485.78549  -4425799.70949  24264351.7894   24264356.2484
  22751312.521    10782290.01349   8387400.19249  22751311.8454   22751317.5894
  23925420.832    -7669202.00149  -5884051.32749  23925419.6874   23925425.8144
 98  2  3 17 42 30.0020000  0  9 22  3 19 18 14 27 13 16 31
  25195748.435    15902995.29649  12368438.75249  25195747.0274   25195754.7324
  23966786.646    -2582091.17049  -2011028.07349  23966785.6804   23966791.6964
  21881305.596    -2799092.82049  -2180344.85749  21881305.0784   21881309.8754
  20849439.378    -2035039.01249  -1584872.94049  20849438.7444   20849442.8474
  24483988.181    16227510.75549  12622302.92149  24483987.4484   24483993.7514
  24711133.429    -5949886.24749  -4552134.04749  24711132.9994   24711138.4294
  24249682.549    -5966578.06549  -4485871.62249  24249681.9254   24249685.2114
  22770627.320    10883789.82349   8466490.90749  22770626.4534   22770632.2474
  23912787.662    -7735589.20749  -5935781.59549  23912786.1934   23912792.5914
 98  2  3 17 43  0.0020000  0  9 22  3 19 18 14 27 13 16 31
  25219598.486    16028327.61849  12466100.19249  25219597.8864   25219603.7794
  23965942.560    -2586526.66649  -2014484.29749  23965941.2544   23965947.2024
  21877559.223    -2818779.95649  -2195685.48749  21877558.3324   21877563.3094
  20849060.125    -2037032.01549  -1586425.94149  20849059.4174   20849063.7464
  24508201.131    16354749.24649  12721449.66749  24508201.4154   24508206.9744
  24700869.739    -6003822.17049  -4594162.01449  24700869.6044   24700874.6734
  24235013.069    -6043666.57749  -4545940.58249  24235012.0004   24235016.8014
  22789993.317    10985558.77249   8545791.34149  22789992.4774   22789998.1194
  23900177.214    -7801857.24449  -5987418.99949  23900176.1124   23900182.1834
 98  2  3 17 43 30.0020000  0  9 22  3 19 18 14 27 13 16 31
  25243455.801    16153698.05049  12563791.31949  25243454.9204   25243461.6314
  23965185.081    -2590507.12449  -2017585.96549  23965184.4284   23965189.8714
  21873840.561    -2838321.60749  -2210912.75249  21873840.0064   21873844.8054
  20848757.033    -2038624.69549  -1587667.00949  20848756.3564   20848760.5984
  24532415.789    16481996.62249  12820603.32849  24532415.5324   24532420.7774
  24690615.146    -6057710.59649  -4636152.98649  24690614.4834   24690620.6694
  24220348.502    -6120729.34449  -4605989.48249  24220347.6824   24220352.5084
  22809408.087    11087583.83849   8625291.34749  22809407.0064   22809412.9614
  23887596.868    -7867967.57749  -6038933.52549  23887595.0824   23887602.0594
 98  2  3 17 44  0.0020000  0  9 22  3 19 18 14 27 13 16 31
  25267320.273    16279105.99449  12661511.70249  25267318.9994   25267325.2904
  23964513.448    -2594036.70349  -2020336.28849  23964512.5034   23964518.3344
  21870147.134    -2857730.80549  -2226036.81249  21870146.6534   21870151.2404
  20848529.462    -2039820.63249  -1588598.92849  20848529.0244   20848533.0414
  24556631.675    16609250.55449  12919762.09149  24556631.0884   24556638.0084
  24680369.531    -6111551.40149  -4678106.84449  24680368.2674   24680374.7644
  24205688.437    -6197768.33549  -4666019.84649  24205688.3414   24205693.1234
  22828871.053    11189862.39449   8704988.87549  22828869.8924   22828875.9414
  23875049.591    -7933903.93849  -6090312.47349  23875049.3074   23875054.4024
 98  2  3 17 44 30.0020000  0  9 22  3 19 18 14 27 13 16 31
  25291191.174    16404548.13649  12759258.72249  25291190.9034   25291196.9184
  23963925.900    -2597124.36749  -2022742.25549  23963925.3004   23963930.2454
  21866476.847    -2877018.39649  -2241066.11249  21866476.3834   21866481.0054
  20848377.214    -2040620.89349  -1589222.51949  20848376.6694   20848380.9454
  24580847.916    16736506.65949  13018922.54349  24580847.9634   24580854.4574
  24670125.406    -6165384.32949  -4720054.56649  24670124.3284   24670130.5664
  24191028.549    -6274806.45249  -4726049.51649  24191028.9694   24191032.8364
  22848381.535    11292390.75349   8784881.05349  22848380.5654   22848386.7384
  23862537.690    -7999654.33249  -6141546.52549  23862537.1094   23862542.5354
 98  2  3 17 45  0.0020000  0  9 22  3 19 18 14 27 13 16 31
  25315069.750    16530030.32649  12857036.96049  25315068.3234   25315074.7174
  23963425.889    -2599752.12449  -2024789.86049  23963425.1564   23963430.6794
  21862832.113    -2896171.67249  -2255990.74949  21862831.6274   21862836.4724
  20848304.327    -2041004.05649  -1589521.09949  20848303.6104   20848307.9574
  24605064.792    16863766.00349  13118085.54949  24605064.8084   24605071.3954
  24659880.097    -6219223.42949  -4762007.08949  24659879.3414   24659885.1384
  24176366.049    -6351858.09549  -4786089.74149  24176365.7004   24176370.4904
  22867942.692    11395185.40549   8864980.73249  22867941.7534   22867947.5624
  23850062.998    -8065209.31249  -6192628.29749  23850061.9964   23850067.8724
 98  2  3 17 45 30.0020000  0  9 22  3 19 18 14 27 13 16 31
  25338956.934    16655557.55049  12954850.30149  25338956.5954   25338960.9164
  23963012.775    -2601923.33149  -2026481.69649  23963012.0724   23963017.9874
  21859213.995    -2915185.28049  -2270806.56249  21859213.5514   21859218.4354
  20848312.037    -2040963.39149  -1589489.42549  20848311.5244   20848315.6344
  24629284.097    16991038.45249  13217258.72849  24629283.4224   24629289.4294
  24649629.989    -6273087.80949  -4803979.30749  24649629.9164   24649635.1194
  24161700.066    -6428928.51949  -4846144.62049  24161700.3934   24161704.2724
  22887559.647    11498273.21749   8945308.84649  22887558.5534   22887564.5694
  23837626.176    -8130565.10249  -6243554.85449  23837624.5364   23837631.6884
 98  2  3 17 46  0.0020000  0  9 22  3 19 18 14 27 13 16 31
  25362849.444    16781113.04749  13052685.68349  25362849.8144   25362855.4284
  23962684.278    -2603649.84249  -2027827.02949  23962683.3204   23962688.9734
  21855623.792    -2934052.17749  -2285508.04949  21855623.2974   21855628.0284
  20848399.842    -2040502.07449  -1589129.96849  20848399.0044   20848403.4924
  24653505.411    17118322.02649  13316440.57949  24653505.4834   24653512.1024
  24639371.673    -6326995.72349  -4845985.45449  24639370.7194   24639376.5814
  24147027.903    -6506031.07949  -4906224.51949  24147027.2914   24147031.9724
  22907233.627    11601660.93849   9025870.65249  22907232.7334   22907238.6934
  23825224.048    -8195739.02649  -6294339.69049  23825222.4824   23825228.6614
 98  2  3 17 46 30.0020000  0  9 22  3 19 18 14 27 13 16 31
  25386744.297    16906680.64949  13150530.47349  25386743.5134   25386750.5594
  23962443.120    -2604917.18049  -2028814.56249  23962441.9274   23962446.8354
  21852063.110    -2952763.60249  -2300088.39149  21852062.5424   21852067.2134
  20848562.910    -2039645.15049  -1588462.25049  20848562.1814   20848566.4744
  24677725.155    17245597.52049  13415616.12749  24677723.7974   24677731.0214
  24629108.637    -6380928.46949  -4888010.94549  24629107.5944   24629113.2624
  24132349.630    -6583165.57049  -4966329.31249  24132349.4224   24132352.9714
  22926962.277    11705335.29049   9106655.80749  22926961.5654   22926967.4814
  23812856.065    -8260733.31849  -6344984.55049  23812855.6534   23812859.9944
 98  2  3 17 47  0.0020000  0  9 22  3 19 18 14 27 13 16 31
  25410638.755    17032246.34049  13248373.78349  25410639.0714   25410643.4934
  23962288.981    -2605726.99749  -2029445.58649  23962287.4144   23962294.2904
  21848531.326    -2971323.20049  -2314550.42549  21848530.7174   21848535.3954
  20848798.009    -2038409.82349  -1587499.67749  20848797.3384   20848801.4954
  24701941.839    17372857.07549  13514779.25049  24701941.1524   24701949.0334
  24618846.924    -6434853.60049  -4930030.51449  24618845.6684   24618851.8294
  24117668.667    -6660314.16149  -5026445.10149  24117668.0464   24117673.5984
  22946743.421    11809285.33049   9187655.78849  22946742.6814   22946748.8284
  23800521.063    -8325554.50549  -6395494.52349  23800519.9434   23800525.1044
 98  2  3 17 47 30.0020000  0  9 22  3 19 18 14 27 13 16 31
  25434531.931    17157805.54449  13346212.03349  25434530.9414   25434536.6174
  23962221.481    -2606081.59449  -2029721.89649  23962221.5794   23962225.9294
  21845023.591    -2989756.58149  -2328914.10749  21845023.0254   21845027.8414
  20849102.475    -2036809.78249  -1586252.90449  20849101.7774   20849106.2324
  24726153.763    17500091.25349  13613922.60949  24726153.8604   24726160.3084
  24608588.646    -6488761.45749  -4972036.61849  24608588.1194   24608593.8984
  24102988.968    -6737456.61749  -5086556.10349  24102988.9484   24102993.0944
  22966573.655    11913493.37749   9268856.81849  22966573.2024   22966579.2234
  23788221.996    -8390186.59449  -6445857.14149  23788221.1974   23788226.4134
 98  2  3 17 48  0.0020000  0  8  3 19 18 14 27 13 16 31
  23962246.322    -2605950.99049  -2029620.12049  23962245.0834   23962251.1404
  21841541.463    -3008055.38149  -2343172.92249  21841540.8764   21841545.7894
  20849479.841    -2034826.87149  -1584707.78749  20849479.3364   20849483.4874
  24750362.207    17627307.59349  13713052.07549  24750360.9324   24750368.1974
  24598340.147    -6542617.84349  -5014002.61749  24598339.9244   24598345.5204
  24088317.025    -6814558.17449  -5146635.23749  24088317.1654   24088321.4034
  22986450.466    12017946.08449   9350248.48949  22986449.6824   22986455.8154
  23775963.247    -8454606.86349  -6496054.70749  23775962.8634   23775967.3654
 98  2  3 17 48 30.0020000  0  8  3 19 18 14 27 13 16 31
  23962363.630    -2605334.59949  -2029139.82949  23962362.7214   23962367.6344
  21838083.399    -3026227.59549  -2357333.10749  21838082.8304   21838087.6594
  20849933.326    -2032443.77549  -1582850.84349  20849932.5624   20849936.8914
  24774568.422    17754512.18849  13812172.38849  24774567.2244   24774575.3074
  24588102.342    -6596418.12649  -5055924.90649  24588101.6514   24588107.0734
  24073654.791    -6891608.92449  -5206674.78349  24073654.9154   24073659.0624
  23006370.722    12122627.33649   9431818.24049  23006369.8424   23006375.5194
  23763744.981    -8518814.25449  -6546086.39749  23763743.8324   23763749.8154
 98  2  3 17 49  0.0020000  0  8  3 19 18 14 27 13 16 31
  23962568.027    -2604260.72649  -2028303.03149  23962567.3304   23962572.7944
  21834646.141    -3044290.50749  -2371408.11949  21834645.4994   21834650.1054
  20850467.176    -2029638.39449  -1580664.83949  20850466.5224   20850470.7924
  24798772.361    17881705.23149  13911283.70949  24798771.5684   24798780.2244
  24577869.144    -6650193.79449  -5097828.01149  24577868.3264   24577873.7974
  24059001.395    -6968613.14849  -5266678.07649  24059001.5104   24059005.8284
  23026330.603    12227516.93249   9513550.34549  23026329.5744   23026335.6144
  23751565.339    -8582818.53149  -6595959.82349  23751563.9544   23751569.8574
 98  2  3 17 49 30.0020000  0  8  3 19 18 14 27 13 16 31
  23962860.125    -2602725.78949  -2027106.99649  23962859.4484   23962864.2984
  21831229.691    -3062243.95949  -2385397.83749  21831229.1554   21831233.9734
  20851083.176    -2026401.40749  -1578142.53149  20851082.6264   20851086.8234
  24822973.726    18008884.81349  14010384.53649  24822972.9434   24822981.6414
  24567637.795    -6703959.79149  -5139723.58849  24567636.7094   24567642.6104
  24044355.247    -7045579.25249  -5326651.65449  24044354.4604   24044359.5754
  23046329.279    12332610.54349   9595441.41349  23046328.3094   23046334.5474
  23739425.051    -8646616.02349  -6645672.12849  23739423.6494   23739429.3194
 98  2  3 17 50  0.0020000  0  8  3 19 18 14 27 13 16 31
  23963235.420    -2600753.28949  -2025569.98149  23963234.9084   23963240.0414
  21827836.917    -3080073.54149  -2399291.03149  21827836.4034   21827841.1304
  20851781.077    -2022733.91249  -1575284.76149  20851780.2434   20851784.5194
  24847170.780    18136042.58549  14109468.36449  24847170.4524   24847178.2624
  24557406.300    -6757726.40349  -5181619.65949  24557405.3324   24557411.4464
  24029711.151    -7122534.54949  -5386616.80449  24029711.7874   24029715.4874
  23066364.552    12437896.71149   9677482.51949  23066363.7394   23066369.9494
  23727320.332    -8710225.95049  -6695238.27349  23727319.9784   23727324.8654
 98  2  3 17 50 30.0020000  0  8  3 19 18 14 27 13 16 31
  23963688.693    -2598371.37749  -2023713.95149  23963688.7634   23963693.1874
  21824465.748    -3097789.20949  -2413095.45549  21824465.2674   21824470.0814
  20852559.533    -2018643.08949  -1572097.11349  20852558.9544   20852563.1434
  24871362.046    18263169.45049  14208528.11049  24871361.4854   24871370.3794
  24547173.411    -6811500.64849  -5223521.67049  24547173.2364   24547178.3704
  24015064.190    -7199504.78849  -5446593.60549  24015063.5674   24015068.3214
  23086440.451    12543396.15949   9759689.83649  23086439.4314   23086445.7794
  23715252.857    -8773640.69849  -6744652.32249  23715251.6234   23715256.9534
 98  2  3 17 51  0.0020000  0  8  3 19 18 14 27 13 16 31
  23964223.507    -2595560.88049  -2021523.97149  23964222.4844   23964228.4124
  21821118.482    -3115379.25649  -2426801.99949  21821117.9044   21821122.7034
  20853420.290    -2014119.84449  -1568572.52249  20853419.6584   20853423.9794
  24895548.492    18390271.54949  14307568.57149  24895547.7214   24895557.1994
  24536942.583    -6865263.94849  -5265415.16849  24536941.9794   24536948.5814
  24000415.436    -7276484.40849  -5506577.70249  24000415.6184   24000419.9384
  23106561.717    12649134.12049   9842082.99049  23106560.9014   23106566.6824
  23703226.382    -8836839.95449  -6793898.48049  23703225.4484   23703230.2974
 98  2  3 17 51 30.0020000  0  8  3 19 18 14 27 13 16 31
  23964847.046    -2592284.15849  -2018970.69249  23964846.4724   23964851.9014
  21817799.765    -3132819.24349  -2440391.60049  21817799.2324   21817804.0734
  20854364.701    -2009156.87749  -1564705.28549  20854363.9744   20854368.3664
  24919732.262    18517359.61949  14406598.07949  24919731.2294   24919740.9004
  24526717.646    -6918996.51149  -5307284.70749  24526716.3284   24526721.5154
  23985766.748    -7353463.40949  -5566561.29749  23985766.4394   23985770.2424
  23126732.640    12755132.92249   9924679.39749  23126731.6574   23126738.4704
  23691244.366    -8899805.55249  -6842962.55149  23691243.1344   23691248.7144
 98  2  3 17 52  0.0020000  0  8  3 19 18 14 27 13 16 31
  23965560.334    -2588535.82949  -2016049.93649  23965559.8284   23965565.4584
  21814513.199    -3150090.31249  -2453849.58449  21814512.6074   21814517.5444
  20855394.477    -2003745.31549  -1560488.49249  20855393.5214   20855398.0084
  24943913.024    18644431.54349  14505614.97449  24943911.4394   24943921.5144
  24516499.408    -6972693.62949  -5349126.63549  24516497.4824   24516503.7694
  23971119.696    -7430433.80249  -5626538.21949  23971118.7904   23971123.7814
  23146954.965    12861401.73649  10007486.20749  23146954.0674   23146960.3574
  23679309.734    -8962522.43849  -6891832.82049  23679308.4564   23679313.8104
 98  2  3 17 52 30.0020000  0  8  3 19 18 14 27 13 16 31
  23966369.786    -2584282.33449  -2012735.53849  23966369.1484   23966373.6494
  21811258.544    -3167193.80149  -2467176.98249  21811258.0004   21811262.9744
  20856511.114    -1997877.31949  -1555916.03849  20856510.4884   20856514.7134
  24968092.429    18771495.45149  14604625.63649  24968091.9204   24968101.6694
  24506288.604    -7026351.87249  -5390938.25549  24506287.9304   24506293.3094
  23956479.079    -7507370.69249  -5686489.03349  23956478.9654   23956483.2944
  23167229.794    12967946.34249  10090507.92449  23167228.7614   23167235.1094
  23667424.544    -9024979.30549  -6940500.47949  23667423.3344   23667428.7164
 98  2  3 17 53  0.0020000  0  8  3 19 18 14 27 13 16 31
  23967278.864    -2579505.14349  -2009013.07549  23967277.8194   23967283.8484
  21808037.274    -3184121.74049  -2480367.58749  21808036.8504   21808041.7724
  20857715.375    -1991549.05549  -1550984.93449  20857714.6654   20857719.1534
  24992270.407    18898551.20449  14703629.96349  24992269.9724   24992280.0894
  24496083.892    -7079978.03949  -5432724.89249  24496083.2944   24496088.9784
  23941848.635    -7584254.17349  -5746398.22449  23941847.2644   23941852.8094
  23187551.351    13074736.75049  10173721.16149  23187550.5234   23187556.3684
  23655586.601    -9087187.68649  -6988974.51049  23655585.7294   23655590.9314
 98  2  3 17 53 30.0020000  0  8  3 19 18 14 27 13 16 31
  23968284.478    -2574220.47949  -2004895.17949  23968284.2524   23968288.6164
  21804849.677    -3200872.76049  -2493420.33649  21804849.1274   21804854.0734
  20859004.756    -1984773.51249  -1545705.30649  20859004.1624   20859008.4984
  25016442.560    19025576.08149  14802610.22049  25016442.2974   25016451.2284
  24485881.470    -7133592.57149  -5474502.45449  24485880.7874   24485886.2674
  23927228.179    -7661085.07649  -5806266.46449  23927228.6644   23927231.9604
  23207916.378    13181755.58649  10257112.39649  23207915.5744   23207921.4184
  23643797.098    -9149141.88649  -7037250.50749  23643796.0614   23643801.1974
 98  2  3 17 54  0.0020000  0  8  3 19 18 14 27 13 16 31
  23969385.711    -2568433.89149  -2000386.19149  23969385.0304   23969390.6254
  21801694.126    -3217455.20649  -2506341.72849  21801693.6024   21801698.3194
  20860377.800    -1977558.28849  -1540083.07249  20860377.2714   20860381.4524
  25040607.786    19152564.36449  14901561.96749  25040607.5184   25040617.2854
  24475680.943    -7187196.82149  -5516271.99249  24475679.2104   24475686.1944
  23912618.485    -7737859.70949  -5866090.85949  23912619.0284   23912622.9414
  23228325.079    13289003.88849  10340682.43249  23228323.9464   23228330.0294
  23632056.323    -9210839.86749  -7085326.84549  23632055.1394   23632061.4624
 98  2  3 17 54 30.0020000  0  8  3 19 18 14 27 13 16 31
  23970579.110    -2562162.50249  -1995499.43149  23970578.8644   23970584.1204
  21798564.460    -3233901.76849  -2519157.22949  21798563.8884   21798568.8114
  20861832.185    -1969915.56649  -1534127.71549  20861831.5054   20861835.8974
  25064763.983    19279505.02749  15000476.62449  25064763.9854   25064773.5354
  24465479.503    -7240805.38749  -5558044.88349  24465478.2924   24465485.0234
  23898016.717    -7814592.40649  -5925882.57549  23898016.2884   23898020.6864
  23248772.630    13396456.14349  10424411.39749  23248771.7404   23248777.4624
  23620361.789    -9272294.77849  -7133213.75649  23620360.4454   23620366.6134
 98  2  3 17 55  0.0020000  0  8  3 19 18 14 27 13 16 31
  23971861.497    -2555423.67849  -1990248.43349  23971860.5064   23971866.8984
  21795460.905    -3250211.09249  -2531865.79949  21795460.1974   21795465.0474
  20863366.165    -1961854.59449  -1527846.45049  20863365.3634   20863369.7674
  25088907.921    19406381.50549  15099341.25749  25088907.9504   25088917.5214
  24455277.270    -7294418.25949  -5599821.14549  24455276.1454   24455282.3794
  23883420.849    -7891294.22949  -5985650.22049  23883420.7424   23883424.2854
  23269257.940    13504106.86149  10508295.01349  23269257.4284   23269263.0984
  23608715.655    -9333495.18549  -7180902.36649  23608714.8274   23608719.9944
 98  2  3 17 55 30.0020000  0  8  3 19 18 14 27 13 16 31
  23973233.872    -2548211.89449  -1984628.91149  23973233.3164   23973238.0274
  21792383.591    -3266382.51349  -2544466.91749  21792383.0074   21792387.8324
  20864978.877    -1953379.62649  -1521242.59649  20864978.1864   20864982.5454
  25113039.589    19533193.28749  15198155.46849  25113040.0144   25113047.2314
  24445077.331    -7348019.17449  -5641588.08049  24445077.2054   24445082.1334
  23868829.339    -7967973.36049  -6045400.20049  23868828.9444   23868832.9284
  23289783.197    13611967.14149  10592341.90949  23289782.5094   23289788.2134
  23597120.884    -9394425.99749  -7228380.90249  23597119.7844   23597125.6284
 98  2  3 17 56  0.0020000  0  8  3 19 18 14 27 13 16 31
  23974696.338    -2540526.40849  -1978640.26549  23974695.7634   23974701.6274
  21789329.454    -3282432.05049  -2556973.05349  21789328.8424   21789333.5224
  20866669.752    -1944493.94049  -1514318.69449  20866669.0464   20866673.4844
  25137161.414    19659953.58149  15296929.54149  25137162.0954   25137170.7764
  24434882.435    -7401593.64749  -5683334.41149  24434882.2234   24434887.2224
  23854241.388    -8044633.67349  -6105135.49649  23854241.4624   23854244.3774
  23310345.785    13720023.32549  10676541.47449  23310345.4244   23310350.8034
  23585575.402    -9455098.03449  -7275657.80349  23585575.0764   23585580.7174
 98  2  3 17 56 30.0020000  0  8  3 19 18 14 27 13 16 31
  23976249.035    -2532366.85449  -1972282.20849  23976248.0594   23976254.0314
  21786298.438    -3298360.11049  -2569384.53849  21786297.7604   21786302.4874
  20868441.946    -1935181.20749  -1507062.03549  20868441.2994   20868445.4774
  25161273.471    19786662.91149  15395663.89949  25161273.8934   25161281.2264
  24424694.585    -7455130.87849  -5725051.71849  24424693.8364   24424700.4344
  23839657.346    -8121273.66249  -6164854.97649  23839657.3394   23839662.1674
  23330943.571    13828264.90849  10760885.49249  23330942.7544   23330948.5034
  23574079.906    -9515507.60149  -7322730.17649  23574079.1454   23574084.2684
 98  2  3 17 57  0.0020000  0  8  3 19 18 14 27 13 16 31
  23977894.794    -2523718.53349  -1965543.30149  23977894.0094   23977899.1474
  21783293.718    -3314149.90549  -2581688.28649  21783293.0904   21783298.0624
  20870292.698    -1925455.41349  -1499483.51249  20870292.0974   20870296.4934
  25185375.398    19913318.06249  15494356.06049  25185376.7274   25185384.3564
  24414515.108    -7508624.20049  -5766734.81049  24414514.4434   24414520.6434
  23825079.420    -8197881.13349  -6224549.09049  23825079.0914   23825083.4924
  23351578.883    13936703.74149  10845383.20849  23351578.2494   23351584.3514
  23562633.989    -9575656.69949  -7369599.58449  23562633.5184   23562639.0454
 98  2  3 17 57 30.0020000  0  8  3 19 18 14 27 13 16 31
  23979636.661    -2514565.10649  -1958410.79949  23979636.4634   23979641.0564
  21780314.976    -3329803.29649  -2593885.74349  21780314.4424   21780319.3724
  20872226.780    -1915291.94849  -1491563.94849  20872226.2084   20872230.6494
  25209469.067    20039930.16849  15593014.64849  25209468.8284   25209477.6964
  24404344.105    -7562073.21949  -5808383.38949  24404343.2354   24404349.3304
  23810510.550    -8274441.17449  -6284206.25249  23810509.4174   23810514.9624
  23372253.737    14045350.52049  10930042.96549  23372252.9264   23372259.1034
  23551237.801    -9635544.31449  -7416265.24049  23551236.2484   23551241.9644
 98  2  3 17 58  0.0020000  0  8  3 19 18 14 27 13 16 31
  23981476.087    -2504898.96149  -1950878.76649  23981475.0604   23981481.2604
  21777363.612    -3345313.05749  -2605971.28649  21777363.0154   21777367.9834
  20874248.501    -1904667.93549  -1483285.51849  20874247.9494   20874252.0644
  25233556.730    20166510.19849  15691648.27149  25233557.6924   25233565.7904
  24394179.864    -7615486.61149  -5850004.19849  24394178.8014   24394185.2344
  23795955.965    -8350925.83149  -6343804.68949  23795955.9034   23795958.7644
  23392971.201    14154221.48949  11014877.40549  23392970.5044   23392976.6814
  23539895.014    -9695150.85649  -7462711.89049  23539894.0204   23539898.8304
 98  2  3 17 58 30.0020000  0  8  3 19 18 14 27 13 16 31
  23983414.207    -2494714.23949  -1942942.65449  23983413.0094   23983419.7614
  21774440.881    -3360672.16449  -2617939.42849  21774440.1894   21774445.2284
  20876359.656    -1893573.83449  -1474640.78349  20876359.1474   20876363.3204
  25257637.329    20293053.06149  15790252.92549  25257637.7714   25257646.3444
  24384019.806    -7668877.86749  -5891607.75549  24384019.4054   24384025.0084
  23781418.061    -8427322.98149  -6403334.92449  23781417.7374   23781421.4374
  23413733.438    14263327.93249  11099895.34049  23413732.2704   23413738.9144
  23528607.664    -9754466.17149  -7508931.60549  23528607.1044   23528612.1364
 98  2  3 17 59  0.0020000  0  8  3 19 18 14 27 13 16 31
  23985448.750    -2484022.68149  -1934611.59949  23985448.8994   23985453.6804
  21771546.022    -3375884.73549  -2629793.38849  21771545.3034   21771550.2634
  20878558.839    -1882017.04249  -1465635.50849  20878558.1554   20878562.5514
  25281711.139    20419560.56349  15888830.02949  25281710.8664   25281719.8924
  24373862.852    -7722252.71649  -5933198.53349  24373862.1964   24373868.3714
  23766897.677    -8503627.98449  -6462793.34649  23766897.5594   23766901.1794
  23434538.816    14372661.29349  11185090.08649  23434537.5974   23434544.7124
  23517376.891    -9813484.01349  -7554919.52049  23517376.3994   23517381.4154
 98  2  3 17 59 30.0020000  0  8  3 19 18 14 27 13 16 31
  23987576.933    -2472838.72049  -1925896.86449  23987576.9164   23987582.4464
  21768677.929    -3390956.63849  -2641537.74249  21768677.2184   21768681.8934
  20880850.248    -1869975.51949  -1456252.52549  20880849.5894   20880853.8894
  25305777.694    20546029.70349  15987377.22849  25305778.2944   25305785.6844
  24363709.397    -7775609.46149  -5974775.21449  24363708.5264   24363714.5084
  23752393.581    -8579847.53149  -6522185.19049  23752393.6904   23752398.1624
  23455384.489    14482206.06049  11270449.57249  23455382.9764   23455390.5814
  23506205.244    -9872191.16549  -7600665.33949  23506203.9444   23506208.9634
 98  2  3 18  0  0.0020000  0  8  3 19 18 14 27 13 16 31
  23989794.752    -2461183.84649  -1916815.16049  23989794.4514   23989799.8534
  21765836.131    -3405890.23149  -2653174.31849  21765835.5464   21765840.4464
  20883229.310    -1857473.39049  -1446510.61849  20883228.7724   20883233.0784
  25329833.550    20672442.75349  16085880.71849  25329833.8814   25329843.2214
  24353557.644    -7828957.49649  -6016345.10649  24353557.4034   24353562.4974
  23737903.603    -8655992.51949  -6581518.92349  23737904.1814   23737908.2624
  23476266.154    14591940.14049  11355956.58149  23476265.1704   23476271.9044
  23495089.842    -9930602.62649  -7646180.75349  23495089.6484   23495094.1414
 98  2  3 18  0 30.0020000  0  8  3 19 18 14 27 13 16 31
  23992103.407    -2449051.82249  -1907361.65949  23992103.4824   23992108.8604
  21763022.154    -3420677.87349  -2664697.16949  21763021.5744   21763026.4734
  20885697.079    -1844505.12349  -1436405.49149  20885696.3334   20885700.9364
  25353876.742    20798789.38049  16184332.42849  25353877.2664   25353885.7124
  24343411.747    -7882274.68149  -6057890.96149  24343411.0774   24343417.6404
  23723427.119    -8732066.97349  -6640797.71249  23723426.6634   23723431.5204
  23497181.712    14701852.39349  11441602.42149  23497181.0604   23497187.1614
  23484029.793    -9988723.38049  -7691469.65149  23484029.0454   23484034.6064
 98  2  3 18  1  0.0020000  0  8  3 19 18 14 27 13 16 31
  23994505.960    -2436426.75749  -1897523.96849  23994505.6594   23994510.4544
  21760237.922    -3435309.13549  -2676098.16549  21760237.3414   21760242.3974
  20888252.506    -1831076.17749  -1425941.39449  20888251.7644   20888256.2594
  25377905.638    20925060.26049  16282725.11449  25377905.0624   25377913.9244
  24333273.468    -7935551.97949  -6099405.74049  24333272.8764   24333278.6504
  23708964.644    -8808068.07649  -6700019.34049  23708963.5064   23708968.8284
  23518130.555    14811939.39449  11527384.42849  23518129.6584   23518136.4554
  23473027.310   -10046541.53749  -7736522.75649  23473026.3624   23473031.2724
 98  2  3 18  1 30.0020000  0  8  3 19 18 14 27 13 16 31
  23997008.081    -2423278.62649  -1887278.68549  23997007.0984   23997012.3824
  21757485.812    -3449771.57349  -2687367.60949  21757485.2164   21757490.0384
  20890896.958    -1817179.73549  -1415113.01649  20890896.4434   20890900.6624
  25401920.359    21051257.02549  16381060.05749  25401920.7164   25401929.0374
  24323143.304    -7988786.07949  -6140886.86649  24323142.3494   24323148.4854
  23694517.779    -8883987.05749  -6759176.97749  23694517.8574   23694521.9294
  23539115.158    14922214.49149  11613312.99449  23539113.7214   23539120.7374
  23462082.351   -10104057.74449  -7781340.56949  23462081.6894   23462086.2414
 98  2  3 18  2  0.0020000  0  8  3 19 18 14 27 13 16 31
  23999612.946    -2409590.34849  -1876612.51149  23999611.3354   23999618.1534
  21754767.383    -3464057.13349  -2698499.23649  21754766.8484   21754771.8204
  20893630.576    -1802814.83949  -1403919.61249  20893630.1014   20893634.3594
  25425922.992    21177390.03249  16479345.32449  25425923.9894   25425931.2684
  24313020.966    -8041979.25949  -6182336.08949  24313020.5764   24313026.2404
  23680087.988    -8959815.86249  -6818264.36249  23680088.3664   23680092.0344
  23560136.568    15032682.64349  11699391.99149  23560135.6774   23560143.0234
  23451194.844   -10161272.28449  -7825923.31849  23451194.4564   23451199.7414
 98  2  3 18  2 30.0020000  0  9  3 19  2 18 14 27 13 16 31
  24002320.627    -2395361.40849  -1865525.02349  24002319.9304   24002325.6994
  21752080.054    -3478179.28049  -2709503.51949  21752079.3294   21752084.4104
  25805123.232    -2813553.42449  -1986042.35649  25805122.0264   25805129.5684
  20896451.610    -1787990.50549  -1392368.20149  20896451.0284   20896455.3454
  25449912.318    21303453.19949  16577576.16149  25449911.6134   25449920.3514
  24302904.905    -8095139.47349  -6223759.63149  24302903.4204   24302909.6154
  23665675.338    -9035554.74849  -6877281.67549  23665675.4244   23665678.1784
  23581192.267    15143330.87449  11785611.31349  23581191.4814   23581197.5574
  23440365.353   -10218182.17849  -7870268.67749  23440364.4534   23440369.9364
 98  2  3 18  3  0.0020000  0  9  3 19  2 18 14 27 13 16 31
  24005129.104    -2380602.36749  -1854024.48949  24005128.7454   24005133.6084
  21749422.458    -3492144.89649  -2720385.82949  21749421.8794   21749427.0394
  25790408.617    -2890878.42149  -2046295.46649  25790407.4024   25790415.7384
  20899358.066    -1772717.13349  -1380466.88949  20899357.5164   20899361.8274
  25473889.746    21429454.31549  16675758.60049  25473889.6734   25473898.7024
  24292791.832    -8148283.77049  -6265170.76949  24292791.1814   24292796.7534
  23651278.669    -9111210.11149  -6936233.90349  23651278.6414   23651283.2764
  23602279.873    15254146.70249  11871961.21949  23602278.9424   23602285.6894
  23429593.446   -10274789.36349  -7914378.15749  23429592.4014   23429597.8804
 98  2  3 18  3 30.0020000  0  9  3 19  2 18 14 27 13 16 31
  24008034.760    -2365333.13749  -1842126.40949  24008034.0944   24008039.6904
  21746793.657    -3505959.39049  -2731150.38649  21746793.1484   21746798.2254
  25775711.491    -2968111.97249  -2106477.34449  25775710.3174   25775718.3024
  20902353.596    -1756975.48549  -1368200.68849  20902352.9224   20902357.4364
  25497855.303    21555393.37849  16773892.70449  25497855.6224   25497863.0294
  24282681.806    -8201412.08149  -6306569.44049  24282680.5904   24282687.1194
  23636896.059    -9186791.20449  -6995128.25949  23636894.5984   23636899.8024
  23623399.225    15365129.00449  11958440.85149  23623398.9314   23623405.9424
  23418877.801   -10331100.35749  -7958256.82949  23418876.7394   23418882.6044
 98  2  3 18  4  0.0020000  0 10 10  3 19  2 18 14 27 13 16 31
  25577623.316    -2160083.28249  -1668349.40149  25577621.6114   25577629.6934
  24011032.131    -2349581.61849  -1829852.51949  24011031.6594   24011038.3064
  21744191.380    -3519634.60049  -2741806.41149  21744190.8304   21744195.5774
  25761032.717    -3045249.14049  -2166584.11049  25761031.6394   25761039.5644
  20905436.990    -1740772.06749  -1355574.66349  20905436.2584   20905440.6134
  25521805.464    21681252.04349  16871964.14649  25521805.2024   25521813.6134
  24272574.510    -8254526.07349  -6347956.94049  24272573.6574   24272579.1894
  23622526.840    -9262301.95449  -7053967.80049  23622526.1754   23622530.8384
  23644549.267    15476272.27049  12045045.91549  23644548.4504   23644555.2594
  23408220.181   -10387106.66449  -8001898.09249  23408218.6674   23408224.7604
 98  2  3 18  4 30.0020000  0  9 10  3 19  2 18 27 13 16 31
  25567176.574    -2214981.46449  -1711127.20549  25567174.8634   25567183.4284
  24014121.319    -2333347.77049  -1817202.77649  24014120.1814   24014127.4864
  21741615.083    -3533173.20849  -2752355.99649  21741614.5634   21741619.6034
  25746374.770    -3122277.27249  -2226605.90449  25746373.8864   25746381.9134
  20908608.464    -1724105.82649  -1342588.00349  20908608.0324   20908612.3194
  24262473.928    -8307604.83149  -6389316.99649  24262473.9494   24262478.8204
  23608173.800    -9337727.34849  -7112740.85249  23608172.6824   23608177.7124
  23665731.392    15587584.15649  12131782.37149  23665731.3654   23665737.3984
  23397624.483   -10442787.07449  -8045285.41249  23397623.0434   23397628.6654
 98  2  3 18  5  0.0020000  0  9 10  3 19  2 18 27 13 16 31
  25556798.579    -2269519.02749  -1753624.00249  25556797.5774   25556804.1194
  24017296.121    -2316664.39449  -1804202.76949  24017295.4024   24017300.8514
  21739062.051    -3546589.55249  -2762810.30649  21739061.5914   21739066.3434
  25731736.130    -3199203.98449  -2286548.68749  25731735.2904   25731742.2734
  20911865.990    -1706987.52949  -1329249.08749  20911865.1574   20911869.6234
  24252375.536    -8360672.20249  -6430668.17349  24252374.9004   24252381.0434
  23593831.081    -9413098.67549  -7171471.75149  23593830.8514   23593835.0014
  23686940.523    15699038.09049  12218629.52149  23686940.3024   23686946.7754
  23387087.395   -10498159.32349  -8088432.60049  23387086.2374   23387092.2154
 98  2  3 18  5 30.0020000  0  9 10  3 19  2 18 27 13 16 31
  25546490.994    -2323685.29649  -1795831.47149  25546489.3034   25546496.7264
  24020558.098    -2299522.52249  -1790845.49949  24020557.0244   24020562.5774
  21736533.679    -3559876.43149  -2773163.73849  21736533.1114   21736538.1334
  25717118.498    -3276020.31149  -2346405.47149  25717117.6504   25717124.1164
  20915209.010    -1689420.06349  -1315560.17149  20915208.4424   20915212.7714
  24242278.931    -8413730.26449  -6472012.10349  24242278.6104   24242284.1114
  23579500.742    -9488405.28449  -7230152.22449  23579500.3224   23579504.7004
  23708177.909    15810640.67049  12305592.49049  23708176.9114   23708184.3874
  23376611.418   -10553210.75549  -8131329.80449  23376609.4804   23376616.3184
 98  2  3 18  6  0.0020000  0  9 10  3 19  2 18 27 13 16 31
  25536257.295    -2377463.47549  -1837736.53849  25536256.7874   25536262.9394
  24023914.163    -2281886.41349  -1777103.10249  24023913.4114   24023919.1124
  21734033.901    -3573012.70249  -2783399.81349  21734033.2924   21734038.3964
  25702527.525    -3352696.11349  -2406152.73949  25702526.1814   25702532.9724
  20918636.215    -1671410.02749  -1301526.39849  20918635.8204   20918640.0854
  24232187.876    -8466759.09349  -6513333.25949  24232187.6864   24232193.4314
  23565189.509    -9563611.24849  -7288754.28049  23565189.6394   23565193.1714
  23729445.717    15922403.17549  12392680.07249  23729444.9674   23729452.1504
  23366201.758   -10607913.41749  -8173955.23849  23366201.3754   23366206.2264
 98  2  3 18  6 30.0020000  0  9 10  3 19  2 18 27 13 16 31
  25526097.466    -2430853.85649  -1879339.42849  25526095.5924   25526102.8184
  24027366.810    -2263743.04749  -1762965.44749  24027367.0804   24027371.2724
  21731564.595    -3585989.10549  -2793511.30849  21731564.0514   21731569.0314
  25687962.330    -3429236.04649  -2465794.14249  25687960.4354   25687968.4484
  20922147.876    -1652956.18949  -1287146.79649  20922147.1694   20922151.5584
  24222100.913    -8519766.46649  -6554637.69149  24222100.7794   24222106.1644
  23550897.049    -9638718.27349  -7347279.23449  23550896.4944   23550900.5234
  23750741.086    16034310.52149  12479880.52549  23750740.2454   23750747.6994
  23355857.925   -10662270.50449  -8216311.38149  23355856.5574   23355862.3614
 98  2  3 18  7  0.0020000  0  9 10  3 19  2 18 27 13 16 31
  25516013.470    -2483845.94749  -1920631.99249  25516011.3834   25516020.1424
  24030920.235    -2245070.22149  -1748415.23249  24030919.6804   24030925.5234
  21729131.401    -3598775.66649  -2803474.88949  21729130.8464   21729135.8714
  25673423.060    -3505639.88349  -2525329.52449  25673422.3604   25673429.6484
  20925748.087    -1634036.96949  -1272404.57249  20925747.4074   20925751.9424
  24212018.406    -8572750.51549  -6595923.96249  24212017.6794   24212023.8464
  23536624.506    -9713720.77549  -7405722.74849  23536624.5444   23536628.6034
  23772065.994    16146373.11749  12567201.94549  23772065.5914   23772072.0624
  23345580.901   -10716276.58149  -8258394.02749  23345580.1814   23345585.4034
 98  2  3 18  7 30.0020000  0  9 10  3 19  2 18 27 13 16 31
  25506003.363    -2536449.64449  -1961621.88049  25506001.1934   25506009.3644
  24034577.280    -2225851.85249  -1733439.92149  24034577.1484   24034582.5594
  21726731.496    -3611387.29949  -2813302.15049  21726730.9174   21726735.9224
  25658906.552    -3581924.31649  -2584771.87649  25658905.5394   25658912.0684
  20929435.255    -1614660.71049  -1257306.20249  20929434.6144   20929438.8784
  24201941.744    -8625703.57549  -6637186.06649  24201940.9054   24201946.8664
  23522371.804    -9788619.14549  -7464085.10849  23522371.6614   23522375.3824
  23793421.429    16258596.58249  12654648.71349  23793420.7084   23793427.7614
  23335369.925   -10769935.98549  -8300206.53049  23335369.7604   23335374.0564
 98  2  3 18  8  0.0020000  0  9 10  3 19  2 18 27 13 16 31
  25496068.670    -2588656.64649  -2002302.65749  25496067.0304   25496074.5714
  24038336.928    -2206095.04849  -1718045.06149  24038336.0664   24038341.9964
  21724363.000    -3623834.14349  -2823001.01549  21724362.2574   21724367.2184
  25644411.753    -3658094.89749  -2644125.52449  25644410.9344   25644416.9564
  20933212.082    -1594813.37049  -1241840.76649  20933211.5794   20933215.8684
  24191871.255    -8678624.27749  -6678422.97349  24191870.3374   24191876.4874
  23508139.167    -9863412.06849  -7522365.31449  23508138.9244   23508142.8234
  23814806.027    16370973.01549  12742214.67749  23814805.2634   23814812.9084
  23325223.046   -10823258.89549  -8341756.84349  23325221.8754   23325227.1454
 98  2  3 18  8 30.0020000  0  9 10  3 19  2 18 27 13 16 31
  25486210.625    -2640461.43849  -2042670.02549  25486208.4454   25486216.1044
  24042195.810    -2185816.63049  -1702243.72149  24042194.7854   24042201.3924
  21722026.137    -3636114.52449  -2832570.16749  21722025.5854   21722030.5944
  25629936.024    -3734165.51949  -2703401.25949  25629935.0654   25629942.2234
  20937083.267    -1574470.32549  -1225989.06249  20937082.6494   20937087.1434
  24181806.143    -8731516.58549  -6719637.74749  24181805.0454   24181811.5304
  23493926.332    -9938101.11149  -7580564.57149  23493925.6744   23493930.8124
  23836218.787    16483497.96249  12829896.37749  23836218.0604   23836225.1534
  23315139.300   -10876249.14849  -8383047.92549  23315138.1764   23315143.4234
 98  2  3 18  9  0.0020000  0  9 10  3 19  2 18 27 13 16 31
  25476424.617    -2691886.71449  -2082741.66149  25476423.3694   25476429.8504
  24046150.050    -2165037.27249  -1686052.03849  24046149.4674   24046155.0274
  21719714.092    -3648264.56449  -2842037.74949  21719713.4654   21719718.3664
  25615477.294    -3810146.32849  -2762607.04549  25615476.6154   25615483.1484
  20941046.221    -1553645.18449  -1209761.69849  20941045.6664   20941050.0264
  24171743.134    -8784398.13349  -6760844.14249  24171741.7914   24171748.2454
  23479729.854   -10012704.26849  -7638696.88349  23479729.9614   23479734.9254
  23857654.761    16596144.64849  12917672.93649  23857653.7004   23857661.4564
  23305115.593   -10928923.74749  -8424093.04749  23305114.9754   23305119.7764
 98  2  3 18  9 30.0020000  0  9 10  3 19  2 18 27 13 16 31
  25466712.028    -2742926.81749  -2122513.17249  25466709.7944   25466718.0694
  24050199.984    -2143755.05949  -1669468.55649  24050200.1134   24050205.9744
  21717423.350    -3660302.71549  -2851418.14949  21717422.8414   21717427.8494
  25601038.598    -3886021.82349  -2821730.74949  25601036.8114   25601045.6014
  20945101.323    -1532335.86349  -1193157.05649  20945100.7184   20945105.2464
  24161684.059    -8837259.00549  -6802034.43049  24161682.9754   24161689.1034
  23465553.474   -10087201.76749  -7696746.89349  23465553.7354   23465557.2204
  23879113.504    16708910.59649  13005542.41949  23879112.0954   23879119.5214
  23295156.633   -10981258.14049  -8464873.09149  23295155.3604   23295161.3664
 98  2  3 18 10  0.0020000  0  9 10  3 19  2 18 27 13 16 31
  25457068.750    -2793602.44449  -2162000.67249  25457066.7294   25457075.9924
  24054338.636    -2122006.25749  -1652521.48549  24054338.6584   24054343.1454
  21715152.613    -3672235.62349  -2860716.53649  21715152.0934   21715157.0384
  25586617.677    -3961803.94049  -2880781.68549  25586615.5354   25586621.2754
  20949246.605    -1510552.33949  -1176182.89749  20949245.9194   20949250.3974
  24151624.928    -8890120.02349  -6843224.82849  24151624.1594   24151629.9424
  23451395.278   -10161603.72649  -7754722.42649  23451395.1974   23451399.2024
  23900591.850    16821779.71649  13093492.30449  23900590.6954   23900597.5354
  23285261.773   -11033255.85349  -8505390.78149  23285260.8294   23285266.9684
 98  2  3 18 10 30.0020000  0  9 10  3 19  2 18 27 13 16 31
  25447495.360    -2843910.21949  -2201201.53849  25447494.7164   25447501.3504
  24058567.550    -2099783.12249  -1635204.82049  24058565.6724   24058573.2784
  21712903.370    -3684055.62749  -2869926.95449  21712902.9004   21712908.0094
  25572214.406    -4037492.90249  -2939760.05949  25572213.8654   25572219.9014
  20953481.691    -1488296.78749  -1158840.93149  20953481.0874   20953485.4804
  24141568.418    -8942967.50949  -6884404.68949  24141567.8604   24141574.0604
  23437254.648   -10235913.55249  -7812626.18149  23437254.2274   23437258.5444
  23922090.222    16934753.92649  13181524.07749  23922089.6824   23922095.1404
  23275436.311   -11084889.08749  -8545624.46149  23275435.3114   23275440.9504
 98  2  3 18 11  0.0020000  0  9 10  3 19  2 18 27 13 16 31
  25437995.179    -2893834.49049  -2240103.55149  25437993.6034   25438001.6454
  24062890.874    -2077063.68049  -1617501.36049  24062890.7474   24062895.9884
  21710675.964    -3695760.80349  -2879047.89349  21710675.4724   21710680.5794
  25557831.064    -4113077.70849  -2998657.27849  25557829.4034   25557837.7974
  20957804.494    -1465580.17449  -1141139.69749  20957803.7644   20957808.0474
  24131516.461    -8995791.08549  -6925565.92049  24131515.4294   24131521.7284
  23423133.017   -10310123.21249  -7870451.88049  23423132.7134   23423137.4194
  23943610.617    17047843.84049  13269646.01449  23943609.9244   23943616.3134
  23265683.935   -11136138.13749  -8585558.77949  23265683.3934   23265688.5304
 98  2  3 18 11 30.0020000  0  9 10  3 19  2 18 27 13 16 31
  25428563.929    -2943395.79949  -2278722.74349  25428562.4034   25428570.2184
  24067304.269    -2053871.19049  -1599429.32849  24067302.9134   24067310.7474
  21708471.081    -3707347.56749  -2888076.56349  21708470.5594   21708475.5864
  25543463.493    -4188579.52449  -3057489.80849  25543461.5804   25543469.3534
  20962210.459    -1442426.69949  -1123098.04849  20962209.8144   20962214.0574
  24121466.470    -9048604.01449  -6966718.85649  24121465.8474   24121471.9664
  23409028.389   -10384243.38749  -7928207.86249  23409028.4974   23409032.7124
  23965150.681    17161036.90249  13357848.32149  23965150.9714   23965156.7594
  23256001.426   -11187019.77749  -8625206.80049  23256000.2164   23256006.3084
 98  2  3 18 12  0.0020000  0  9 10  3 19  2 18 27 13 16 31
  25419204.081    -2992581.75149  -2317049.43049  25419202.6724   25419210.6784
  24071809.350    -2030197.32649  -1580982.19649  24071808.5244   24071814.9974
  21706294.830    -3718784.05449  -2896988.13849  21706294.2754   21706299.2124
  25529114.358    -4263984.38949  -3116246.80649  25529113.0034   25529121.2964
  20966702.650    -1418820.16449  -1104703.36849  20966701.9944   20966706.3574
  24111418.990    -9101404.20649  -7007861.87749  24111417.5534   24111424.3294
  23394942.438   -10458265.56049  -7985887.47749  23394942.0894   23394946.2454
  23986712.242    17274343.01649  13446138.70349  23986711.4154   23986718.1714
  23246388.278   -11237537.32349  -8664571.12549  23246387.1614   23246392.2454
 98  2  3 18 12 30.0030000  0  9 10  3 19  2 18 27 13 16 31
  25409913.568    -3041403.49949  -2355092.34749  25409912.5844   25409919.6604
  24076408.554    -2006029.06049  -1562149.81949  24076408.0904   24076413.0824
  21704144.602    -3730083.37549  -2905792.82849  21704143.9244   21704149.2294
  25514784.482    -4339287.77649  -3174924.69549  25514783.0734   25514792.2704
  20971277.981    -1394776.69749  -1085968.21649  20971277.3974   20971281.8334
  24101371.367    -9154205.01149  -7049005.35949  24101370.5184   24101376.3514
  23380874.591   -10532192.54849  -8043492.91549  23380874.3574   23380877.9534
  24008291.646    17387742.91749  13534502.18349  24008291.1364   24008297.4314
  23236841.575   -11287705.68449  -8703663.34949  23236840.4204   23236845.8184
 98  2  3 18 13  0.0030000  0  9 10  3 19  2 18 27 13 16 31
  25400693.649    -3089854.71549  -2392846.54249  25400692.4374   25400700.0014
  24081102.123    -1981364.45149  -1542930.68449  24081101.1914   24081108.1224
  21702020.396    -3741246.46049  -2914491.35649  21702019.7444   21702024.9074
  25500476.947    -4414473.51049  -3233510.88349  25500475.7184   25500483.4894
  20975937.945    -1370288.59849  -1066886.59949  20975937.4314   20975941.8244
  24091321.508    -9207017.60449  -7090158.03249  24091321.3854   24091326.5054
  23366827.462   -10606010.68749  -8101013.54749  23366827.4624   23366831.3464
  24029888.639    17501234.93849  13622937.45049  24029887.2554   24029893.6464
  23227358.864   -11337537.68349  -8742493.48249  23227358.0454   23227363.6544
 98  2  3 18 13 30.0030000  0  9 10  3 19  2 18 27 13 16 31
  25391544.972    -3137931.58649  -2430309.03649  25391544.3304   25391551.0354
  24085890.066    -1956203.81949  -1523325.01249  24085888.8764   24085893.0194
  21699922.265    -3752272.28849  -2923082.93749  21699921.7074   21699926.6824
  25486192.884    -4489535.78349  -3292000.87649  25486191.7474   25486199.7584
  20980687.391    -1345330.24849  -1047438.55649  20980686.8034   20980691.1614
  24081269.109    -9259843.52849  -7131321.10249  24081268.4154   24081273.7444
  23352800.793   -10679721.43549  -8158450.49149  23352800.9524   23352805.1644
  24051505.346    17614830.83949  13711453.65749  24051504.2704   24051510.7854
  23217939.556   -11387036.49349  -8781063.99149  23217938.5064   23217944.0644
 98  2  3 18 14  0.0030000  0  9 10  3 19  2 18 27 13 16 31
  25382468.241    -3185630.52249  -2467477.04749  25382467.0944   25382473.9154
  24090773.697    -1930540.39349  -1503327.60049  24090773.0954   24090778.4504
  21697846.050    -3763182.98249  -2931584.79749  21697845.6444   21697850.5904
  25471931.920    -4564477.51449  -3350396.93649  25471930.9194   25471939.0894
  20985524.476    -1319911.17349  -1027631.50049  20985523.8044   20985528.2834
  24071211.811    -9312695.05149  -7172504.11049  24071210.3484   24071216.9014
  23338792.502   -10753335.68849  -8215812.23849  23338792.5504   23338796.9144
  24073140.351    17728523.07449  13800044.91949  24073139.9024   24073145.3244
  23208583.491   -11436202.41949  -8819375.10549  23208581.9534   23208588.4674
 98  2  3 18 14 30.0030000  0  9 10  3 19  2 18 27 13 16 31
  25373464.775    -3232944.58349  -2504345.13749  25373462.9474   25373470.6354
  24095753.410    -1904372.05949  -1482936.72849  24095752.2584   24095758.7474
  21695790.214    -3773986.62649  -2940003.24349  21695789.6674   21695794.7584
  25457693.771    -4639299.34449  -3408699.55849  25457692.5764   25457700.0674
  20990448.894    -1294033.39849  -1007467.02049  20990448.1954   20990452.7154
  24061151.335    -9365563.30149  -7213700.14449  24061150.5424   24061156.4214
  23324803.347   -10826849.40449  -8273095.65449  23324803.1854   23324807.1454
  24094793.264    17842310.17749  13888710.11249  24094792.2324   24094799.1554
  23199292.139   -11485028.73749  -8857421.60149  23199290.9654   23199296.8164
 98  2  3 18 15  0.0030000  0  9 10  3 19  2 18 27 13 16 31
  25364538.354    -3279853.21249  -2540897.31149  25364537.5564   25364543.8154
  24100829.067    -1877699.52549  -1462152.98049  24100828.6444   24100834.1694
  21693757.902    -3784666.61949  -2948325.33949  21693757.4344   21693762.5584
  25443477.446    -4714006.58249  -3466912.89349  25443476.6884   25443484.2474
  20995463.075    -1267683.55949   -986934.69849  20995462.4644   20995466.8844
  24051091.840    -9418426.17949  -7254891.99949  24051090.7364   24051097.3024
  23310834.960   -10900253.99749  -8330294.03049  23310834.4154   23310839.1984
  24116464.388    17956192.68349  13977449.64549  24116463.4204   24116470.1004
  23190067.406   -11533505.08849  -8895195.39049  23190066.4414   23190072.1394
 98  2  3 18 15 30.0030000  0  9 10  3 19  2 18 27 13 16 31
  25355687.473    -3326365.27649  -2577140.48449  25355686.3344   25355693.5704
  24105998.906    -1850532.02049  -1440983.54049  24105998.4454   24106003.2064
  21691748.774    -3795224.67549  -2956552.42249  21691748.2854   21691753.4064
  25429281.484    -4788607.11649  -3525043.07649  25429280.4354   25429287.4714
  21000562.545    -1240885.73449   -966053.29749  21000562.1734   21000566.6944
  24041034.831    -9471276.00049  -7296073.68049  24041034.6184   24041039.8204
  23296886.126   -10973555.48549  -8387412.07849  23296885.8224   23296889.5134
  24138147.765    18070139.76749  14066239.49549  24138146.5694   24138153.7584
  23180910.526   -11581624.92749  -8932691.36749  23180910.0904   23180915.4664
 98  2  3 18 16  0.0030000  0  9 10  3 19  2 18 27 13 16 31
  25346910.725    -3372487.11749  -2613079.58449  25346909.6704   25346916.3384
  24111262.032    -1822874.01649  -1419431.89049  24111261.7814   24111267.2474
  21689764.984    -3805649.82249  -2964675.93949  21689764.3194   21689769.4844
  25415103.801    -4863111.21149  -3583098.11049  25415102.5314   25415109.5664
  21005743.605    -1213659.28349   -944837.90249  21005742.9474   21005747.4514
  24030981.922    -9524104.51249  -7337238.75649  24030981.2884   24030986.2254
  23282958.487   -11046745.69049  -8444443.41249  23282957.9444   23282963.1294
  24159839.598    18184131.63549  14155064.24549  24159838.1724   24159845.9174
  23171822.926   -11629380.94949  -8969903.85349  23171822.0014   23171827.0014
 98  2  3 18 16 30.0030000  0  9 10  3 19  2 18 27 13 16 31
  25338206.066    -3418230.47049  -2648723.75749  25338205.1964   25338212.8394
  24116613.939    -1794749.72349  -1397516.89849  24116613.9464   24116618.7584
  21687806.497    -3815941.80849  -2972695.69549  21687806.0144   21687810.9284
  25400939.289    -4937546.01949  -3641099.15549  25400938.1764   25400945.3814
  21011004.383    -1186013.97549   -923296.12349  21011003.5854   21011007.8734
  24020932.384    -9576915.08349  -7378389.85349  24020931.5554   24020937.4604
  23269050.316   -11119833.50449  -8501394.95949  23269049.8524   23269054.2234
  24181536.246    18298148.68849  14243908.61849  24181535.2024   24181542.3894
  23162802.820   -11676781.92649  -9006839.68649  23162801.8464   23162807.0104
 98  2  3 18 17  0.0030000  0  9 10  3 19  2 18 27 13 16 31
  25329574.539    -3463589.08249  -2684068.15449  25329573.1214   25329580.0734
  24122057.277    -1766145.02949  -1375227.56949  24122055.9584   24122062.5784
  21685875.403    -3826089.96149  -2980603.37649  21685874.9314   21685880.0714
  25386789.982    -5011901.06049  -3699038.06449  25386788.3624   25386796.1934
  21016346.849    -1157938.98249   -901419.53049  21016346.2164   21016350.5264
  24010887.784    -9629699.96149  -7419520.93249  24010886.6794   24010892.3984
  23255162.163   -11192815.99749  -8558264.43449  23255162.0864   23255166.2374
  24203239.848    18412202.35249  14332781.51149  24203237.6574   24203246.6804
  23153854.327   -11723806.69849  -9043482.36449  23153853.5814   23153859.4284
 98  2  3 18 17 30.0030000  0  9 10  3 19  2 18 27 13 16 31
  25321013.109    -3508579.92249  -2719125.97049  25321012.3984   25321019.1984
  24127587.742    -1737082.42449  -1352581.42149  24127588.2084   24127593.2324
  21683966.292    -3836122.43049  -2988420.90849  21683965.6134   21683970.4894
  25372654.364    -5086183.93049  -3756920.72449  25372653.4484   25372660.2024
  21021768.343    -1129448.94049   -879219.52049  21021767.7834   21021772.0434
  24000841.715    -9682492.24349  -7460657.77149  24000841.0834   24000846.5574
  23241291.522   -11265706.81349  -8615062.47449  23241290.8394   23241295.3174
  24224948.561    18526282.87849  14421675.33049  24224948.4774   24224954.6794
  23144976.418   -11770460.75549  -9079836.18849  23144975.6774   23144980.9084
 98  2  3 18 18  0.0030000  0  9 10  3 19  2 18 27 13 16 31
  25312525.713    -3553181.67749  -2753880.60449  25312524.3744   25312530.7954
  24133209.047    -1707542.70849  -1329563.48749  24133208.0884   24133213.3474
  21682082.319    -3846022.99049  -2996135.64749  21682081.6874   21682086.6974
  25358535.961    -5160376.23749  -3814732.80049  25358535.0814   25358541.6214
  21027275.451    -1100509.05749   -856668.98549  21027275.0304   21027279.2834
  23990795.762    -9735284.06449  -7501794.26549  23990794.8584   23990800.5514
  23227443.917   -11338476.35749  -8671766.01649  23227443.8754   23227447.5874
  24246668.938    18640424.06549  14510616.44049  24246668.5314   24246674.3894
  23136172.917   -11816723.33049  -9115884.94649  23136172.0014   23136177.3664
 98  2  3 18 18 30.0030000  0  9 10  3 19  2 18 27 13 16 31
  25304109.589    -3597408.47949  -2788343.06749  25304108.3904   25304116.7654
  24138916.924    -1677547.62949  -1306190.74949  24138916.7964   24138922.1904
  21680215.803    -3855831.67949  -3003778.80249  21680215.0594   21680220.2104
  25344433.998    -5234482.10749  -3872477.54349  25344432.3954   25344440.3974
  21032866.950    -1071125.48149   -833772.71949  21032866.4604   21032870.8664
  23980742.838    -9788112.08349  -7542958.94449  23980742.0084   23980747.8144
  23213613.679   -11411154.66549  -8728398.46949  23213613.1304   23213617.6974
  24268397.225    18754606.40549  14599589.60249  24268396.4994   24268403.3344
  23127438.997   -11862620.05549  -9151648.63749  23127438.4184   23127443.8524
 98  2  3 18 19  0.0030000  0  9 10  3 19  2 18 27 13 16 31
  25295770.593    -3641230.36249  -2822490.02149  25295769.3334   25295776.2614
  24144715.054    -1647078.32749  -1282448.45649  24144713.9424   24144720.1924
  21678369.613    -3865533.54749  -3011338.71749  21678369.0874   21678374.0504
  25330355.099    -5308466.82749  -3930127.89549  25330354.0814   25330360.9864
  21038548.870    -1041266.91349   -810506.32349  21038548.3964   21038552.7594
  23970685.312    -9840964.54549  -7584142.68549  23970684.2414   23970690.2124
  23199807.714   -11483705.31049  -8784931.43349  23199807.7474   23199812.2374
  24290137.771    18868853.24049  14688613.03049  24290137.5984   24290143.9824
  23118778.678   -11908130.38449  -9187111.22649  23118777.7134   23118782.8864
 98  2  3 18 19 30.0030000  0  9 10  3 19  2 18 27 13 16 31
  25287509.328    -3684643.87649  -2856318.73549  25287508.0724   25287516.0354
  24150603.345    -1616134.85549  -1258336.70449  24150603.7554   24150609.4494
  21676545.097    -3875121.44149  -3018809.82349  21676544.3414   21676549.4074
  25316300.294    -5382325.03749  -3987679.67549  25316299.1814   25316306.2504
  21044322.497    -1010926.50849   -786864.47349  21044321.7994   21044326.4304
  23960623.042    -9893842.43949  -7625346.24549  23960622.0074   23960628.4744
  23186029.083   -11556112.37849  -8841352.51549  23186028.2074   23186032.9634
  24311890.529    18983163.76449  14777686.08449  24311889.8494   24311897.1824
  23110191.375   -11953256.88549  -9222274.75049  23110190.7884   23110195.9664
 98  2  3 18 20  0.0030000  0  9 10  3 19  2 18 27 13 16 31
  25279323.933    -3727658.30349  -2889836.48449  25279323.3194   25279330.7924
  24156582.706    -1584713.02249  -1233852.19949  24156582.2764   24156588.2844
  21674743.070    -3884591.19249  -3026188.87649  21674742.7684   21674747.5704
  25302267.174    -5456068.82049  -4045142.30949  25302265.4464   25302273.2814
  21050187.931     -980103.50949   -762846.57949  21050187.3594   21050191.8694
  23950556.719    -9946741.29649  -7666566.14149  23950555.5154   23950561.3284
  23172276.144   -11628384.59149  -8897668.53349  23172276.6974   23172280.2374
  24333655.534    19097538.36749  14866809.07649  24333654.7514   24333661.0764
  23101676.173   -11998004.24849  -9257142.83049  23101674.7334   23101680.7304
 98  2  3 18 20 30.0030000  0  9 10  3 19  2 18 27 13 16 31
  25271214.068    -3770275.52849  -2923044.74249  25271212.2544   25271219.2554
  24162653.771    -1552809.28249  -1208992.17849  24162653.6134   24162658.9884
  21672964.073    -3893940.01249  -3033473.68749  21672963.5604   21672968.5994
  25288257.568    -5529689.32949  -4102508.89449  25288256.3244   25288263.5874
  21056143.732     -948805.63149   -738458.65049  21056143.2454   21056147.8014
  23940488.936    -9999647.85949  -7707792.04949  23940488.2454   23940494.5184
  23158548.961   -11700521.63649  -8953879.22649  23158549.5304   23158553.1404
  24355430.851    19211967.39349  14955974.46549  24355430.1774   24355437.0484
  23093234.367   -12042366.66649  -9291710.95149  23093233.9874   23093238.7804
 98  2  3 18 21  0.0030000  0  9 10  3 19  2 18 27 13 16 31
  25263174.142    -3812525.24349  -2955966.61549  25263172.3604   25263180.2204
  24168815.246    -1520430.69749  -1183762.16849  24168814.2584   24168820.4894
  21671207.011    -3903173.53349  -3040668.65749  21671206.2964   21671211.3744
  25274267.825    -5603205.55849  -4159794.19849  25274266.3594   25274274.1864
  21062183.852     -917064.70649   -713725.49049  21062183.2244   21062187.6754
  23930417.885   -10052571.53649  -7749031.29249  23930416.8974   23930422.9084
  23144846.935   -11772526.49849  -9009986.91449  23144846.6464   23144850.6044
  24377214.103    19326438.22849  15045172.42449  24377213.3964   24377219.7054
  23084865.272   -12086346.85149  -9325981.23049  23084864.6814   23084869.9294
 98  2  3 18 21 30.0030000  0  9 10  3 19  2 18 27 13 16 31
  25255203.587    -3854411.13249  -2988604.99449  25255203.2774   25255209.1624
  24175069.201    -1487566.13249  -1158153.46749  24175068.9784   24175074.2534
  21669470.311    -3912299.85049  -3047780.08649  21669469.6584   21669474.8734
  25260298.368    -5676614.35749  -4216995.80749  25260296.6614   25260304.8054
  21068306.719     -884888.90449   -688653.46749  21068306.3054   21068310.6744
  23920345.361   -10105502.91249  -7790276.53949  23920344.8304   23920350.7544
  23131166.604   -11844417.23949  -9066005.68649  23131166.7264   23131170.7904
  24399003.486    19440941.84649  15134395.90749  24399002.5224   24399009.2114
  23076570.454   -12129936.73449  -9359947.37549  23076569.4234   23076575.1744
 98  2  3 18 22  0.0030000  0  9 10  3 19  2 18 27 13 16 31
  25247303.864    -3895924.56149  -3020953.15049  25247302.6964   25247310.0334
  24181416.124    -1454213.24649  -1132164.24849  24181415.6144   24181421.7034
  21667752.742    -3921325.92549  -3054813.41249  21667752.0274   21667757.3254
  25246348.666    -5749920.24749  -4274117.25349  25246346.3884   25246355.4184
  21074511.371     -852283.22349   -663246.47049  21074510.7804   21074515.3564
  23910271.462   -10158441.75249  -7831527.58849  23910271.4444   23910276.8944
  23117504.218   -11916213.59249  -9121950.90549  23117503.7754   23117508.3074
  24420795.529    19555459.33549  15223630.20949  24420794.9154   24420801.3584
  23068350.086   -12173135.39949  -9393608.67549  23068348.9644   23068354.4224
 98  2  3 18 22 30.0030000  0  9 10  3 19  2 18 27 13 16 31
  25239478.174    -3937049.12149  -3052998.28049  25239476.8244   25239484.9474
  24187856.822    -1420367.32249  -1105790.82949  24187856.5054   24187862.2504
  21666055.731    -3930243.73649  -3061762.37449  21666054.9924   21666060.2914
  25232423.226    -5823099.21549  -4331139.80449  25232423.0074   25232429.4074
  21080796.758     -819253.49849   -637509.05249  21080796.2584   21080800.7254
  23900196.957   -10211384.02749  -7872781.32849  23900196.5284   23900202.4074
  23103861.708   -11987905.56349  -9177814.78149  23103861.3604   23103865.6524
  24442588.180    19669979.85249  15312866.85749  24442587.6994   24442593.7894
  23060206.294   -12215931.13949  -9426956.01149  23060205.5824   23060211.0694
 98  2  3 18 23  0.0030000  0  9 10  3 19  2 18 27 13 16 31
  25231730.701    -3977762.14549  -3084722.73849  25231729.1974   25231737.4224
  24194391.727    -1386026.26849  -1079031.60649  24194390.9024   24194397.9064
  21664379.727    -3939051.39349  -3068625.50549  21664379.2724   21664384.3194
  25218521.319    -5896154.23649  -4388065.76049  25218519.9824   25218527.1274
  21087164.609     -785790.33549   -611433.89449  21087164.1204   21087168.5774
  23890120.828   -10264334.55249  -7914041.49549  23890119.7244   23890126.0124
  23090238.446   -12059496.38749  -9233599.85249  23090238.2514   23090242.5224
  24464382.102    19784507.58949  15402109.15349  24464381.1414   24464387.7904
  23052138.366   -12258328.27149  -9459992.74849  23052137.4474   23052143.0834
 98  2  3 18 23 30.0030000  0  9 10  3 19  2 18 27 13 16 31
  25224066.564    -4018036.87849  -3116105.65449  25224065.0934   25224071.6434
  24201018.903    -1351200.20149  -1051894.46449  24201018.6234   24201024.8874
  21662726.601    -3947738.61749  -3075394.78849  21662725.9174   21662731.3644
  25204643.519    -5969082.66049  -4444893.07349  25204642.1094   25204649.3314
  21093617.801     -751878.94149   -585009.46649  21093617.2434   21093621.5964
  23880044.397   -10317286.64849  -7955302.88449  23880043.8204   23880049.7194
  23076633.669   -12130989.81249  -9289309.01349  23076633.6994   23076637.3594
  24486175.568    19899032.79149  15491349.47049  24486174.7944   24486181.0074
  23044146.598   -12300325.04349  -9492717.50649  23044145.5204   23044151.0754
 98  2  3 18 24  0.0030000  0  9 10  3 19  2 18 27 13 16 31
  25216483.392    -4057886.94249  -3147157.66249  25216482.6524   25216489.3464
  24207733.710    -1315913.68749  -1024398.53749  24207733.0754   24207739.1004
  21661098.315    -3956295.16549  -3082062.24449  21661097.6544   21661102.8204
  25190789.104    -6041888.27149  -4501624.70149  25190788.7904   25190795.8074
  21100153.297     -717534.71849   -558247.76449  21100152.7784   21100157.3544
  23869964.047   -10370259.36849  -7996580.34949  23869963.1484   23869968.8294
  23063049.073   -12202377.19949  -9344935.55449  23063048.8144   23063052.5474
  24507967.028    20013547.76949  15580581.81649  24507965.7484   24507973.9834
  23036229.541   -12341929.51849  -9525136.58149  23036228.3314   23036234.2654
 98  2  3 18 24 30.0030000  0  9 10  3 19  2 18 27 13 16 31
  25208975.840    -4097339.64049  -3177900.04749  25208974.0204   25208981.2714
  24214531.083    -1280193.38049   -996564.59649  24214531.1394   24214537.3554
  21659491.458    -3964739.11549  -3088641.96549  21659490.7074   21659495.8834
  25176954.294    -6114591.03849  -4558276.17049  25176952.5884   25176961.6414
  21106767.643     -682776.18549   -531163.22649  21106767.0394   21106771.6614
  23859877.341   -10423265.52249  -8037883.86649  23859876.8714   23859882.5124
  23049485.968   -12273651.90249  -9400474.28049  23049485.7834   23049490.3584
  24529757.064    20128055.19949  15669808.27049  24529756.5234   24529763.3704
  23028383.915   -12383158.46449  -9557263.03949  23028382.8524   23028388.6204
 98  2  3 18 25  0.0030000  0  9 10  3 19  2 18 27 13 16 31
  25201546.509    -4136380.59849  -3208321.59349  25201544.8644   25201553.1204
  24221413.429    -1244026.65749   -968382.80149  24221412.6954   24221419.6164
  21657910.999    -3973044.54149  -3095113.74849  21657910.4714   21657915.6994
  25163138.282    -6187194.23149  -4614850.05849  25163136.7434   25163143.8134
  21113466.173     -647575.20249   -503733.92349  21113465.3024   21113470.0184
  23849787.543   -10476288.01949  -8079200.11649  23849786.4864   23849792.7604
  23035949.287   -12344787.58549  -9455904.68549  23035948.7754   23035953.1924
  24551550.115    20242578.19449  15759046.86249  24551549.1864   24551556.2014
  23020613.033   -12423994.54949  -9589083.37349  23020612.2624   23020617.6184
 98  2  3 18 25 30.0030000  0  9 10  3 19  2 18 27 13 16 31
  25194187.624    -4175051.75749  -3238454.97249  25194187.1174   25194193.7704
  24228376.060    -1207438.02349   -939872.23549  24228375.1954   24228381.9924
  21656354.317    -3981225.21149  -3101488.31649  21656353.7984   21656359.1254
  25149335.052    -6259730.49149  -4671371.78449  25149333.5494   25149341.8074
  21120244.538     -611954.52549   -475977.58649  21120243.9394   21120248.4034
  23839691.839   -10529341.48149  -8120540.49249  23839691.2154   23839697.0474
  23022436.035   -12415800.11249  -9511239.12149  23022436.0194   23022440.1424
  24573341.842    20357094.92949  15848280.57349  24573339.9614   24573348.6074
  23012914.348   -12464451.71049  -9620608.43549  23012913.7414   23012918.7224
 98  2  3 18 26  0.0030000  0  9 10  3 19  2 18 27 13 16 31
  25186903.903    -4213328.39749  -3268280.93949  25186902.9404   25186909.8214
  24235429.417    -1170372.69149   -910990.21649  24235428.7724   24235434.9954
  21654826.501    -3989253.89149  -3107744.44849  21654825.8464   21654831.0914
  25135549.788    -6332172.09349  -4727819.75549  25135548.5824   25135556.3734
  21127111.058     -575870.80949   -447860.43349  21127110.4164   21127115.1694
  23829598.624   -10582381.68349  -8161870.53149  23829598.3724   23829603.2784
  23008955.051   -12486643.18849  -9566441.51549  23008954.9524   23008959.1254
  24595139.559    20471643.01449  15937538.72849  24595138.7404   24595145.7754
  23005294.685   -12504493.37149  -9651809.72649  23005293.4674   23005298.9964
 98  2  3 18 26 30.0030000  0  9 10  3 19  2 18 27 13 16 31
  25179690.049    -4251237.76349  -3297820.70649  25179688.6444   25179696.3764
  24242567.320    -1132862.88049   -881761.84349  24242566.9804   24242573.5914
  21653316.483    -3997189.24349  -3113927.85849  21653315.8214   21653320.9334
  25121773.992    -6404563.97449  -4784228.97749  25121772.5194   25121780.1554
  21134060.093     -539353.50949   -419405.42749  21134059.4554   21134064.1214
  23819502.284   -10635438.40049  -8203213.43349  23819501.6624   23819507.0754
  22995498.841   -12557356.10249  -9621542.47949  22995498.4684   22995503.0554
  24616933.713    20586172.35949  16026782.27649  24616933.0524   24616940.4724
  22997746.327   -12544160.03749  -9682718.81649  22997745.1724   22997751.1134
 98  2  3 18 27  0.0030000  0  9 10  3 19  2 18 27 13 16 31
  25172553.644    -4288739.69849  -3327043.00449  25172552.5054   25172560.3884
  24249799.347    -1094858.35649   -852147.98949  24249798.3944   24249804.9444
  21651829.807    -4005001.95749  -3120015.71249  21651829.3004   21651834.5244
  25108018.902    -6476846.70849  -4840553.14449  25108017.9514   25108025.1914
  21141098.872     -502364.70549   -390583.01549  21141098.4024   21141102.9984
  23809408.594   -10688481.13749  -8244545.45249  23809407.7404   23809413.1594
  22982072.744   -12627910.50449  -9676519.93249  22982072.3524   22982076.6144
  24638725.274    20700687.89649  16116015.06649  24638723.7364   24638732.9484
  22990276.962   -12583411.92549  -9713304.69749  22990275.7234   22990281.7584
 98  2  3 18 27 30.0030000  0  9 10  3 19  2 18 27 13 16 31
  25165490.998    -4325854.47149  -3355963.59349  25165489.8144   25165497.0124
  24257119.781    -1056389.41449   -822172.25549  24257118.6364   24257125.6124
  21650355.173    -4012751.30249  -3126054.18349  21650354.8314   21650359.8354
  25094283.376    -6549027.28549  -4896797.71249  25094282.3904   25094289.5434
  21148222.027     -464932.31049   -361414.94849  21148221.4114   21148226.0924
  23799311.106   -10741543.80549  -8285892.99949  23799310.5804   23799316.2634
  22968670.148   -12698341.70649  -9731401.38249  22968669.5614   22968673.8144
  24660506.008    20815147.09549  16205203.94149  24660505.3374   24660514.1234
  22982879.518   -12622285.88349  -9743596.08749  22982878.5844   22982884.5274
 98  2  3 18 28  0.0030000  0  9 10  3 19  2 18 27 13 16 31
  25158504.273    -4362569.98049  -3384573.07949  25158503.0314   25158510.8154
  24264525.382    -1017473.23749   -791848.02549  24264524.2894   24264531.2974
  21648887.774    -4020462.60149  -3132063.01149  21648887.2574   21648892.6144
  25080572.310    -6621079.56149  -4952942.30249  25080571.6824   25080578.4784
  21155427.259     -427068.64249   -331910.82849  21155426.8634   21155431.4614
  23789205.139   -10794650.70849  -8327275.02049  23789205.1764   23789210.7514
  22955291.478   -12768647.05749  -9786184.77449  22955291.4124   22955295.6064
  24682272.090    20929528.90649  16294332.48949  24682272.6084   24682279.9494
  22975552.864   -12660787.60349  -9773597.41949  22975552.0464   22975557.6644
 98  2  3 18 28 30.0030000  0  9 10  3 19  2 18 27 13 16 31
  25151598.988    -4398857.43149  -3412849.01549  25151598.8104   25151604.7984
  24272018.023     -978099.58149   -761167.30849  24272017.7524   24272023.5844
  21647433.697    -4028103.95249  -3138017.32849  21647433.2644   21647438.3684
  25066893.300    -6692963.16049  -5008955.45349  25066892.9014   25066899.4984
  21162717.403     -388759.02149   -302059.20949  21162716.9464   21162721.4444
  23779092.052   -10847795.26549  -8368686.37549  23779091.5274   23779097.5204
  22941941.285   -12838802.77249  -9840851.55749  22941941.3254   22941945.3114
  24704028.418    21043858.88049  16383420.66449  24704028.0674   24704035.7584
  22968302.999   -12698885.94549  -9803284.43449  22968302.4054   22968307.2884
 98  2  3 18 29  0.0030000  0  9 10  3 19  2 18 27 13 16 31
  25144775.765    -4434712.98249  -3440788.41249  25144774.2454   25144781.8834
  24279600.261     -938254.99749   -730119.62849  24279599.9834   24279605.5814
  21645997.783    -4035649.65449  -3143897.11149  21645997.1384   21646002.3324
  25053248.838    -6764665.39749  -5064827.29049  25053247.0384   25053255.3034
  21170094.154     -349994.01349   -271852.73749  21170093.4894   21170098.1204
  23768971.731   -10900977.82649  -8410127.34149  23768971.0744   23768976.4184
  22928621.533   -12908798.57249  -9895393.73549  22928621.1564   22928625.2684
  24725776.743    21158146.43049  16472475.75449  24725776.3614   24725784.6564
  22961132.090   -12736569.26649  -9832648.05749  22961131.2804   22961136.5124
 98  2  3 18 29 30.0030000  0  9 10  3 19  2 18 27 13 16 31
  25138033.556    -4470143.32449  -3468396.47849  25138031.7034   25138040.3144
  24287266.409     -897969.40249   -698728.30549  24287265.5864   24287271.7554
  21644580.890    -4043095.55549  -3149699.13249  21644580.4394   21644585.6904
  25039632.252    -6836220.56049  -5120584.53149  25039631.7544   25039638.4634
  21177554.737     -310788.32249   -241302.87849  21177554.1544   21177558.7724
  23758842.161   -10954209.34149  -8451606.46249  23758841.3264   23758847.3124
  22915331.602   -12978637.43649  -9949813.61449  22915331.4464   22915335.7934
  24747517.827    21272395.59349  16561500.94449  24747518.4194   24747525.7234
  22954040.361   -12773836.66649  -9861687.58149  22954039.8094   22954045.0294
 98  2  3 18 30  0.0030000  0  9 10  3 19  2 18 27 13 16 31
  25131365.294    -4505185.57249  -3495702.11549  25131364.5284   25131371.6244
  24295014.140     -857255.25149   -667003.02949  24295013.4224   24295020.1144
  21643182.951    -4050442.01149  -3155423.67249  21643182.4174   21643187.6544
  25026036.626    -6907666.10749  -5176256.35749  25026036.2564   25026043.2314
  21185092.967     -271174.71849   -210435.17149  21185092.4064   21185097.2034
  23748699.373   -11007509.89349  -8493139.38249  23748698.7184   23748705.0444
  22902069.129   -13048332.12149 -10004121.16449  22902068.5984   22902073.1834
  24769248.282    21386588.34449  16650482.17449  24769248.1264   24769256.1274
  22947026.169   -12810696.40949  -9890409.45349  22947025.0854   22947030.5114
 98  2  3 18 30 30.0030000  0  9 10  3 19  2 18 27 13 16 31
  25124771.646    -4539835.44649  -3522702.01249  25124770.8634   25124778.1774
  24302850.206     -816076.07849   -634915.40649  24302849.6374   24302856.0754
  21641809.383    -4057660.18049  -3161048.23749  21641808.8874   21641814.0654
  25012460.198    -6979011.14149  -5231849.84949  25012459.4654   25012466.4554
  21192711.829     -231137.54349   -179237.40449  21192711.2414   21192715.9654
  23738550.390   -11060843.38549  -8534697.96349  23738549.2144   23738555.9364
  22888836.894   -13117867.89549 -10058304.87749  22888836.8684   22888840.9304
  24790973.014    21500751.00349  16739439.95749  24790973.0964   24790980.9834
  22940094.180   -12847124.01049  -9918794.59549  22940093.1644   22940099.1074
 98  2  3 18 31  0.0030000  0  9 10  3 19  2 18 27 13 16 31
  25118249.887    -4574108.04149  -3549407.92449  25118248.8784   25118256.2374
  24310771.596     -774449.15249   -602478.88049  24310771.2934   24310777.3634
  21640454.798    -4064778.60049  -3166595.07549  21640454.2454   21640459.4734
  24998895.514    -7050293.76449  -5287394.71449  24998894.4264   24998901.3814
  21200407.140     -190698.37249   -147726.39549  21200406.7044   21200411.2004
  23728393.491   -11114218.15249  -8576288.69649  23728393.1754   23728398.6444
  22875631.201   -13187264.40649 -10112380.07949  22875631.0404   22875635.0344
  24812685.880    21614851.15849  16828349.04549  24812686.1954   24812693.5854
  22933240.702   -12883139.40449  -9946858.53849  22933239.6394   22933245.4794
 98  2  3 18 31 30.0030000  0  9 10  3 19  2 18 27 13 16 31
  25111803.079    -4607986.41849  -3575806.65549  25111802.7714   25111809.2054
  24318779.844     -732365.91049   -569686.80649  24318779.6794   24318785.8464
  21639120.373    -4071791.22149  -3172059.47949  21639119.9594   21639124.9514
  24985343.996    -7121506.72549  -5342885.30249  24985342.3374   24985350.8204
  21208181.423     -149844.47849   -115892.22949  21208180.8324   21208185.5544
  23718232.970   -11167612.18749  -8617894.45849  23718232.6394   23718237.9604
  22862453.975   -13256511.21249 -10166338.63049  22862453.8734   22862458.0564
  24834390.763    21728909.33049  16917225.41649  24834390.7194   24834397.9864
  22926470.142   -12918718.71349  -9974582.67549  22926469.3964   22926475.0154
 98  2  3 18 32  0.0030000  0  9 10  3 19  2 18 27 13 16 31
  25105431.503    -4641469.28749  -3601897.19949  25105430.4424   25105437.5574
  24326878.611     -689806.94449   -536524.00949  24326878.1834   24326884.1114
  21637808.449    -4078685.55049  -3177431.70549  21637807.9474   21637813.0254
  24971808.376    -7192636.73849  -5398311.26949  24971807.9074   24971814.6714
  21216036.138     -108567.94649    -83728.73949  21216035.6944   21216040.3244
  23708071.160   -11221013.02749  -8659505.50849  23708070.7244   23708076.4254
  22849304.972   -13325609.82949 -10220181.71249  22849304.8254   22849309.1014
  24856088.260    21842928.89449  17006071.68849  24856088.5584   24856094.8554
  22919782.884   -12953860.56949 -10001965.94449  22919781.8354   22919788.0744
 98  2  3 18 32 30.0030000  0  9 10  3 19  2 18 27 13 16 31
  25099138.106    -4674541.65449  -3627667.87949  25099137.2894   25099144.4574
  24335066.058     -646781.38549   -502997.64349  24335065.5754   24335072.0804
  21636519.544    -4085458.86849  -3182709.62849  21636518.9604   21636524.1654
  24958289.214    -7263680.64449  -5453670.14549  24958288.3764   24958295.7894
  21223972.746      -66861.03849    -51229.88149  21223972.2204   21223976.8694
  23697909.462   -11274413.14849  -8701116.00849  23697908.2104   23697914.1434
  22836182.857   -13394566.86449 -10273914.45749  22836182.3704   22836186.6184
  24877777.280    21956903.97549  17094883.31449  24877776.5044   24877784.3534
  22913178.150   -12988568.79349 -10029011.31049  22913177.4674   22913183.0044
 98  2  3 18 33  0.0030000  0  9 10  3 19  2 18 27 13 16 31
  25092927.653    -4707177.92249  -3653098.72749  25092927.3284   25092934.0074
  24343342.822     -603286.92649   -469105.90149  24343342.9044   24343349.3074
  21635257.948    -4092088.60749  -3187875.68149  21635257.3434   21635262.5324
  24944791.540    -7334611.11249  -5508940.63849  24944790.1614   24944796.6354
  21231996.403      -24696.53749    -18374.46549  21231995.6854   21232000.3734
  23687750.063   -11327801.11749  -8742717.04149  23687749.4124   23687755.0184
  22823090.523   -13463367.62449 -10327525.43149  22823090.6134   22823094.2724
  24899460.381    22070848.51849  17183671.12649  24899460.9124   24899468.1214
  22906658.802   -13022828.38349 -10055707.10249  22906657.9714   22906662.8924
 98  2  3 18 33 30.0030000  0  9 10  3 19  2 18 27 13 16 31
  25086800.269    -4739378.29949  -3678189.92649  25086799.2104   25086806.3464
  24351708.020     -559327.78449   -434852.08149  24351707.5344   24351713.6204
  21634025.606    -4098564.78049  -3192922.06749  21634025.2864   21634030.2324
  24931319.255    -7405408.05049  -5564107.08449  24931318.6274   24931326.5504
  21240108.738       17934.10449     14844.18449  21240108.0694   21240112.9484
  23677592.328   -11381180.65149  -8784311.50349  23677592.0544   23677597.5244
  22810028.138   -13532011.02349 -10381013.79449  22810028.1464   22810032.5894
  24921141.270    22184781.42749  17272449.88349  24921141.0334   24921146.9034
  22900224.449   -13056641.11949 -10082054.69349  22900223.4354   22900228.9384
 98  2  3 18 34  0.0030000  0  9 10  3 19  2 18 27 13 16 31
  25080756.956    -4771136.54849  -3702936.60949  25080756.1444   25080763.9504
  24360161.329     -514905.74749   -400237.56649  24360161.6514   24360167.1134
  21632821.056    -4104894.78649  -3197854.55849  21632820.4504   21632825.5784
  24917873.370    -7476066.20449  -5619165.39749  24917872.1864   24917880.2304
  21248309.871       61031.24049     48426.33449  21248309.3124   21248314.0074
  23667436.408   -11434550.65949  -8825898.54349  23667435.9854   23667440.8794
  22796998.441   -13600482.72749 -10434368.36749  22796998.3864   22797002.3954
  24942817.658    22298690.95749  17361210.41249  24942818.4864   24942823.4004
  22893874.233   -13090011.77549 -10108057.81149  22893873.2314   22893879.1164
 98  2  3 18 34 30.0030000  0  9 10  3 19  2 18 27 13 16 31
  25074797.369    -4802454.30049  -3727340.05049  25074795.4304   25074803.5574
  24368697.425     -470048.13749   -365283.62849  24368697.4324   24368702.9404
  21631638.853    -4111107.19149  -3202695.40449  21631638.3384   21631643.6384
  24904453.857    -7546586.31049  -5674116.14649  24904452.9064   24904460.6144
  21256599.011      104591.07949     82369.03749  21256598.2134   21256603.1334
  23657280.364   -11487921.12849  -8867485.93249  23657280.1264   23657285.3284
  22784002.423   -13668777.12949 -10487584.77849  22784002.3834   22784006.5094
  24964488.292    22412570.33149  17449947.45449  24964488.1444   24964493.4574
  22887607.267   -13122944.84849 -10133719.94649  22887606.5204   22887611.6044
 98  2  3 18 35  0.0030000  0  9 10  3 19  2 18 27 13 16 31
  25068921.155    -4833333.63149  -3751401.88849  25068919.5584   25068927.1414
  24377318.064     -424746.22449   -329983.49849  24377317.1554   24377324.6724
  21630477.252    -4117211.60049  -3207452.10749  21630476.6434   21630481.8214
  24891066.492    -7616937.55449  -5728935.31949  24891066.3934   24891072.8714
  21264977.801      148621.80149    116678.65249  21264977.3824   21264982.2054
  23647124.493   -11541290.72549  -8909072.64249  23647124.1774   23647129.2514
  22771044.239   -13736872.82749 -10540646.35349  22771043.8544   22771048.4614
  24986153.789    22526423.30749  17538663.92749  24986154.1154   24986159.5984
  22881425.572   -13155429.84049 -10159032.93349  22881424.4394   22881429.4204
 98  2  3 18 35 30.0030000  0  9 10  3 19  2 18 27 13 16 31
  25063126.754    -4863783.52649  -3775129.07349  25063125.5294   25063132.5634
  24386024.648     -378993.16849   -294331.82349  24386023.8174   24386030.8244
  21629333.623    -4123221.30749  -3212135.01049  21629333.1144   21629338.3644
  24877711.334    -7687120.20749  -5783623.13449  24877710.7894   24877718.0184
  21273443.422      193108.68549    151343.72049  21273442.8324   21273447.7144
  23636968.653   -11594660.03849  -8950659.13649  23636967.7184   23636973.8634
  22758126.907   -13804753.78549 -10593540.60049  22758126.6974   22758131.0554
  25007811.700    22640235.87849  17627348.92049  25007810.8834   25007818.3134
  22875330.149   -13187461.56149 -10183992.72949  22875329.8994   22875334.4114
 98  2  3 18 36  0.0030000  0  9 10  3 19  2 18 27 13 16 31
  25057414.491    -4893801.77249  -3798519.92849  25057413.4644   25057421.2114
  24394819.915     -332774.16349   -258317.07949  24394820.0874   24394826.1284
  21628206.610    -4129143.87949  -3216750.01049  21628205.9554   21628211.2714
  24864389.001    -7757130.16149  -5838176.37049  24864387.7734   24864394.9524
  21281995.421      238049.30049    186362.34349  21281995.0114   21281999.5994
  23626815.223   -11648016.79249  -8992235.83849  23626814.1974   23626820.3894
  22745254.023   -13872401.36149 -10646252.99649  22745253.8184   22745258.0224
  25029458.199    22753988.91149  17715987.51049  25029457.9074   25029464.4684
  22869324.374   -13219022.44149 -10208585.62949  22869323.3174   22869328.5604
 98  2  3 18 36 30.0030000  0  9 10  3 19  2 18 27 13 16 31
  25051786.671    -4923376.20949  -3821564.96249  25051785.7604   25051793.1234
  24403708.064     -286066.87949   -221921.85149  24403708.7244   24403715.3224
  21627099.850    -4134960.15549  -3221282.18649  21627099.3614   21627104.4714
  24851103.466    -7826946.48949  -5892578.74749  24851102.3204   24851109.3124
  21290636.438      283457.84549    221745.58749  21290636.0194   21290640.7234
  23616664.756   -11701357.91849  -9033800.36049  23616663.7344   23616670.1764
  22732425.640   -13939814.87149 -10698783.00749  22732425.4894   22732429.6014
  25051094.501    22867688.48549  17804584.44549  25051094.0184   25051102.0434
  22863411.849   -13250092.89849 -10232796.38849  22863411.1404   22863416.4204
 98  2  3 18 37  0.0030000  0  9 10  3 19  2 18 27 13 16 31
  25046242.737    -4952509.46649  -3844266.21849  25046242.1174   25046248.6614
  24412693.367     -238849.30449   -185128.98949  24412692.7254   24412699.6404
  21626016.163    -4140655.16649  -3225719.86749  21626015.6414   21626020.5674
  24837852.486    -7896581.25749  -5946839.62849  24837850.8344   24837858.4164
  21299364.544      329324.15449    257485.52749  21299363.9674   21299368.7234
  23606515.902   -11754690.57149  -9075358.27549  23606515.1004   23606520.6044
  22719643.061   -14006987.56249 -10751125.36449  22719642.6394   22719647.2864
  25072717.283    22981316.75849  17893125.78949  25072717.1194   25072725.1374
  22857593.849   -13280666.81849 -10256620.23449  22857592.5884   22857598.5824
 98  2  3 18 37 30.0030000  0  9 10  3 19  2 18 27 13 16 31
  25040782.494    -4981203.54849  -3866625.26049  25040781.2184   25040787.6314
  24421770.914     -191146.94149   -147958.37249  24421769.7514   24421777.2164
  21624955.305    -4146230.26549  -3230064.11449  21624954.7954   21624959.9474
  24824625.709    -7966088.55949  -6001001.18349  24824624.8004   24824632.0814
  21308174.670      375621.62749    293561.44149  21308174.1184   21308178.8644
  23596364.235   -11808038.10349  -9116927.78249  23596363.4674   23596369.9664
  22706901.364   -14073945.69649 -10803300.52649  22706901.3094   22706905.5454
  25094322.621    23094853.31549  17981595.67349  25094321.3934   25094329.7274
  22851867.545   -13310758.87949 -10280068.59649  22851866.2824   22851872.2684
 98  2  3 18 38  0.0030000  0  9 10  3 19  2 18 27 13 16 31
  25035400.769    -5009484.76649  -3888662.60149  25035399.1344   25035406.9504
  24430930.792     -143011.53849   -110450.32249  24430929.9094   24430936.5724
  21623912.052    -4151712.58649  -3234336.07349  21623911.6074   21623916.7584
  24811416.310    -8035504.24549  -6055091.35149  24811415.2254   24811422.7464
  21317061.094      422319.98749    329949.73349  21317060.6864   21317065.3704
  23586200.152   -11861450.80649  -9158548.07049  23586199.8144   23586205.1784
  22694190.609   -14140741.26849 -10855349.02049  22694190.5594   22694194.7184
  25115903.052    23208259.17949  18069963.69949  25115902.1634   25115910.7534
  22846225.573   -13340407.42349 -10303171.37349  22846225.2374   22846229.7414
 98  2  3 18 38 30.0030000  0  9 10  3 19  2 18 27 13 16 31
  25030114.030    -5037266.98049  -3910311.09349  25030112.2044   25030120.4364
  24440186.684      -94371.86549    -72549.32649  24440186.6014   24440192.3584
  21622907.259    -4156992.99349  -3238450.68649  21622906.8234   21622911.9114
  24798240.253    -8104745.02949  -6109045.22149  24798239.1364   24798246.8304
  21326039.481      469501.43849    366714.46849  21326038.7514   21326043.6194
  23576038.220   -11914852.11149  -9200159.47449  23576037.3294   23576043.4594
  22681527.336   -14207287.44349 -10907203.17249  22681527.2654   22681530.8094
  25137476.076    23321626.05749  18158301.38349  25137475.6484   25137484.1184
  22840682.946   -13369534.34149 -10325867.67349  22840682.0154   22840687.3324
 98  2  3 18 39  0.0030000  0  9 10  3 19  2 18 27 13 16 31
  25024915.872    -5064583.55949  -3931596.75549  25024915.1224   25024922.3764
  24449529.199      -45276.99149    -34293.63249  24449527.9244   24449535.2934
  21621936.416    -4162094.98749  -3242426.28549  21621935.9454   21621941.0614
  24785091.309    -8173843.00049  -6162887.80949  24785090.0894   24785097.0784
  21335103.545      517133.56349    403830.37049  21335102.9464   21335107.8844
  23565875.017   -11968260.34249  -9241776.27649  23565874.4854   23565879.8084
  22668906.755   -14273608.92749 -10958882.25149  22668906.6924   22668910.8244
  25159038.070    23434934.87249  18246593.81249  25159037.5314   25159045.9834
  22835233.787   -13398169.76149 -10348181.00149  22835233.3474   22835237.8854
 98  2  3 18 39 30.0030000  0  9 10  3 19  2 18 27 13 16 31
  25019805.577    -5091438.12949  -3952522.41249  25019803.4214   25019811.2684
  24458955.541        4258.56149      4305.44949  24458955.1684   24458961.8214
  21620998.891    -4167021.74349  -3246265.32249  21620998.2844   21621003.5234
  24771972.331    -8242783.52749  -6216607.70849  24771970.6024   24771977.6324
  21344256.588      565232.86349    441310.31149  21344256.2094   21344260.9104
  23555712.019   -12021667.18649  -9283391.99949  23555710.8914   23555716.8094
  22656324.653   -14339728.30449 -11010403.84349  22656324.5534   22656328.8574
  25180591.336    23548197.77349  18334850.46449  25180590.2404   25180599.1884
  22829878.867   -13426310.41749 -10370108.78449  22829877.7944   22829883.1024
 98  2  3 18 40  0.0030000  0  9 10  3 19  2 18 27 13 16 31
  25014773.044    -5117884.04749  -3973129.64149  25014771.5844   25014779.3104
  24468458.522       54196.66749     43218.21149  24468457.5994   24468465.1904
  21620085.927    -4171819.61349  -3250003.93449  21620085.2964   21620090.6804
  24758880.183    -8311583.33449  -6270217.94049  24758878.4854   24758886.3014
  21353492.879      613769.51749    479131.04249  21353492.2754   21353497.1704
  23545543.386   -12075103.63749  -9325030.78449  23545542.4704   23545548.4054
  22643773.659   -14405684.42949 -11061798.23349  22643773.5924   22643777.6764
  25202127.029    23661367.86749  18423034.81449  25202126.8514   25202134.4524
  22824609.666   -13454000.20449 -10391685.24549  22824608.9424   22824613.9404
 98  2  3 18 40 30.0030000  0  9 10  3 19  2 18 27 13 16 31
  25009835.202    -5143832.75349  -3993349.44149  25009833.9124   25009841.8014
  24478057.222      104637.67649     82522.83749  24478056.5644   24478064.3764
  21619214.016    -4176401.54149  -3253574.27949  21619213.4704   21619218.5684
  24745830.977    -8380157.48449  -6323652.32949  24745830.8584   24745836.9964
  21362829.680      662834.33649    517363.33049  21362829.3414   21362834.1184
  23535391.778   -12128450.75749  -9366599.96549  23535390.9284   23535396.8004
  22631272.700   -14471377.35749 -11112987.53249  22631272.6064   22631276.4924
  25223660.919    23774528.66849  18511211.90349  25223660.2534   25223668.9824
  22819443.374   -13481149.14349 -10412840.26949  22819442.6194   22819447.8294
 98  2  3 18 41  0.0030000  0  9 10  3 19  2 18 27 13 16 31
  25004996.393    -5169260.74549  -4013163.48449  25004995.1724   25005002.8484
  24487755.978      155604.90649    122237.50549  24487754.7604   24487762.4544
  21618381.449    -4180776.84249  -3256983.62149  21618380.7064   21618386.2254
  24732827.121    -8448493.27349  -6376900.97249  24732825.7714   24732833.7704
  21372271.037      712448.64249    556023.78449  21372270.6154   21372275.4944
  23525261.026   -12181687.94049  -9408083.48449  23525260.5214   23525266.6364
  22618822.441   -14536803.92449 -11163969.28049  22618822.3154   22618826.6844
  25245193.435    23887682.18249  18599383.32849  25245193.1164   25245201.6424
  22814382.824   -13507742.64849 -10433562.49249  22814382.3024   22814387.3184
 98  2  3 18 41 30.0030000  0  9 10  3 19  2 18 27 13 16 31
  25000236.553    -5194273.89749  -4032654.25949  25000235.2174   25000243.7444
  24497536.310      207000.54149    162285.99149  24497535.2494   24497542.5154
  21617566.113    -4185061.43349  -3260322.27449  21617565.5114   21617570.5754
  24719845.725    -8516711.11149  -6430057.69649  24719844.7584   24719852.3844
  21381794.445      762494.37749    595020.42749  21381793.7024   21381798.6324
  23515129.992   -12234926.87149  -9449568.34649  23515129.2454   23515135.2394
  22606404.886   -14602058.63149 -11214817.10149  22606404.7324   22606408.7604
  25266700.010    24000699.32549  18687448.48549  25266699.6584   25266708.1814
  22809406.289   -13533894.62049 -10453940.65749  22809405.4474   22809410.9674
 98  2  3 18 42  0.0030000  0  9 10  3 19  2 18 27 13 16 31
  24995574.530    -5218773.16149  -4051744.60949  24995572.5454   24995581.1264
  24507414.089      258908.31649    202733.53849  24507413.6514   24507419.9994
  21616782.270    -4189180.48549  -3263531.93749  21616781.7034   21616787.0334
  24706898.982    -8584746.53049  -6483072.25949  24706898.6404   24706905.2654
  21391411.051      813029.92149    634398.73549  21391410.4754   21391415.4884
  23505013.029   -12288091.78949  -9490995.55649  23505012.4484   23505017.6744
  22594040.862   -14667032.19349 -11265445.85449  22594040.6314   22594044.5744
  25288194.372    24113652.17949  18775463.51249  25288194.1474   25288203.1564
  22804527.591   -13559532.43949 -10473918.18249  22804526.9844   22804532.0954
 98  2  3 18 42 30.0030000  0  9 10  3 19  2 18 27 13 16 31
  24991010.729    -5242756.42449  -4070432.87649  24991009.9444   24991017.5614
  24517388.770      311325.46949    243578.02149  24517388.0454   24517394.5404
  21616027.443    -4193147.19549  -3266622.89049  21616026.7064   21616032.0614
  24693983.684    -8652616.87549  -6535958.21549  24693983.0114   24693989.9674
  21401116.875      864034.50349    674142.53249  21401116.3454   21401121.1794
  23494905.966   -12341204.86849  -9532382.36249  23494904.7364   23494910.7184
  22581730.537   -14731723.34049 -11315854.53849  22581730.1044   22581734.5564
  25309676.746    24226542.68149  18863429.98249  25309676.6754   25309684.6634
  22799748.236   -13584648.16049 -10493488.87849  22799747.4234   22799752.8474
 98  2  3 18 43  0.0030000  0  9 10  3 19  2 18 27 13 16 31
  24986548.172    -5266206.55649  -4088705.72049  24986547.3534   24986555.1584
  24527463.404      364268.01449    284831.89949  24527462.3314   24527469.3774
  21615305.614    -4196940.22849  -3269578.51049  21615305.0764   21615310.4644
  24681105.051    -8720294.83449  -6588694.23749  24681103.7174   24681110.8804
  21410914.747      915522.60349    714263.09349  21410914.2824   21410919.1274
  23484805.830   -12394281.23549  -9573740.56349  23484804.9384   23484811.0104
  22569478.318   -14796109.12449 -11366025.28149  22569478.2454   22569482.2164
  25331155.689    24339414.74449  18951382.07649  25331155.0964   25331164.0084
  22795074.577   -13609208.45049 -10512626.77149  22795073.8694   22795078.8034
 98  2  3 18 43 30.0030000  0  9 10  3 19  2 18 27 13 16 31
  24982185.155    -5289134.32049  -4106571.52349  24982183.7544   24982191.2154
  24537636.627      417728.19749    326489.13949  24537636.5084   24537642.3224
  21614619.946    -4200543.49649  -3272386.26149  21614619.4804   21614624.9104
  24668263.716    -8787776.31649  -6641277.17149  24668262.8874   24668269.5114
  21420803.991      967490.62749    754757.62249  21420803.4164   21420808.3994
  23474711.746   -12447326.01049  -9615074.14849  23474710.9864   23474716.6624
  22557287.213   -14860173.84049 -11415945.83549  22557287.2754   22557291.3564
  25352633.410    24452280.40049  19039329.17749  25352632.7984   25352642.4124
  22790507.515   -13633208.76849 -10531328.31949  22790506.3214   22790512.2494
 98  2  3 18 44  0.0030000  0  9 10  3 19  2 18 27 13 16 31
  24977915.484    -5311571.74149  -4124055.22949  24977914.1704   24977922.2784
  24547901.283      471669.11649    368520.97049  24547900.5324   24547906.5554
  21613964.827    -4203986.42249  -3275069.06449  21613964.2544   21613969.6844
  24655457.079    -8855075.42349  -6693717.99649  24655456.2634   24655463.2224
  21430779.795     1019913.57449    795606.63649  21430779.4304   21430784.3674
  23464617.360   -12500372.43549  -9656409.02049  23464616.5544   23464623.2704
  22545149.497   -14923957.85949 -11465647.65949  22545149.4584   22545153.8214
  25374104.877    24565113.32449  19127250.77149  25374103.6044   25374113.4584
  22786041.350   -13656678.74549 -10549616.62049  22786040.6724   22786045.7974
 98  2  3 18 44 30.0030000  0  9 10  3 19  2 18 27 13 16 31
  24973733.502    -5333548.78749  -4141180.22849  24973731.6754   24973739.4004
  24558255.427      526080.30849    410919.23649  24558255.2444   24558262.5894
  21613339.798    -4207270.86649  -3277628.37949  21613339.1874   21613344.7654
  24642688.246    -8922175.93649  -6746004.08649  24642686.9634   24642695.0254
  21440844.155     1072801.66849    836818.09649  21440843.5234   21440848.5444
  23454522.668   -12553420.29149  -9697745.00549  23454522.0324   23454527.6444
  22533060.072   -14987488.33049 -11515151.91249  22533059.8774   22533063.7284
  25395567.478    24677899.85049  19215136.19449  25395566.8854   25395576.4194
  22781674.508   -13679626.50549 -10567497.99849  22781673.5064   22781678.8164
 98  2  3 18 45  0.0030000  0  9 10  3 19  2 18 27 13 16 31
  24969638.892    -5355065.61149  -4157946.58949  24969636.8104   24969644.4384
  24568699.821      580965.54349    453686.88749  24568700.1934   24568706.1494
  21612750.618    -4210366.81849  -3280040.81749  21612750.1544   21612755.4844
  24629961.544    -8989054.95649  -6798117.56449  24629960.5334   24629967.6404
  21451000.255     1126172.35649    878405.60749  21450999.8024   21451004.6814
  23444434.083   -12606436.21249  -9739056.11049  23444433.5664   23444439.0684
  22521020.158   -15050758.45849 -11564453.30149  22521020.1224   22521023.9164
  25417022.237    24790644.53049  19302989.02749  25417021.7124   25417032.6844
  22777406.362   -13702055.62249 -10584975.24249  22777405.4804   22777410.8424
 98  2  3 18 45 30.0030000  0  9 10  3 19  2 18 27 13 16 31
  24965635.177    -5376105.00549  -4174340.95349  24965633.2624   24965640.9504
  24579235.517      636330.67449    496828.49249  24579235.5294   24579241.3354
  21612198.698    -4213267.40449  -3282301.02249  21612198.2074   21612203.5724
  24617277.312    -9055711.11849  -6850057.40449  24617275.8954   24617284.1124
  21461251.589     1180043.20149    920382.85149  21461251.0254   21461255.9834
  23434358.557   -12659383.29749  -9780313.57249  23434358.0524   23434363.5854
  22509031.665   -15113758.38449 -11613544.14149  22509031.6624   22509035.6854
  25438464.521    24903323.46249  19390790.62849  25438464.6974   25438473.5274
  22773236.519   -13723968.26449 -10602050.02649  22773235.6974   22773240.8834
 98  2  3 18 46  0.0030000  0  9 10  3 19  2 18 27 13 16 31
  24961722.379    -5396667.17549  -4190363.43149  24961721.4504   24961729.2394
  24589861.624      692170.80649    540340.23749  24589860.3244   24589867.5494
  21611678.632    -4216000.49149  -3284430.70449  21611677.9474   21611683.3744
  24604632.187    -9122161.49849  -6901836.91849  24604631.2784   24604638.0284
  21471596.457     1234405.72849    962743.23149  21471595.8734   21471600.8014
  23424294.188   -12712271.87849  -9821525.44749  23424293.5694   23424299.3684
  22497091.913   -15176502.00249 -11662435.26149  22497092.0074   22497095.9604
  25459888.524    25015905.61949  19478516.82949  25459887.8964   25459897.6224
  22769165.593   -13745361.17349 -10618719.82549  22769164.7254   22769170.3184
 98  2  3 18 46 30.0030000  0  9 10  3 19  2 18 27 13 16 31
  24957887.333    -5416820.33849  -4206067.21049  24957885.2464   24957893.7704
  24600564.448      748414.36049    584166.33149  24600563.0654   24600570.0244
  21611177.624    -4218633.19949  -3286482.17049  21611177.1134   21611182.4344
  24592012.215    -9188479.99349  -6953513.66649  24592011.0954   24592018.2584
  21482021.180     1289188.00249   1005430.68449  21482020.4674   21482025.5584
  23414228.258   -12765168.77449  -9862743.80549  23414228.0974   23414232.9674
  22485190.173   -15239046.11449 -11711170.92249  22485189.9774   22485194.0674
  25481281.638    25128326.09949  19566117.05349  25481281.8964   25481289.4414
  22765183.742   -13766285.88649 -10635024.79149  22765182.5224   22765188.3134
 98  2  3 18 47  0.0030000  0  9 10  3 19  2 18 27 13 16 31
  24954142.794    -5436498.07949  -4221400.53049  24954142.1574   24954149.1834
  24611351.160      805098.94849    628336.09849  24611351.3964   24611357.0494
  21610702.928    -4221127.88349  -3288426.08449  21610702.5124   21610707.8764
  24579422.502    -9254638.95149  -7005066.09949  24579422.0004   24579428.4254
  21492533.289     1344429.56549   1048476.01749  21492532.4494   21492537.6824
  23404168.155   -12818035.14949  -9903938.38549  23404167.6024   23404173.4294
  22473341.032   -15301313.76249 -11759691.15649  22473340.9504   22473345.1304
  25502653.396    25240634.12649  19653629.64249  25502653.4404   25502662.0824
  22761304.269   -13786672.78249 -10650910.68949  22761303.6574   22761308.7904
 98  2  3 18 47 30.0030000  0  9 10  3 19  2 18 27 13 16 31
  24950492.542    -5455680.14649  -4236347.60749  24950491.0744   24950499.5404
  24622223.452      862232.79149    672855.93249  24622222.5004   24622230.2754
  21610251.446    -4223500.53849  -3290274.91149  21610250.8454   21610256.4084
  24566864.216    -9320633.16449  -7056490.17049  24566863.4544   24566870.7964
  21503134.202     1400137.58649   1091884.82649  21503133.6204   21503138.6004
  23394111.594   -12870882.76549  -9945118.34449  23394111.0944   23394116.7224
  22461547.737   -15363287.89849 -11807982.66749  22461547.7444   22461551.5824
  25524000.086    25352810.39249  19741039.56249  25524000.1624   25524008.8104
  22757531.252   -13806500.28449 -10666360.69349  22757530.0504   22757536.0714
 98  2  3 18 48  0.0030000  0  9 10  3 19  2 18 27 13 16 31
  24946944.094    -5474327.41049  -4250877.96349  24946943.3604   24946949.8524
  24633190.862      919866.94249    717765.60949  24633190.9474   24633197.0534
  21609833.064    -4225699.14849  -3291988.12749  21609832.3944   21609837.9454
  24554348.925    -9386401.62149  -7107738.34549  24554348.4084   24554354.7954
  21513832.057     1456355.12149   1135690.65749  21513831.4444   21513836.4634
  23384066.822   -12923668.53949  -9986250.11649  23384065.9484   23384071.8754
  22449817.916   -15424928.43549 -11856014.23749  22449817.9144   22449821.5984
  25545332.525    25464911.60449  19828390.99049  25545332.2544   25545341.5744
  22753873.952   -13825719.43649 -10681336.65849  22753872.8524   22753878.4524
 98  2  3 18 48 30.0030000  0  9 10  3 19  2 18 27 13 16 31
  24943486.245    -5492498.52249  -4265037.27749  24943484.9254   24943492.6014
  24644241.215      977936.98449    763014.94849  24644240.5774   24644247.0084
  21609441.240    -4227758.09449  -3293592.51249  21609440.6564   21609446.0754
  24541866.575    -9451997.09949  -7158851.72549  24541865.2904   24541872.7614
  21524615.073     1513019.90749   1179844.99949  21524614.7094   21524619.6324
  23374023.541   -12976446.30049 -10027375.64049  23374022.5714   23374028.2914
  22438138.174   -15486306.14249 -11903841.00049  22438138.2404   22438141.8874
  25566640.080    25576882.33249  19915640.72249  25566640.5734   25566647.9124
  22750317.970   -13844406.18649 -10695897.76149  22750317.0434   22750322.5294
 98  2  3 18 49  0.0030000  0  9 10  3 19  2 18 27 13 16 31
  24940126.339    -5510155.27749  -4278795.81049  24940125.6004   24940132.9954
  24655381.796     1036481.40049    808633.92749  24655380.2054   24655388.4524
  21609082.997    -4229640.64949  -3295059.44449  21609082.4644   21609087.8704
  24529421.849    -9517394.64849  -7209810.89049  24529420.9954   24529427.7344
  21535489.881     1570167.22549   1224375.34449  21535489.4114   21535494.6174
  23363986.241   -13029192.88949 -10068476.86749  23363985.5194   23363991.0534
  22426511.933   -15547402.59149 -11951448.60249  22426511.8094   22426515.8884
  25587925.028    25688734.22249  20002797.87249  25587925.2684   25587933.0764
  22746865.998   -13862546.38449 -10710032.98049  22746865.2934   22746870.5104
 98  2  3 18 49 30.0030000  0  9 10  3 19  2 18 27 13 16 31
  24936854.608    -5527348.85449  -4292193.41549  24936853.1264   24936860.9464
  24666606.262     1095465.98249    854595.89449  24666605.6944   24666611.9884
  21608752.663    -4231376.65049  -3296412.18049  21608752.0924   21608757.4134
  24517006.709    -9582636.95549  -7260649.08949  24517005.1214   24517013.2894
  21546447.701     1627750.72749   1269245.56649  21546447.0354   21546452.3824
  23353947.231   -13081948.34249 -10109585.00949  23353946.4894   23353952.1364
  22414925.727   -15608288.42149 -11998892.08849  22414925.9104   22414929.6334
  25609177.834    25800417.24049  20089823.41849  25609177.3754   25609186.3904
  22743504.343   -13880212.08049 -10723798.46249  22743503.6004   22743508.5694
 98  2  3 18 50  0.0030000  0  9 10  3 19  2 18 27 13 16 31
  24933668.538    -5544092.14649  -4305240.14149  24933667.5614   24933674.6784
  24677913.022     1154883.65349    900895.32549  24677912.2174   24677918.2374
  21608450.664    -4232963.80549  -3297648.93349  21608450.3214   21608455.4074
  24504616.724    -9647746.60649  -7311383.91849  24504615.9574   24504622.8994
  21557485.163     1685753.06349   1314442.15149  21557484.4944   21557489.7674
  23343907.148   -13134709.26249 -10150697.40149  23343906.5604   23343912.2574
  22403377.957   -15668972.42049 -12046178.30749  22403377.8744   22403381.6004
  25630401.725    25911948.63749  20176730.83449  25630401.3024   25630410.0794
  22740231.283   -13897412.34749 -10737201.26649  22740230.0464   22740235.6134
 98  2  3 18 50 30.0030000  0  9 10  3 19  2 18 27 13 16 31
  24930575.031    -5560348.82049  -4317907.69549  24930573.7034   24930580.9014
  24689305.886     1214753.39449    947546.99749  24689305.5894   24689313.0834
  21608181.971    -4234376.01949  -3298749.36849  21608181.2874   21608186.8234
  24492256.244    -9712701.27049  -7361997.97049  24492254.6754   24492262.5304
  21568606.283     1744194.85949   1359981.17449  21568605.6554   21568610.8824
  23333870.132   -13187454.09549 -10191797.25949  23333869.4784   23333875.2274
  22391879.303   -15729398.06649 -12093263.21349  22391879.0954   22391883.3434
  25651603.919    26023366.03249  20263549.41549  25651603.3754   25651612.2744
  22737055.480   -13914101.27349 -10750205.62449  22737054.4954   22737059.8154
 98  2  3 18 51  0.0030000  0  9 10  3 19  2 18 27 13 16 31
  24927578.228    -5576097.01349  -4330179.02649  24927576.9184   24927584.1714
  24700790.161     1275103.48849    994572.97849  24700789.4994   24700796.4584
  21607948.389    -4235603.59049  -3299705.93649  21607947.9894   21607953.3174
  24479932.904    -9777460.57549  -7412459.79849  24479933.0554   24479939.4054
  21579819.078     1803118.40449   1405895.57349  21579818.5524   21579823.7244
  23323843.567   -13240143.88349 -10232854.23849  23323842.9204   23323848.4834
  22380441.895   -15789502.17749 -12140097.58049  22380441.7434   22380445.7514
  25672792.663    26134713.20349  20350313.26449  25672791.9564   25672801.0534
  22733986.572   -13930228.53249 -10762772.32249  22733985.9094   22733991.1424
 98  2  3 18 51 30.0030000  0  9 10  3 19  2 18 27 13 16 31
  24924683.018    -5591311.40549  -4342034.40549  24924681.4324   24924689.6764
  24712372.234     1335967.13749   1041999.12249  24712371.7714   24712378.9234
  21607755.891    -4236615.04449  -3300494.09349  21607755.1924   21607760.6034
  24467655.936    -9841976.66249  -7462732.12049  24467655.6844   24467661.9294
  21591129.560     1862555.10649   1452209.83849  21591129.0624   21591134.0774
  23313838.724   -13292719.84049 -10273822.50549  23313837.7364   23313843.4564
  22369075.622   -15849232.12849 -12186640.38449  22369075.2914   22369079.3524
  25693978.667    26246046.21249  20437066.06649  25693978.9194   25693987.2094
  22731034.510   -13945741.75949 -10774860.56249  22731033.8234   22731038.9214
 98  2  3 18 52  0.0030000  0  9 10  3 19  2 18 27 13 16 31
  24921879.456    -5606044.42449  -4353514.69549  24921879.0024   24921885.5914
  24724041.299     1397288.28249   1089781.75249  24724040.3834   24724047.3714
  21607594.399    -4237463.63749  -3301155.34849  21607593.8744   21607599.2174
  24455418.385    -9906285.48049  -7512842.91449  24455417.6174   24455424.3184
  21602527.272     1922450.33349   1498881.40049  21602526.8424   21602531.7904
  23303846.283   -13345230.53249 -10314739.92049  23303845.5034   23303851.0084
  22357774.659   -15908618.91049 -12232915.77149  22357774.4654   22357778.6154
  25715153.242    26357319.80849  20523772.58949  25715152.5704   25715162.2234
  22728193.904   -13960669.17449 -10786492.32449  22728193.0494   22728198.7024
 98  2  3 18 52 30.0030000  0  9 10  3 19  2 18 27 13 16 31
  24919164.721    -5620310.69349  -4364631.29149  24919164.2324   24919170.8664
  24735794.851     1459053.51849   1137910.42849  24735793.8664   24735801.6744
  21607462.819    -4238155.17649  -3301694.22649  21607462.5954   21607467.9074
  24443225.397    -9970360.21449  -7562771.30049  24443224.9674   24443231.4744
  21614011.438     1982799.60849   1545906.76549  21614010.9624   21614015.9464
  23293862.459   -13397695.61849 -10355621.79049  23293861.5454   23293867.2414
  22346537.306   -15967671.35449 -12278930.64449  22346537.0444   22346541.2704
  25736312.412    26468511.68049  20610415.40149  25736310.5134   25736320.9924
  22725462.902   -13975020.69049 -10797675.33449  22725461.8804   22725467.7994
 98  2  3 18 53  0.0030000  0  9 10  3 19  2 18 27 13 16 31
  24916535.868    -5634125.25349  -4375395.88449  24916534.4524   24916541.5094
  24747633.821     1521267.53949   1186388.81649  24747632.9404   24747639.9694
  21607358.441    -4238703.89149  -3302121.81249  21607357.8774   21607363.4264
  24431074.524   -10034213.65149  -7612527.23949  24431073.7504   24431080.7154
  21625580.134     2043593.36749   1593278.48149  21625579.7434   21625584.8624
  23283885.324   -13450125.58049 -10396476.30249  23283884.8124   23283890.6014
  22335356.704   -16026425.60749 -12324713.16649  22335356.6744   22335360.4364
  25757450.398    26579592.71649  20696971.85649  25757449.8694   25757459.8524
  22722836.528   -13988822.38749 -10808429.91849  22722835.6084   22722841.1984
 98  2  3 18 53 30.0030000  0  9 10  3 19  2 18 27 13 16 31
  24913999.793    -5647452.59749  -4385780.84949  24913999.4674   24914005.9604
  24759562.942     1583955.15949   1235236.22549  24759562.2524   24759569.0774
  21607287.947    -4239074.48249  -3302410.60449  21607287.5764   21607292.7164
  24418967.326   -10097837.37649  -7662104.19149  24418966.7814   24418973.8894
  21637233.359     2104831.33949   1640996.33549  21637232.9454   21637237.9824
  23273916.285   -13502513.30249 -10437297.90049  23273915.6634   23273921.2074
  22324234.037   -16084875.52249 -12370258.54549  22324234.0144   22324237.8984
  25778567.776    26690565.99049  20783444.33949  25778566.8894   25778575.8774
  22720317.472   -14002060.14449 -10818745.06949  22720316.5124   22720321.8024
 98  2  3 18 54  0.0030000  0  9 10  3 19  2 18 27 13 16 31
  24911555.828    -5660295.65549  -4395788.43549  24911554.7794   24911561.7634
  24771576.245     1647084.80049   1284428.07349  24771576.1054   24771583.0964
  21607248.510    -4239281.80949  -3302572.16949  21607247.9144   21607253.1444
  24406901.368   -10161244.58449  -7711512.40149  24406900.3744   24406907.5274
  21648968.776     2166501.11049   1689050.66049  21648968.3514   21648973.5004
  23263949.190   -13554890.88149 -10478111.58449  23263948.6434   23263954.2294
  22313165.943   -16143038.72749 -12415580.50849  22313165.8574   22313169.9424
  25799658.370    26801398.63349  20869807.26349  25799657.1694   25799665.5474
  22717903.185   -14014747.29949 -10828631.17049  22717902.4334   22717907.7654
 98  2  3 18 54 30.0030000  0  9 10  3 19  2 18 27 13 16 31
  24909221.435    -5672563.21149  -4405347.57549  24909220.3564   24909228.7164
  24783688.764     1710735.88349   1334026.22549  24783688.5594   24783696.3114
  21607253.868    -4239253.90449  -3302550.44149  21607253.2804   21607258.6494
  24394889.202   -10224368.94549  -7760700.22349  24394888.7104   24394895.5504
  21660805.184     2228701.65249   1737518.56349  21660804.7574   21660810.1294
  23254000.543   -13607171.00249 -10518849.33149  23253999.5214   23254005.6094
  22302168.261   -16200831.95349 -12460614.18149  22302168.3304   22302171.9154
  25820735.410    26912160.12649  20956114.71449  25820734.6474   25820745.1604
  22715608.263   -14026807.33649 -10838028.61449  22715607.6724   22715612.2124
 98  2  3 18 55  0.0030000  0  8 10  3 19  2 18 27 13 31
  24906986.786    -5684306.80649  -4414498.44649  24906986.2124   24906993.0954
  24795886.760     1774836.53649   1383974.71149  24795886.6954   24795894.0644
  21607291.730    -4239054.92449  -3302395.40249  21607291.2644   21607296.4574
  24382911.935   -10287310.16149  -7809745.34149  24382911.2824   24382918.3264
  21672730.366     2291368.87749   1786350.12049  21672729.8714   21672735.0244
  23244062.313   -13659396.64449 -10559544.62749  23244061.6114   23244067.4344
  22291231.054   -16258307.39649 -12505400.22649  22291230.8824   22291234.9164
  22713420.703   -14038303.00549 -10846986.29349  22713419.7874   22713425.1434
 98  2  3 18 55 30.0030000  0  8 10  3 19  2 18 27 13 31
  24904852.950    -5695519.98949  -4423236.01649  24904851.4504   24904858.2104
  24808166.296     1839365.58149   1434256.97949  24808166.1344   24808172.7154
  21607364.928    -4238670.26049  -3302095.67849  21607364.4434   21607369.7224
  24370971.929   -10350055.17049  -7858637.55549  24370971.0284   24370978.3304
  21684747.024     2354516.56749   1835556.06549  21684746.6324   21684751.6204
  23234135.948   -13711560.06349 -10600191.45149  23234135.0034   23234140.7854
  22280358.999   -16315440.42649 -12549919.45549  22280358.9084   22280362.9594
  22711343.739   -14049217.55249 -10855491.15249  22711343.1544   22711348.4054
 98  2  3 18 56  0.0030000  0  8 10  3 19  2 18 27 13 31
  24902815.670    -5706226.06849  -4431578.42949  24902814.3904   24902822.1514
  24820524.851     1904309.94749   1484862.89449  24820524.2094   24820532.0834
  21607470.296    -4238116.68549  -3301664.32749  21607469.7004   21607475.1714
  24359067.830   -10412611.95149  -7907383.09249  24359066.9894   24359074.5504
  21696856.211     2418150.58349   1885140.96849  21696855.7594   21696860.8324
  23224220.114   -13763668.22649 -10640795.19549  23224219.5474   23224225.0694
  22269550.780   -16372238.07949 -12594177.34749  22269550.8514   22269554.7244
  22709374.482   -14059566.33149 -10863555.14249  22709373.3984   22709378.8134
 98  2  3 18 56 30.0030000  0  8 10  3 19  2 18 27 13 31
  24900875.233    -5716423.00049  -4439524.09849  24900874.4334   24900881.2614
  24832969.226     1969705.24249   1535820.18649  24832968.9234   24832975.4284
  21607612.216    -4237370.81549  -3301083.14949  21607611.4724   21607617.0294
  24347201.629   -10474969.22149  -7955973.17549  24347200.6644   24347208.3054
  21709060.296     2482283.25649   1935114.42949  21709059.7114   21709065.0244
  23214318.724   -13815700.35649 -10681339.70849  23214317.6724   23214323.6414
  22258810.743   -16428677.37549 -12638156.01449  22258810.6664   22258814.3314
  22707512.833   -14069349.20549 -10871178.17849  22707512.1364   22707517.1104
 98  2  3 18 57  0.0030000  0  8 10  3 19  2 18 27 13 31
  24899029.939    -5726120.42049  -4447080.54349  24899029.2114   24899035.5534
  24845498.759     2035547.89249   1587126.05249  24845497.7304   24845505.3684
  21607793.358    -4236418.67449  -3300341.23749  21607792.7564   21607798.3224
  24335374.873   -10537119.27349  -8004401.78549  24335374.0914   24335381.1704
  21721355.097     2546892.63449   1985459.34949  21721354.6194   21721360.0034
  23204429.056   -13867670.90049 -10721836.22749  23204428.2694   23204434.5664
  22248137.125   -16484767.52249 -12681862.61549  22248137.0054   22248141.1674
  22705757.194   -14078575.20049 -10878367.27249  22705756.4324   22705761.2634
 98  2  3 18 57 30.0030000  0  8 10  3 19  2 18 27 13 31
  24897273.540    -5735350.42749  -4454272.77049  24897272.4874   24897279.9984
  24858109.355     2101816.52749   1638763.87049  24858108.7094   24858115.2804
  21608010.351    -4235278.55949  -3299452.84649  21608009.6864   21608015.1244
  24323586.220   -10599069.11049  -8052674.38849  24323584.8734   24323592.1854
  21733735.285     2611950.66749   2036153.87349  21733734.7594   21733739.9814
  23194543.948   -13919617.34149 -10762313.96149  23194542.8524   23194548.8614
  22237524.715   -16540536.00049 -12725318.57249  22237524.5324   22237528.7544
  22704101.643   -14087275.15149 -10885146.46249  22704100.7084   22704106.3034
 98  2  3 18 58  0.0030000  0  8 10  3 19  2 18 27 13 31
  24895609.053    -5744097.17849  -4461088.44549  24895607.2604   24895615.7864
  24870805.413     2168534.79449   1690752.05249  24870805.0404   24870812.2724
  21608265.536    -4233937.57149  -3298407.92249  21608265.0794   21608270.4844
  24311837.366   -10660809.89149  -8100784.08649  24311836.6364   24311843.4434
  21746199.599     2677450.96849   2087193.02149  21746199.1104   21746204.1104
  23184667.520   -13971518.22149 -10802756.19549  23184666.5794   23184672.5384
  22226975.025   -16595974.85049 -12768517.66949  22226974.9854   22226978.9834
  22702546.496   -14095447.56249 -10891514.58549  22702545.6854   22702551.2184
 98  2  3 18 58 30.0030000  0  8 10  3 19  2 18 27 13 31
  24894048.029    -5752300.44849  -4467480.61649  24894047.2904   24894053.8894
  24883596.096     2235749.68349   1743127.21749  24883596.3154   24883603.0954
  21608569.278    -4232341.60449  -3297164.32049  21608568.6194   21608573.9924
  24300138.593   -10722287.33549  -8148688.58649  24300137.1154   24300144.4964
  21758757.046     2743440.75449   2138613.58449  21758756.5164   21758761.8424
  23174811.366   -14023312.69749 -10843115.51149  23174810.2734   23174816.4194
  22216498.940   -16651027.14849 -12811415.56249  22216498.3784   22216503.0614
  22701104.866   -14103023.18049 -10897417.67349  22701103.8034   22701109.3654
 98  2  3 18 59  0.0030000  0  8 10  3 19  2 18 27 13 31
  24892581.761    -5760006.27049  -4473485.17349  24892580.7954   24892588.2014
  24896467.929     2303391.01649   1795834.67549  24896467.7244   24896474.7424
  21608909.292    -4230554.76249  -3295771.98049  21608908.6144   21608914.0934
  24288480.719   -10783549.58749  -8196425.40549  24288479.8054   24288486.4984
  21771396.468     2809861.04349   2190369.60949  21771395.7664   21771401.2224
  23164962.811   -14075066.92849 -10883443.46849  23164962.0014   23164967.8234
  22206084.680   -16705754.47549 -12854060.22949  22206084.5184   22206088.5324
  22699770.923   -14110033.27949 -10902880.09449  22699770.1764   22699775.5714
 98  2  3 18 59 30.0030000  0  8 10  3 19  2 18 27 13 31
  24891209.416    -5767218.12849  -4479104.82049  24891208.0754   24891216.7874
  24909420.471     2371456.53649   1848872.68349  24909419.6584   24909427.6654
  21609283.226    -4228589.88249  -3294240.91149  21609282.5454   21609288.0594
  24276864.042   -10844595.34649  -8243993.53149  24276863.1774   24276870.2144
  21784120.197     2876724.71449   2242471.12349  21784119.6484   21784124.9394
  23155122.779   -14126776.67549 -10923736.75249  23155122.1234   23155128.0234
  22195734.131   -16760147.12749 -12896444.10849  22195734.1234   22195738.0734
  22698548.532   -14116456.86849 -10907885.48949  22698547.8924   22698553.4424
 98  2  3 19  0  0.0030000  0  8 10  3 19  2 18 27 13 31
  24889928.325    -5773950.27149  -4484350.67449  24889927.3624   24889935.0274
  24922453.301     2439944.54749   1902239.89449  24922452.6854   24922460.0674
  21609685.340    -4226476.64749  -3292594.23949  21609684.6574   21609690.0614
  24265284.374   -10905447.07949  -8291410.46349  24265283.7544   24265290.4044
  21796927.732     2944028.66649   2294915.71249  21796927.1714   21796932.1704
  23145288.141   -14178458.26549 -10964008.10549  23145287.2814   23145293.4314
  22185444.559   -16814219.21649 -12938578.20549  22185444.4064   22185448.3184
  22697437.397   -14122296.27549 -10912435.67849  22697437.1314   22697441.8874
 98  2  3 19  0 30.0030000  0  8 10  3 19  2 18 27 13 31
  24888742.785    -5780180.50949  -4489205.44549  24888742.4324   24888749.8604
  24935570.634     2508876.24249   1955952.83549  24935570.0144   24935576.8904
  21610119.597    -4224194.62049  -3290816.04449  21610119.1764   21610124.4824
  24253744.446   -10966089.97349  -8338664.66849  24253743.7534   24253751.0644
  21809825.108     3011804.77449   2347728.21249  21809824.6934   21809829.8824
  23135462.233   -14230093.60249 -11004243.41149  23135461.6734   23135467.5704
  22175220.777   -16867945.52549 -12980442.85749  22175220.5844   22175224.7094
  22696443.004   -14127522.00749 -10916507.67849  22696442.3004   22696447.6414
 98  2  3 19  1  0.0030000  0  8 10  3 19  2 18 27 13 31
  24887653.780    -5785903.50249  -4493664.95149  24887652.0274   24887658.8404
  24948770.790     2578243.23449   2010004.97849  24948770.4164   24948777.2274
  21610583.834    -4221755.03149  -3288915.07449  21610583.2554   21610588.7414
  24242241.981   -11026535.74749  -8385765.26449  24242240.9864   24242248.1034
  21822809.209     3080036.21349   2400895.52149  21822808.7644   21822813.6854
  23125641.575   -14281701.68649 -11044457.48449  23125640.6524   23125646.3934
  22165063.087   -16921324.45549 -13022036.82949  22165062.9264   22165067.0714
  22695561.946   -14132152.13549 -10920115.57249  22695561.2404   22695566.5324
 98  2  3 19  1 30.0030000  0  8 10  3 19  2 18 27 13 31
  24886663.294    -5791108.45849  -4497720.79249  24886662.3224   24886670.1604
  24962054.802     2648050.97449   2064400.54849  24962054.1894   24962061.2864
  21611079.944    -4219148.15549  -3286883.74949  21611079.4714   21611084.5254
  24230775.109   -11086794.35349  -8432720.03149  24230774.0744   24230781.2694
  21835881.489     3148731.22449   2454424.05049  21835880.8844   21835886.2024
  23115830.233   -14333260.35049 -11084633.04849  23115829.3444   23115835.4834
  22154974.461   -16974340.59249 -13063348.10849  22154974.3704   22154978.2584
  22694793.001   -14136193.03249 -10923264.32849  22694792.5124   22694797.5314
 98  2  3 19  2  0.0030000  0  8 10  3 19  2 18 27 13 31
  24885777.755    -5795762.02549  -4501346.98049  24885776.6454   24885783.8764
  24975427.224     2718323.44449   2119158.24549  24975425.4434   24975434.8894
  21611613.564    -4216344.17149  -3284698.83449  21611612.8624   21611618.0814
  24219348.607   -11146841.23049  -8479509.80849  24219347.5754   24219354.7264
  21849043.201     3217896.47849   2508319.00549  21849042.8224   21849047.9294
  23106033.318   -14384743.34549 -11124749.65349  23106032.7264   23106038.0824
  22144960.331   -17026965.37849 -13104354.43549  22144960.0434   22144964.0454
  22694138.569   -14139632.00749 -10925944.05349  22694137.7354   22694143.2144
 98  2  3 19  2 30.0030000  0  8 10  3 19  2 18 27 13 31
  24884999.603    -5799851.37749  -4504533.53349  24884998.1444   24885005.5764
  24988887.673     2789058.17849   2174276.15649  24988886.4244   24988894.8884
  21612189.025    -4213320.03849  -3282342.37349  21612188.4634   21612193.6804
  24207967.543   -11206649.27249  -8526113.47649  24207966.3444   24207973.4184
  21862292.747     3287523.02149   2562573.40549  21862292.3004   21862297.8224
  23096253.194   -14436138.18149 -11164797.56149  23096252.4474   23096258.2374
  22135024.167   -17079180.10049 -13145041.22949  22135024.0824   22135027.9684
  22693601.996   -14142451.49549 -10928141.05349  22693601.2874   22693606.6584
 98  2  3 19  3  0.0030000  0  8 10  3 19  2 18 27 13 31
  24884318.696    -5803430.13449  -4507322.22349  24884318.0054   24884323.8994
  25002429.245     2860219.33649   2229726.34249  25002429.8184   25002434.6724
  21612799.394    -4210112.57349  -3279843.06049  21612798.9314   21612804.2934
  24196627.997   -11266239.23349  -8572547.21249  24196627.2934   24196633.9584
  21875622.455     3357570.94849   2617156.15449  21875621.8824   21875627.4294
  23086482.674   -14487482.77249 -11204806.31849  23086481.9714   23086487.8154
  22125159.346   -17131020.18049 -13185436.09749  22125159.3814   22125163.3854
  22693177.108   -14144684.41949 -10929880.98949  22693176.2114   22693181.5284
 98  2  3 19  3 30.0030000  0  8 10  3 19  2 18 27 13 31
  24883731.160    -5806517.66349  -4509728.13249  24883729.0334   24883737.7574
  25016054.907     2931822.38549   2285520.87649  25016054.2164   25016061.4194
  21613449.754    -4206695.00449  -3277180.03349  21613449.2104   21613454.4974
  24185332.840   -11325595.94349  -8618799.18449  24185331.8934   24185339.0104
  21889035.736     3428058.05649   2672081.12449  21889035.1064   21889040.5664
  23076727.575   -14538746.07549 -11244751.73949  23076726.9644   23076732.5054
  22115366.473   -17182481.98249 -13225536.20249  22115366.3004   22115370.3264
  22692866.546   -14146316.55049 -10931152.77549  22692865.7464   22692871.3604
 98  2  3 19  4  0.0030000  0  8 10  3 19  2 18 27 13 31
  24883233.137    -5809134.50849  -4511767.25849  24883232.0974   24883239.6054
  25029762.899     3003857.96549   2341652.45149  25029762.9764   25029769.1844
  21614137.565    -4203080.54749  -3274363.58149  21614136.9644   21614142.2754
  24174081.302   -11384723.07349  -8664872.27749  24174080.5024   24174087.3504
  21902527.629     3498958.22649   2727327.96249  21902527.0864   21902532.8514
  23066984.865   -14589944.34449 -11284646.48049  23066984.3394   23066989.9554
  22105640.488   -17233592.41649 -13265362.50749  22105640.3744   22105644.2794
  22692669.004   -14147354.80649 -10931961.79949  22692668.2434   22692673.7824
 98  2  3 19  4 30.0030000  0  8 10  3 19  2 18 27 13 31
  24882828.080    -5811263.23049  -4513426.03649  24882827.0774   24882834.8054
  25043556.360     3076342.95849   2398134.20649  25043555.7674   25043562.4674
  21614866.908    -4199247.78849  -3271377.02349  21614866.2694   21614871.8224
  24162878.095   -11443596.19249  -8710747.43049  24162877.0484   24162884.6604
  21916106.034     3570313.01849   2782929.05249  21916105.4064   21916110.7584
  23057259.593   -14641050.96949 -11324469.81749  23057259.0424   23057264.6194
  22095984.398   -17284335.46849 -13304902.54649  22095984.2084   22095988.2934
  22692587.819   -14147781.57849 -10932294.34449  22692587.1194   22692592.7124
 98  2  3 19  5  0.0030000  0  8 10  3 19  2 18 27 13 31
  24882520.269    -5812881.46249  -4514687.02349  24882518.8014   24882526.5254
  25057436.842     3149284.83449   2454971.97149  25057436.4284   25057444.2944
  21615641.738    -4195175.98849  -3268204.19849  21615641.1134   21615646.5194
  24151724.947   -11502206.41549  -8756417.73149  24151724.0494   24151731.3364
  21929776.123     3642149.86349   2838905.77249  21929775.4924   21929781.1644
  23047556.728   -14692039.92849 -11364201.45849  23047555.8394   23047561.2334
  22086401.273   -17334695.04949 -13344143.76849  22086401.0734   22086405.2174
  22692625.303   -14147584.69149 -10932140.92649  22692624.7434   22692629.8704
 98  2  3 19  5 30.0030000  0  8 10  3 19  2 18 27 13 31
  24882312.461    -5813973.83749  -4515538.26749  24882311.2844   24882319.5394
  25071401.691     3222670.77749   2512155.78949  25071400.7604   25071408.4694
  21616459.320    -4190879.48649  -3264856.28349  21616458.7074   21616464.3394
  24140619.158   -11560567.67849  -8801894.02649  24140617.9684   24140625.3384
  21943537.541     3714466.35049   2895256.23349  21943537.0454   21943542.6754
  23037874.649   -14742919.53849 -11403847.89449  23037873.7724   23037879.8864
  22076888.844   -17384683.20049 -13383095.56949  22076888.6284   22076892.7134
  22692781.505   -14146763.88549 -10931501.34949  22692780.2454   22692786.0234
 98  2  3 19  6  0.0030000  0  8 10  3 19  2 18 27 13 31
  24882207.171    -5814526.96349  -4515969.30049  24882205.9974   24882213.6224
  25085449.562     3296492.73249   2569679.34349  25085449.0354   25085457.3524
  21617317.629    -4186369.14049  -3261341.74649  21617317.1334   21617322.6614
  24129562.867   -11618669.09549  -8847167.86149  24129562.0124   24129569.6134
  21957391.402     3787268.47649   2951985.10749  21957390.9054   21957396.4144
  23028211.285   -14793700.91549 -11443417.79249  23028210.5324   23028216.5574
  22067449.440   -17434287.62649 -13421748.37149  22067449.3934   22067453.5394
  22693056.288   -14145319.69349 -10930376.02049  22693055.1254   22693061.0464
 98  2  3 19  6 30.0030000  0  8 10  3 19  2 18 27 13 31
  24882199.742    -5814566.10349  -4515999.83349  24882198.6524   24882205.6054
  25099572.894     3370711.20549   2627511.85749  25099572.1384   25099580.7474
  21618213.025    -4181663.89849  -3257675.33549  21618212.2234   21618217.7114
  24118549.949   -11676542.37949  -8892263.91249  24118548.7464   24118556.0984
  21971335.417     3860544.50549   3009083.26649  21971334.9114   21971340.1844
  23018560.417   -14844416.40749 -11482936.33649  23018559.5534   23018565.5154
  22058082.365   -17483511.75849 -13460104.83049  22058081.9284   22058086.3814
  22693442.861   -14143287.91649 -10928792.82949  22693441.7674   22693447.0624
 98  2  3 19  7  0.0030000  0  8 10  3 19  2 18 27 13 31
  24882293.438    -5814073.57249  -4515616.07849  24882292.3674   24882299.2844
  25113775.959     3445348.71649   2685670.91649  25113774.7764   25113782.6884
  21619150.421    -4176737.75549  -3253836.79749  21619149.7644   21619155.3694
  24107583.724   -11734170.05749  -8937168.59349  24107582.6384   24107589.5874
  21985370.977     3934301.45849   3066556.16049  21985370.6254   21985375.9144
  23008925.092   -14895050.28349 -11522391.28649  23008924.0134   23008929.6774
  22048791.022   -17532338.23949 -13498151.43949  22048790.7904   22048794.9874
  22693947.276   -14140636.99249 -10926727.19749  22693946.1984   22693951.7324
 98  2  3 19  7 30.0030000  0  8 10  3 19  2 18 27 13 31
  24882483.506    -5813074.91649  -4514837.92349  24882482.1964   24882490.0454
  25128057.385     3520398.19149   2744150.97549  25128056.5284   25128064.8344
  21620125.547    -4171613.52449  -3249843.90249  21620125.0194   21620130.4674
  24096660.817   -11791570.09849  -8981895.88449  24096659.6404   24096666.5694
  21999494.572     4008521.18949   3124389.66649  21999494.2974   21999499.5564
  22999300.614   -14945627.33249 -11561801.95649  22999300.0164   22999305.4664
  22039572.863   -17580779.85749 -13535898.14749  22039572.6514   22039576.8284
  22694566.289   -14137384.04849 -10924192.45849  22694565.6294   22694570.8604
 98  2  3 19  8  0.0030000  0  8 10  3 19  2 18 27 13 31
  24882772.042    -5811559.42349  -4513657.03249  24882770.4764   24882778.6784
  25142416.879     3595857.08749   2802950.05449  25142416.3774   25142423.7684
  21621142.835    -4166267.71249  -3245678.34249  21621142.3954   21621147.8554
  24085784.237   -11848726.75149  -9026433.53349  24085783.3194   24085790.9404
  22013707.356     4083209.65149   3182588.41649  22013706.7084   22013711.8084
  22989690.257   -14996130.17749 -11601154.80749  22989689.4794   22989695.4184
  22030433.630   -17628806.84649 -13573321.76649  22030433.6584   22030437.5784
  22695300.792   -14133524.40949 -10921184.96849  22695300.2714   22695305.7184
 98  2  3 19  8 30.0030000  0  8 10  3 19  2 18 27 13 31
  24883156.021    -5809541.85649  -4512084.91949  24883154.5114   24883161.7754
  25156850.560     3671706.41349   2862053.36349  25156850.5154   25156857.7804
  21622198.493    -4160720.42249  -3241355.78649  21622197.9044   21622203.5194
  24074948.236   -11905670.45649  -9070805.24249  24074947.4714   24074954.2654
  22028002.635     4158331.74549   3241125.06749  22028002.1014   22028007.5984
  22980089.501   -15046582.47549 -11640468.27449  22980088.5964   22980094.1994
  22021369.002   -17676441.85449 -13610439.94349  22021368.7144   22021372.7204
  22696147.975   -14129072.67049 -10917716.10649  22696147.2144   22696152.5254
 98  2  3 19  9  0.0030000  0  8 10  3 19  2 18 27 13 31
  24883640.926    -5806993.65449  -4510099.33249  24883640.0844   24883647.0214
  25171364.711     3747978.58449   2921486.16549  25171364.1874   25171371.9774
  21623294.625    -4154960.07949  -3236867.22649  21623294.1254   21623299.6644
  24064158.901   -11962368.68149  -9114985.66749  24064157.8504   24064165.2744
  22042383.591     4233903.83849   3300012.35849  22042383.1464   22042388.6534
  22970506.680   -15096940.16249 -11679708.02749  22970506.1204   22970511.8604
  22012384.996   -17723653.20349 -13647228.00949  22012384.8034   22012388.8694
  22697115.698   -14123987.38349 -10913753.57649  22697114.6154   22697120.5154
 98  2  3 19  9 30.0030000  0  8 10  3 19  2 18 27 13 31
  24884224.153    -5803928.60449  -4507710.98449  24884222.5814   24884230.7314
  25185955.923     3824655.74649   2981234.53449  25185955.5964   25185963.7924
  21624427.780    -4149005.43949  -3232227.26349  21624427.3404   21624432.5704
  24053413.187   -12018837.96049  -9158987.70049  24053412.1494   24053419.2744
  22056846.419     4309906.36749   3359235.06249  22056845.7334   22056851.4964
  22960941.050   -15147207.92449 -11718877.69649  22960940.4624   22960946.1264
  22003484.020   -17770428.14649 -13683676.01449  22003483.8454   22003487.9224
  22698200.205   -14118288.36449 -10909312.81249  22698199.5934   22698204.5274
 98  2  3 19 10  0.0030000  0  8 10  3 19  2 18 27 13 31
  24884902.471    -5800363.61649  -4504933.09749  24884900.6524   24884908.9524
  25200622.309     3901727.94249   3041290.73249  25200621.5934   25200628.5554
  21625596.088    -4142866.06049  -3227443.35149  21625595.7524   21625600.9324
  24042708.206   -12075093.13449  -9202822.89349  24042706.9204   24042714.3284
  22071387.186     4386318.60749   3418777.02249  22071386.6274   22071392.3894
  22951390.190   -15197398.13049 -11757986.93649  22951389.2544   22951395.0334
  21994664.962   -17816772.69249 -13719788.64449  21994664.8504   21994668.9134
  22699399.949   -14111983.72749 -10904400.13349  22699398.8834   22699404.6324
 98  2  3 19 10 30.0030000  0  8 10  3 19  2 18 27 13 31
  24885673.625    -5796311.11249  -4501775.31449  24885673.0974   24885680.8664
  25215366.416     3979208.54849   3101665.16549  25215366.6454   25215373.8914
  21626799.636    -4136541.56649  -3222515.19249  21626799.2684   21626804.4134
  24032043.735   -12131135.40749  -9246492.18549  24032042.5834   24032049.7574
  22086006.166     4463141.88449   3478639.26649  22086005.5574   22086011.4934
  22941853.649   -15247513.01949 -11797037.47949  22941852.9764   22941858.5094
  21985927.826   -17862686.43349 -13755565.58249  21985927.8194   21985931.4944
  22700715.558   -14105070.24349 -10899013.03049  22700715.0624   22700720.3744
 98  2  3 19 11  0.0030000  0  8 10  3 19  2 18 27 13 31
  24886541.446    -5791750.09849  -4498221.29349  24886540.3674   24886548.6744
  25230193.197     4057124.01049   3162378.46149  25230192.4014   25230199.6924
  21628043.478    -4130005.44649  -3217422.13249  21628042.9274   21628048.1684
  24021425.242   -12186935.70849  -9289972.92949  24021424.4444   24021431.7664
  22100708.896     4540405.15349   3538844.36249  22100708.5784   22100713.9614
  22932334.793   -15297534.97449 -11836015.61549  22932334.1754   22932339.6524
  21977277.120   -17908146.28249 -13790988.83549  21977276.9784   21977281.0014
  22702151.483   -14097524.22449 -10893133.04149  22702150.6484   22702155.8584
 98  2  3 19 11 30.0030000  0  8 10  3 19  2 18 27 13 31
  24887508.705    -5786667.75449  -4494261.02749  24887507.5274   24887515.3664
  25245104.506     4135483.43849   3223437.69049  25245105.6374   25245110.4324
  21629330.988    -4123239.58449  -3212150.04849  21629330.4464   21629335.6694
  24010855.123   -12242482.02449  -9333255.77049  24010854.2124   24010861.5074
  22115497.185     4618117.71949   3599399.56149  22115496.7404   22115502.1564
  22922829.916   -15347483.32549 -11874936.39749  22922829.1364   22922834.8424
  21968709.622   -17953168.79549 -13826071.30549  21968709.4494   21968713.6654
  22703707.267   -14089348.51149 -10886762.37549  22703706.3614   22703712.4044
 98  2  3 19 12  0.0030000  0  8 10  3 19  2 18 27 13 31
  24888579.937    -5781038.45249  -4489874.58849  24888579.1354   24888586.5674
  25260102.557     4214298.57749   3284852.04749  25260101.3164   25260111.3514
  21630664.843    -4116230.13249  -3206688.15849  21630664.3434   21630669.6364
  24000337.241   -12297753.75749  -9376324.63949  24000336.0534   24000343.5844
  22130377.145     4696312.25649   3660330.31449  22130376.7594   22130382.0454
  22913341.705   -15397344.17849 -11913789.00349  22913341.1844   22913346.6214
  21960226.362   -17997748.51949 -13860808.74849  21960226.4624   21960230.3264
  22705385.450   -14080529.71349 -10879890.59749  22705384.5394   22705390.4704
 98  2  3 19 12 30.0030000  0  8 10  3 19  2 18 27 13 31
  24889753.785    -5774870.28949  -4485068.24549  24889752.5834   24889759.7194
  25275180.311     4293532.62749   3346592.80549  25275179.5874   25275187.6194
  21632039.257    -4109007.70949  -3201060.31849  21632038.6514   21632044.3184
  23989868.203   -12352768.87049  -9419193.54949  23989867.3004   23989874.3514
  22145345.411     4774970.59249   3721622.46849  22145345.0974   22145350.3234
  22903868.205   -15447127.63049 -11952581.29649  22903867.3234   22903872.9764
  21951820.971   -18041919.21249 -13895227.46949  21951820.9714   21951824.7354
  22707179.358   -14071103.01449 -10872545.12749  22707178.5874   22707183.6904
 98  2  3 19 13  0.0030000  0  8 10  3 19  2 18 27 13 31
  24891037.406    -5768125.20249  -4479812.36249  24891036.0244   24891043.1104
  25290343.049     4373213.42449   3408681.71849  25290342.5204   25290349.2724
  21633458.346    -4101550.36749  -3195249.42149  21633457.8394   21633463.3744
  23979452.846   -12407501.76349  -9461842.55349  23979451.7014   23979459.2264
  22160405.732     4854112.71249   3783291.59549  22160405.0514   22160410.3334
  22894415.777   -15496800.25149 -11991287.22449  22894415.1064   22894420.9134
  21943495.939   -18085667.53449 -13929317.07149  21943495.8844   21943499.7574
  22709092.209   -14061050.85349 -10864712.27949  22709091.6234   22709096.6514
 98  2  3 19 13 30.0030000  0  8 10  3 19  2 18 27 13 31
  24892427.212    -5760821.97649  -4474121.55949  24892426.6724   24892433.0574
  25305585.321     4453311.92149   3471096.10549  25305583.3394   25305592.3684
  21634921.519    -4093861.36149  -3189257.99349  21634921.1264   21634926.4764
  23969088.057   -12461969.25949  -9504284.74349  23969087.2164   23969093.9854
  22175554.814     4933721.39549   3845324.28249  22175554.1334   22175559.6444
  22884988.107   -15546343.07649 -12029892.00749  22884987.3534   22884992.8794
  21935250.369   -18128998.31149 -13963081.30949  21935250.0924   21935254.3884
  22711121.368   -14050387.70049 -10856403.31649  22711120.6784   22711126.2274
 98  2  3 19 14  0.0030000  0  8 10  3 19  2 18 27 13 31
  24893921.764    -5752968.16349  -4468001.73649  24893921.3774   24893928.3774
  25320905.790     4533821.47949   3533830.79449  25320905.4924   25320912.2884
  21636432.679    -4085920.18449  -3183070.07649  21636432.0504   21636437.5744
  23958773.856   -12516170.80649  -9546519.69549  23958772.7374   23958780.4794
  22190790.632     5013785.98749   3907712.22149  22190790.1564   22190795.5404
  22875590.866   -15595725.79149 -12068372.03449  22875590.3584   22875596.0454
  21927090.777   -18171877.16549 -13996493.40449  21927090.5814   21927094.5434
  22713268.202   -14039106.17049 -10847612.51549  22713267.4924   22713272.7784
 98  2  3 19 14 30.0030000  0  8 10  3 19  2 18 27 13 31
  24895518.690    -5744576.29949  -4461462.65149  24895517.3524   24895524.8574
  25336306.064     4614749.68149   3596891.71349  25336305.8004   25336313.3054
  21637996.150    -4077704.08949  -3176667.94149  21637995.4674   21638000.8554
  23948512.516   -12570094.58149  -9588538.20249  23948511.2314   23948518.8454
  22206108.193     5094280.56549   3970435.21349  22206107.4524   22206113.2654
  22866223.484   -15644951.68149 -12106729.86149  22866222.5344   22866228.5354
  21919017.128   -18214304.58749 -14029553.73249  21919017.0804   21919020.9994
  22715535.093   -14027193.59549 -10838329.98949  22715534.1334   22715539.2084
 98  2  3 19 15  0.0030000  0  8 10  3 19  2 18 27 13 31
  24897218.275    -5735644.62049  -4454502.93749  24897217.5054   24897224.3294
  25351788.041     4696108.16249   3660287.90449  25351787.5634   25351794.8334
  21639617.420    -4069184.24649  -3170029.12449  21639617.0454   21639622.4274
  23938305.293   -12623733.81549  -9630334.98949  23938304.6174   23938311.5804
  22221507.191     5175202.86349   4033491.49649  22221506.6814   22221512.6574
  22856887.164   -15694014.41449 -12144960.55349  22856886.4574   22856891.9154
  21911035.238   -18256249.67249 -14062238.21349  21911035.1364   21911039.0324
  22717927.303   -14014622.61449 -10828534.42749  22717926.5374   22717932.0364
 98  2  3 19 15 30.0030000  0  8 10  3 19  2 18 27 13 31
  24899027.177    -5726139.20349  -4447096.15049  24899025.1044   24899034.1384
  25367356.779     4777921.96849   3724038.88849  25367356.3254   25367364.4124
  21641304.777    -4060317.21549  -3163119.76549  21641304.0074   21641309.7584
  23928160.223   -12677046.69549  -9671877.47549  23928159.5804   23928166.8204
  22236996.195     5256597.92249   4096916.16049  22236995.6684   22237001.5104
  22847587.169   -15742886.30549 -12183042.53349  22847586.2954   22847591.8364
  21903156.077   -18297655.10249 -14094502.18649  21903155.9014   21903159.8814
  22720453.269   -14001348.42949 -10818190.91049  22720452.1684   22720457.9274
 98  2  3 19 16  0.0030000  0  8 10  3 19  2 18 27 13 31
  24900937.056    -5716102.71249  -4439275.55049  24900935.9514   24900943.1564
  25383005.339     4860154.97449   3788116.52049  25383003.9324   25383012.0704
  21643045.429    -4051170.20849  -3155992.24049  21643044.8724   21643050.3444
  23918068.968   -12730076.69349  -9713199.52649  23918067.9364   23918074.9864
  22252567.747     5338426.69849   4160678.78849  22252567.0384   22252572.6824
  22838308.879   -15791643.97349 -12221035.50549  22838307.9884   22838313.6094
  21895368.186   -18338580.70549 -14126392.26949  21895368.0424   21895371.9184
  22723103.797   -13987420.00249 -10807337.60749  22723103.0834   22723108.1334
 98  2  3 19 16 30.0030000  0  8 10  3 19  2 18 27 13 31
  24902942.838    -5705562.63449  -4431062.55049  24902941.9224   24902949.5574
  25398729.518     4942785.63149   3852503.99349  25398729.1564   25398736.2264
  21644829.907    -4041792.93349  -3148685.28249  21644829.2674   21644834.6174
  23908025.955   -12782852.93749  -9754323.84549  23908024.6794   23908032.0154
  22268220.141     5420680.37649   4224772.51049  22268219.8024   22268225.4374
  22829044.830   -15840326.80349 -12258970.16149  22829044.0724   22829049.7184
  21887663.219   -18379070.59849 -14157942.83549  21887663.1364   21887667.1384
  22725872.551   -13972869.96949 -10795999.92849  22725871.6364   22725877.3464
 98  2  3 19 17  0.0030000  0  8 10  3 19  2 18 27 13 31
  24905049.879    -5694490.24749  -4422434.75149  24905048.1144   24905057.0994
  25414531.802     5025826.38449   3917211.00449  25414531.9664   25414539.0384
  21646657.642    -4032188.19549  -3141201.08249  21646657.1014   21646662.4704
  23898033.032   -12835366.00849  -9795243.09049  23898031.8774   23898039.2144
  22283960.890     5503398.18149   4289227.88349  22283960.7654   22283966.2854
  22819799.515   -15888911.09949 -12296828.04549  22819798.7424   22819804.5254
  21880046.670   -18419095.75349 -14189131.27449  21880046.4594   21880050.5654
  22728760.713   -13957692.57149 -10784173.40049  22728759.6574   22728765.3994
 98  2  3 19 17 30.0030000  0  8 10  3 19  2 18 27 13 31
  24907259.344    -5682879.14149  -4413387.19049  24907258.0644   24907266.4294
  25430412.603     5109280.29749   3982239.95049  25430412.5124   25430419.2444
  21648528.493    -4022356.92849  -3133540.37149  21648527.8064   21648533.3994
  23888093.232   -12887599.85149  -9835944.75449  23888092.1384   23888098.9044
  22299793.985     5586601.31749   4354061.43549  22299793.6744   22299799.3354
  22810574.070   -15937390.91949 -12334604.51749  22810573.3794   22810579.0924
  21872517.590   -18458661.31249 -14219961.58749  21872517.4714   21872521.4824
  22731769.137   -13941883.48749 -10771854.64849  22731768.5844   22731773.8704
 98  2  3 19 18  0.0030000  0  8 10  3 19  2 18 27 13 31
  24909566.617    -5670754.44449  -4403939.40749  24909564.7274   24909573.7044
  25446369.301     5193133.34549   4047579.91449  25446369.3254   25446376.3464
  21650438.388    -4012320.31649  -3125719.64749  21650437.8444   21650443.2314
  23878202.318   -12939576.99849  -9876446.39649  23878201.6254   23878208.2774
  22315714.442     5670263.53049   4419252.71549  22315713.9734   22315719.8094
  22801367.013   -15985774.34849 -12372305.87649  22801366.3034   22801372.1704
  21865072.748   -18497784.28049 -14250447.01649  21865072.7254   21865076.7724
  22734895.976   -13925452.27849 -10759051.12849  22734895.4794   22734900.4364
 98  2  3 19 18 30.0030000  0  8 10  3 19  2 18 27 13 31
  24911970.515    -5658122.13849  -4394096.08949  24911969.5124   24911977.6884
  25462399.269     5277371.11849   4113219.64849  25462398.7184   25462406.2834
  21652388.730    -4002071.30849  -3117733.42649  21652388.2644   21652393.6324
  23868358.709   -12991305.11749  -9916753.98949  23868357.7304   23868364.5234
  22331717.048     5754357.46249   4484780.39549  22331716.6244   22331722.2204
  22792178.537   -16034060.13849 -12409931.15549  22792177.8444   22792183.4424
  21857715.543   -18536446.74649 -14280573.61549  21857715.4884   21857719.3854
  22738140.593   -13908401.61749 -10745764.92049  22738139.8934   22738145.1784
 98  2  3 19 19  0.0030000  0  8 10  3 19  2 18 27 13 31
  24914474.210    -5644965.47049  -4383844.19049  24914473.1094   24914481.3904
  25478503.121     5361997.18149   4179161.93149  25478501.9504   25478510.7694
  21654383.268    -3991590.04249  -3109566.23049  21654382.7534   21654387.9564
  23858562.963   -13042781.80749  -9956865.65649  23858561.9214   23858568.8024
  22347800.561     5838876.86349   4550639.61049  22347799.9804   22347805.7534
  22783012.329   -16082228.87349 -12447465.21849  22783011.5394   22783017.1684
  21850446.949   -18574643.50349 -14310337.31849  21850446.7804   21850450.8534
  22741508.643   -13890702.48849 -10731973.41649  22741507.9124   22741513.3904
 98  2  3 19 19 30.0030000  0  8 10  3 19  2 18 27 13 31
  24917077.865    -5631283.08849  -4373182.62849  24917077.3164   24917084.1634
  25494683.122     5447023.57749   4245416.18949  25494681.8094   25494690.6834
  21656425.359    -3980858.87649  -3101204.30349  21656424.8194   21656430.4024
  23848816.008   -13094002.26149  -9996777.66749  23848814.8594   23848822.3034
  22363964.627     5923819.52049   4616828.63449  22363964.1004   22363969.8854
  22773870.669   -16130268.61449 -12484898.77049  22773870.1484   22773875.5064
  21843268.489   -18612366.65549 -14339731.97949  21843268.4904   21843272.3784
  22745004.030   -13872334.02349 -10717660.34949  22745002.9824   22745008.6934
 98  2  3 19 20  0.0030000  0  8 10  3 19  2 18 27 13 31
  24919779.674    -5617085.25949  -4362119.42749  24919778.3564   24919786.6274
  25510937.320     5532440.13549   4311974.45449  25510935.9274   25510944.7204
  21658512.900    -3969888.92449  -3092656.30749  21658512.2744   21658517.6844
  23839113.137   -13144991.25849 -10036509.32049  23839112.3464   23839118.8644
  22380205.390     6009165.09549   4683331.62149  22380204.9964   22380210.7444
  22764751.327   -16178191.16349 -12522241.00749  22764750.7314   22764756.0344
  21836179.517   -18649619.37649 -14368760.06849  21836179.3584   21836183.2914
  22748622.601   -13853318.19049 -10702842.84149  22748621.6274   22748627.3334
 98  2  3 19 20 30.0030000  0  8 10  3 19  2 18 27 13 31
  24922582.675    -5602355.73449  -4350641.93049  24922580.9664   24922589.8724
  25527266.371     5618249.95649   4378839.14149  25527266.9714   25527274.7774
  21660648.664    -3958665.19549  -3083910.56049  21660648.0854   21660653.6254
  23829455.433   -13195742.58549 -10076055.77449  23829454.3224   23829461.2454
  22396526.397     6094932.21949   4750163.08949  22396525.9984   22396531.5744
  22755656.940   -16225982.27949 -12559480.82049  22755656.0774   22755661.8384
  21829181.333   -18686395.18349 -14397416.53649  21829181.1824   21829185.2354
  22752364.552   -13833654.30649 -10687520.35749  22752363.4574   22752369.3944
 98  2  3 19 21  0.0030000  0  8 10  3 19  2 18 27 13 31
  24925485.819    -5587099.93549  -4338754.33149  24925485.0864   24925492.5074
  25543669.738     5704450.02649   4446007.94549  25543669.8754   25543676.9254
  21662832.153    -3947190.93849  -3074969.59549  21662831.8344   21662837.0544
  23819844.003   -13246250.97949 -10115412.93949  23819842.9764   23819849.7664
  22412931.342     6181140.48649   4817338.30349  22412931.0914   22412936.5914
  22746588.406   -16273637.70249 -12596614.90149  22746587.5954   22746593.3234
  21822272.514   -18722701.17949 -14425706.91849  21822272.4654   21822276.3064
  22756228.923   -13813347.19749 -10671696.66149  22756228.0214   22756233.3364
 98  2  3 19 21 30.0030000  0  8 10  3 19  2 18 27 13 31
  24928482.428    -5571352.73449  -4326483.81849  24928480.7624   24928489.6724
  25560141.678     5791009.73149   4513456.97349  25560140.3234   25560148.5644
  21665056.903    -3935500.06649  -3065859.84649  21665056.2944   21665061.7624
  23810276.917   -13296526.34949 -10154588.52049  23810276.0294   23810283.1014
  22429416.826     6267771.94249   4884843.27249  22429416.4684   22429422.0964
  22737538.736   -16321194.09149 -12633671.81849  22737537.9404   22737543.6854
  21815452.939   -18758538.33349 -14453631.96849  21815452.9064   21815456.7334
  22760205.908   -13792448.15449 -10655411.71749  22760205.1584   22760210.4234
 98  2  3 19 22  0.0030000  0  8 10  3 19  2 18 27 13 31
  24931576.014    -5555096.22049  -4313816.45049  24931574.8004   24931582.3404
  25576685.183     5877945.53749   4581199.07649  25576684.8204   25576691.9544
  21667327.474    -3923568.09549  -3056562.22649  21667326.9824   21667332.4524
  23800759.324   -13346541.43749 -10193561.28449  23800758.3084   23800765.5114
  22445987.297     6354849.94049   4952696.20249  22445986.9574   22445992.7464
  22728511.548   -16368632.11449 -12670636.49649  22728510.7094   22728516.6094
  21808725.569   -18793891.00349 -14481179.49249  21808725.3244   21808729.3004
  22764298.133   -13770943.53249 -10638654.88749  22764297.5054   22764303.0534
 98  2  3 19 22 30.0030000  0  8 10  3 19  2 18 27 13 31
  24934766.834    -5538328.23749  -4300750.53849  24934764.8914   24934773.8574
  25593301.475     5965264.37849   4649239.66849  25593300.3674   25593308.2144
  21669646.941    -3911379.37349  -3047064.54149  21669646.2964   21669651.9964
  23791295.394   -13396274.67349 -10232314.43149  23791293.9804   23791301.0534
  22462643.299     6442377.50849   5020899.44249  22462642.9164   22462648.7824
  22719508.343   -16415944.47449 -12707503.25949  22719507.5824   22719513.1734
  21802090.765   -18828756.89849 -14508347.71449  21802090.5874   21802094.5894
  22768509.788   -13748811.40449 -10621409.10049  22768508.7194   22768514.2024
 98  2  3 19 23  0.0030000  0  8 10  3 19  2 18 27 13 31
  24938052.476    -5521062.28249  -4287296.58649  24938051.1264   24938059.7414
  25609990.074     6052963.60649   4717576.64549  25609990.0534   25609996.6364
  21672012.658    -3898947.70349  -3037377.54349  21672012.1684   21672017.6244
  23781885.550   -13445723.52049 -10270845.97549  23781884.4844   23781891.4254
  22479378.896     6530323.65049   5089428.83949  22479378.2904   22479384.2414
  22710524.459   -16463155.03349 -12744290.69649  22710523.9714   22710529.3884
  21795548.934   -18863134.48849 -14535135.44149  21795548.7864   21795552.7694
  22772841.570   -13726047.70149 -10603671.17149  22772840.9004   22772846.5964
 98  2  3 19 23 30.0030000  0  8 10  3 19  2 18 27 13 31
  24941433.907    -5503292.74649  -4273450.25349  24941433.2654   24941440.4624
  25626752.758     6141052.64549   4786217.39249  25626753.5784   25626759.4464
  21674427.093    -3886259.84249  -3027490.90949  21674426.5474   21674432.0304
  23772529.585   -13494889.27949 -10309156.93049  23772528.8914   23772535.2104
  22496192.450     6618679.14749   5158277.22149  22496192.1804   22496197.9134
  22701560.790   -16510259.49149 -12780995.45749  22701559.8474   22701565.7764
  21789099.948   -18897024.09849 -14561542.92349  21789099.8604   21789103.9384
  22777294.756   -13702646.31849 -10585436.35249  22777293.5084   22777299.4794
 98  2  3 19 24  0.0040000  0  8 10  3 19  2 18 27 13 31
  24944912.575    -5485012.55149  -4259205.98649  24944911.3074   24944919.8434
  25643590.543     6229535.94749   4855165.36749  25643589.8324   25643598.1054
  21676894.078    -3873296.00549  -3017389.23449  21676893.5994   21676899.0694
  23763228.029   -13543769.31349 -10347245.23949  23763226.8404   23763233.5464
  22513084.804     6707448.98649   5227448.45749  22513084.2564   22513090.4454
  22692618.501   -16557251.45449 -12817612.55749  22692617.9674   22692623.2534
  21782742.295   -18930433.87049 -14587576.51049  21782742.1914   21782746.0624
  22781875.288   -13678575.36549 -10566679.79549  22781874.2474   22781879.9224
 98  2  3 19 24 30.0040000  0  8 10  3 19  2 18 27 13 31
  24948486.096    -5466233.77849  -4244573.23149  24948484.8334   24948492.8534
  25660497.952     6318384.69049   4924398.09449  25660497.5274   25660505.4494
  21679409.490    -3860077.50849  -3007089.12049  21679408.9184   21679414.3204
  23753978.616   -13592375.09349 -10385119.84349  23753977.4944   23753984.3684
  22530051.586     6796609.75349   5296924.31349  22530051.2204   22530057.1274
  22683696.896   -16604134.70649 -12854144.94349  22683696.1444   22683701.5864
  21776478.036   -18963352.97949 -14613227.75849  21776478.0284   21776481.7574
  22786580.378   -13653849.88449 -10547413.21249  22786579.2494   22786585.2764
 98  2  3 19 25  0.0040000  0  8 10  3 19  2 18 27 13 31
  24952155.514    -5446951.29849  -4229547.97149  24952154.8334   24952162.2394
  25677475.656     6407603.11749   4993918.89549  25677475.2244   25677482.8674
  21681974.144    -3846600.26549  -2996587.38349  21681973.4924   21681978.9154
  23744779.986   -13640714.24149 -10422786.68349  23744778.9624   23744785.5344
  22547095.047     6886173.18049   5366713.93449  22547094.6314   22547100.6234
  22674798.348   -16650896.80349 -12890582.92749  22674797.4344   22674803.0034
  21770309.082   -18995771.16849 -14638488.68349  21770308.9594   21770312.9114
  22791406.347   -13628489.13849 -10527651.61249  22791405.4884   22791410.8654
 98  2  3 19 25 30.0040000  0  8 10  3 19  2 18 27 13 31
  24955920.867    -5427164.41349  -4214129.67549  24955920.0464   24955927.6354
  25694520.431     6497173.83849   5063714.20749  25694520.5844   25694527.4994
  21684589.181    -3832858.16149  -2985879.25549  21684588.4324   21684594.0414
  23735629.607   -13688799.78849 -10460255.90149  23735628.5164   23735635.4374
  22564216.748     6976147.98849   5436824.11249  22564216.1684   22564222.1224
  22665926.029   -16697521.01449 -12926913.45649  22665925.2264   22665930.5004
  21764232.452   -19027704.21249 -14663371.56449  21764232.2264   21764236.2274
  22796348.331   -13602518.80749 -10507415.01049  22796347.5074   22796353.1284
 98  2  3 19 26  0.0040000  0  8 10  3 19  2 18 27 13 31
  24959781.565    -5406876.45949  -4198320.94549  24959780.6534   24959788.4554
  25711627.676     6587072.19249   5133764.82249  25711627.2514   25711635.1634
  21687251.486    -3818867.70549  -2974977.60749  21687250.9494   21687256.3214
  23726524.390   -13736647.78449 -10497540.02149  23726523.4304   23726530.2704
  22581414.574     7066522.90649   5507246.06249  22581414.1224   22581420.1664
  22657079.768   -16744008.37549 -12963137.35149  22657078.8614   22657084.5414
  21758248.325   -19059150.79749 -14687875.38849  21758247.9484   21758252.0264
  22801404.314   -13575949.56349 -10486711.72049  22801403.5074   22801409.4324
 98  2  3 19 26 30.0040000  0  8 10  3 19  2 18 27 13 31
  24963738.528    -5386082.82649  -4182118.17549  24963738.2444   24963745.3904
  25728795.688     6677290.34549   5204064.63149  25728794.9564   25728803.0814
  21689958.676    -3804641.26749  -2963892.07349  21689957.8654   21689963.4324
  23717462.291   -13784269.46249 -10534647.78449  23717461.2134   23717467.6944
  22598685.604     7157282.69649   5577967.90849  22598684.8664   22598690.8784
  22648260.352   -16790354.79349 -12999251.42549  22648259.5664   22648265.3074
  21752355.985   -19090115.23249 -14712003.51249  21752355.7074   21752359.7294
  22806570.784   -13548799.96249 -10465556.20249  22806569.9204   22806575.2864
 98  2  3 19 27  0.0040000  0  8 10  3 19  2 18 27 13 31
  24967792.321    -5364780.72749  -4165519.19549  24967791.6184   24967798.9054
  25746025.750     6767834.39549   5274618.39349  25746026.2474   25746034.5874
  21692712.737    -3790168.63249  -2952614.69849  21692712.1784   21692717.8614
  23708446.917   -13831645.34649 -10571564.01549  23708445.7054   23708452.4784
  22616031.139     7248433.89049   5648994.74749  22616030.4684   22616036.5124
  22639466.353   -16836567.28449 -13035261.14049  22639465.4244   22639471.2474
  21746553.566   -19120607.04149 -14735763.35649  21746553.2544   21746557.2904
  22811851.567   -13521049.20349 -10443932.25249  22811850.5844   22811856.1774
 98  2  3 19 27 30.0040000  0  8 10  3 19  2 18 27 13 31
  24971941.066    -5342978.91249  -4148530.82549  24971939.6064   24971947.5254
  25763314.944     6858689.06149   5345414.20149  25763314.5284   25763322.1894
  21695508.700    -3775475.77749  -2941165.72449  21695508.1324   21695513.5784
  23699479.323   -13878769.99749 -10608284.48149  23699477.9534   23699485.0274
  22633448.005     7339959.96849   5720313.70149  22633447.5704   22633453.4304
  22630694.971   -16882661.23649 -13071178.49349  22630694.3064   22630699.6374
  21740840.116   -19150631.39949 -14759158.95649  21740839.8104   21740843.6984
  22817250.363   -13492678.34449 -10421825.10349  22817249.7274   22817255.2254
 98  2  3 19 28  0.0040000  0  8 10  3 19  2 18 27 13 31
  24976185.215    -5320675.80149  -4131151.82849  24976185.0874   24976191.6364
  25780668.630     6949882.92749   5416474.31849  25780667.3554   25780675.6014
  21698348.829    -3760550.76649  -2929535.84449  21698348.1564   21698353.7784
  23690565.231   -13925613.53949 -10644785.90349  23690564.4044   23690571.2474
  22650937.753     7431869.07649   5791931.12049  22650937.1034   22650943.5714
  22621947.534   -16928629.29749 -13106997.74849  22621946.7524   22621952.2764
  21735220.978   -19180160.24249 -14782168.44549  21735220.8304   21735224.6914
  22822774.736   -13463648.02449 -10399204.08149  22822774.1524   22822779.8114
 98  2  3 19 28 30.0040000  0  8 10  3 19  2 18 27 13 31
  24980521.578    -5297888.07749  -4113395.20049  24980520.1164   24980528.8564
  25798089.334     7041428.86749   5487808.78449  25798088.6254   25798096.8094
  21701233.816    -3745389.97949  -2917722.23849  21701233.2694   21701238.6304
  23681705.103   -13972173.53949 -10681066.38349  23681703.9184   23681711.3214
  22668500.048     7524159.49849   5863845.67349  22668499.5744   22668505.6224
  22613222.770   -16974478.19249 -13142724.14049  22613221.8924   22613227.2224
  21729698.158   -19209182.93049 -14804783.52349  21729698.1134   21729701.8214
  22828424.424   -13433958.86449 -10376069.67449  22828423.2314   22828428.9574
 98  2  3 19 29  0.0040000  0  8 10  3 19  2 18 27 13 31
  24984946.768    -5274633.91849  -4095275.12749  24984945.7724   24984953.7404
  25815576.683     7133325.17249   5559416.24749  25815575.9094   25815583.5654
  21704162.551    -3729999.41649  -2905729.58949  21704161.8814   21704167.3434
  23672895.316   -14018468.97349 -10717140.70749  23672894.3964   23672901.5054
  22686131.042     7616810.73249   5936041.37749  22686130.6094   22686136.3024
  22604518.568   -17020219.13349 -13178366.41949  22604517.9284   22604523.2974
  21724272.214   -19237696.46449 -14827001.85649  21724272.1094   21724275.8074
  22834194.518   -13403636.81649 -10352442.09849  22834193.7574   22834199.1174
 98  2  3 19 29 30.0040000  0  8 10  3 19  2 18 27 13 31
  24989465.083    -5250890.12949  -4076773.50549  24989463.4944   24989471.5314
  25833134.471     7225591.52249   5631312.06349  25833133.3444   25833141.0434
  21707138.759    -3714359.21449  -2893542.41949  21707138.2214   21707143.6204
  23664134.010   -14064509.93149 -10753016.74249  23664132.8424   23664139.8734
  22703831.323     7709825.78049   6008520.56749  22703830.8054   22703836.8264
  22595840.796   -17065820.99449 -13213900.32249  22595840.1654   22595845.5004
  21718948.501   -19265672.95249 -14848801.71649  21718948.4254   21718952.2164
  22840083.835   -13372688.29549 -10328326.35949  22840083.3894   22840088.6114
 98  2  3 19 30  0.0040000  0  8 10  3 19  2 18 27 13 31
  24994075.531    -5226662.23249  -4057894.66749  24994075.0824   24994081.6934
  25850760.187     7318215.43749   5703486.48649  25850758.9824   25850766.9614
  21710163.716    -3698463.01949  -2881155.77449  21710163.2774   21710168.6014
  23655417.226   -14110316.96649 -10788710.50549  23655416.1064   23655423.0434
  22721600.638     7803203.79049   6081282.58349  22721599.9844   22721606.1864
  22587188.734   -17111287.80449 -13249328.98849  22587187.9454   22587193.4444
  21713727.776   -19293107.96949 -14870179.65649  21713727.5394   21713731.4774
  22846088.021   -13341136.16649 -10303740.28249  22846086.9134   22846092.4324
 98  2  3 19 30 30.0040000  0  7 10 19  2 18 27 13 31
  24998780.005    -5201940.09949  -4038630.71749  24998778.1064   24998787.2504
  21713237.703    -3682309.34349  -2868568.49349  21713237.1394   21713242.6084
  23646744.653   -14155891.67049 -10824223.22649  23646743.4404   23646751.0154
  22739442.057     7896960.66149   6154339.81549  22739441.5624   22739447.3944
  22578563.052   -17156616.22249 -13284649.81449  22578562.2274   22578567.8224
  21708610.307   -19320000.31349 -14891134.72749  21708609.9624   21708614.0584
  22852203.944   -13308996.75049 -10278696.57349  22852202.9194   22852208.2904
 98  2  3 19 31  0.0040000  0  7 10 19  2 18 27 13 31
  25003580.653    -5176712.62049  -4018972.99049  25003579.4624   25003587.1524
  21716360.223    -3665900.45949  -2855782.35249  21716359.4474   21716364.9884
  23638120.810   -14201210.35049 -10859536.45449  23638119.8204   23638126.7874
  22757357.078     7991104.31549   6227698.43849  22757356.5604   22757362.3734
  22569964.165   -17201803.58149 -13319860.73449  22569963.3994   22569969.2204
  21703592.191   -19346370.72949 -14911683.10549  21703591.8864   21703595.8264
  22858432.143   -13276267.33849 -10253193.13249  22858431.5274   22858436.9434
 98  2  3 19 31 30.0040000  0  7 10 19  2 18 27 13 31
  25008477.055    -5150982.01449  -3998923.21149  25008476.4824   25008483.7754
  21719531.624    -3649234.58649  -2842795.95949  21719530.9224   21719536.3824
  23629551.070   -14246244.48949 -10894627.96649  23629550.1034   23629556.5684
  22775351.400     8085665.03249   6301382.04249  22775350.9434   22775357.0544
  22561394.074   -17246839.69449 -13354953.80249  22561393.3224   22561398.9354
  21698671.600   -19372228.67949 -14931832.15849  21698671.4224   21698675.4024
  22864779.038   -13242913.86949 -10227203.41149  22864778.1634   22864783.4394
 98  2  3 19 32  0.0040000  0  7 10 19  2 18 27 13 31
  25013460.524    -5124794.11849  -3978517.09849  25013459.2724   25013467.5424
  21722745.365    -3632346.15849  -2829636.14349  21722744.6674   21722750.2514
  23621033.514   -14291004.75749 -10929506.06849  23621032.5494   23621039.1584
  22793421.529     8180623.81049   6375375.83649  22793420.8734   22793427.2194
  22552846.463   -17291757.56749 -13389954.71949  22552845.7604   22552851.2264
  21693840.453   -19397616.55249 -14951614.91349  21693840.3574   21693844.1044
  22871241.924   -13208951.30849 -10200739.07049  22871241.3594   22871246.7344
 98  2  3 19 32 30.0040000  0  7 10 19  2 18 27 13 31
  25018535.688    -5098124.07549  -3957735.28649  25018534.3994   25018543.2374
  21726008.087    -3615200.49249  -2816275.88049  21726007.3684   21726012.8444
  23612573.335   -14335463.23049 -10964149.00149  23612571.9574   23612578.5634
  22811570.067     8275994.94449   6449690.94449  22811569.5594   22811575.6414
  22544327.451   -17336525.30949 -13424838.64949  22544326.4684   22544332.2054
  21689099.465   -19422530.68449 -14971028.52149  21689099.2894   21689103.0314
  22877826.859   -13174347.61049 -10173775.14349  22877825.9714   22877831.3204
 98  2  3 19 33  0.0040000  0  7 10 19  2 18 27 13 31
  25023703.908    -5070965.58249  -3936572.86649  25023702.3414   25023710.9004
  21729321.933    -3597786.11349  -2802706.24149  21729321.3344   21729326.8544
  23604167.714   -14379634.78949 -10998568.36449  23604166.6154   23604173.3874
  22829792.266     8371753.34249   6524307.81549  22829791.7244   22829798.1214
  22535838.205   -17381136.44649 -13459600.55349  22535837.4544   22535843.1624
  21684449.698   -19446965.41249 -14990068.57249  21684449.5084   21684453.4744
  22884535.230   -13139094.88049 -10146305.47749  22884534.2774   22884539.4934
 98  2  3 19 33 30.0040000  0  7 10 19  2 18 27 13 31
  25028960.315    -5043343.09749  -3915048.90249  25028958.9024   25028967.2004
  21732684.845    -3580113.93349  -2788935.71849  21732684.2864   21732689.6734
  23595808.686   -14423561.77849 -11032797.15649  23595807.4424   23595814.1644
  22848082.778     8467870.38049   6599204.14949  22848082.2724   22848088.6534
  22527376.013   -17425605.47749 -13494251.72849  22527375.1834   22527380.8384
  21679892.027   -19470916.13549 -15008731.47949  21679891.7934   21679895.7044
  22891363.791   -13103210.58849 -10118343.69049  22891363.1594   22891368.5914
 98  2  3 19 34  0.0040000  0  7 10 19  2 18 27 13 31
  25034306.353    -5015249.30549  -3893157.67849  25034304.9814   25034313.7344
  21736098.140    -3562176.91749  -2774958.83449  21736097.3634   21736102.8774
  23587491.591   -14467268.10949 -11066854.00049  23587490.3604   23587497.3264
  22866437.649     8564325.43049   6674363.85949  22866437.2754   22866443.4794
  22518939.640   -17469938.71049 -13528797.09549  22518938.7834   22518944.2854
  21675428.454   -19494372.27349 -15027008.99349  21675428.3034   21675432.2444
  22898307.967   -13066718.83649 -10089908.55949  22898307.0724   22898312.2714
 98  2  3 19 34 30.0040000  0  7 10 19  2 18 27 13 31
  25039747.644    -4986655.03549  -3870876.46849  25039746.3644   25039755.0604
  21739567.841    -3543943.31949  -2760750.83849  21739567.2514   21739572.5904
  23579218.750   -14510742.28649 -11100729.94849  23579217.5874   23579224.4184
  22884859.978     8661135.08549   6749799.89549  22884859.4914   22884865.7804
  22510532.299   -17514119.55849 -13563223.71449  22510531.2834   22510536.9214
  21671066.819   -19517292.76049 -15044869.11149  21671066.6234   21671070.5674
  22905368.958   -13029612.98149 -10060994.91049  22905367.9044   22905373.6694
 98  2  3 19 35  0.0040000  0  7 10 19  2 18 27 13 31
  25045280.201    -4957581.55849  -3848221.84649  25045278.8244   25045286.3154
  21743087.661    -3525446.73449  -2746337.91949  21743087.2044   21743092.5244
  23570986.581   -14554002.71549 -11134439.33649  23570985.3164   23570992.2324
  22903347.479     8758287.19349   6825502.77049  22903346.8834   22903353.0814
  22502150.367   -17558166.72549 -13597546.17049  22502149.8364   22502155.2044
  21666808.360   -19539671.17449 -15062306.83349  21666808.1014   21666812.0814
  22912541.767   -12991919.12549 -10031623.08149  22912540.8584   22912546.0604
 98  2  3 19 35 30.0040000  0  7 10 19  2 18 27 13 31
  25050906.228    -4928016.77749  -3825184.40649  25050904.9994   25050912.7044
  21746658.158    -3506683.72349  -2731717.39149  21746657.4924   21746662.9134
  23562800.955   -14597018.19249 -11167957.85249  23562799.7834   23562806.4444
  22921907.131     8855818.40149   6901501.05249  22921906.7044   22921913.1034
  22493797.398   -17602061.94049 -13631750.22549  22493796.5694   22493802.1834
  21662655.307   -19561495.51449 -15079312.80749  21662655.1664   21662658.9594
  22919830.376   -12953617.21549 -10001777.44049  22919829.3824   22919834.8694
 98  2  3 19 36  0.0040000  0  7 10 19  2 18 27 13 31
  25056625.029    -4897964.33849  -3801766.95449  25056623.6004   25056632.0744
  21750277.673    -3487663.14249  -2716896.16149  21750277.0964   21750282.5374
  23554661.059   -14639793.34249 -11201289.10549  23554659.9384   23554666.7984
  22940538.157     8953724.86449   6977791.72949  22940537.3964   22940543.7334
  22485471.282   -17645816.10049 -13665844.36749  22485470.4934   22485476.0884
  21658603.798   -19582786.25749 -15095902.99849  21658603.5314   21658607.6814
  22927231.808   -12914722.49549  -9971469.87949  22927230.9884   22927236.4414
 98  2  3 19 36 30.0040000  0  7 10 19  2 18 27 13 31
  25062438.636    -4867413.48349  -3777961.14149  25062437.4464   25062445.2514
  21753948.347    -3468373.61849  -2701865.36249  21753947.6954   21753953.2854
  23546573.768   -14682292.13449 -11234405.01449  23546572.4974   23546579.4364
  22959245.151     9052030.73249   7054393.64149  22959244.6264   22959250.7294
  22477176.087   -17689407.74849 -13699811.87349  22477175.3554   22477180.6364
  21654658.762   -19603517.61749 -15112057.29849  21654658.7124   21654662.4054
  22934751.593   -12875206.00249  -9940677.81649  22934750.2934   22934756.1794
 98  2  3 19 37  0.0040000  0  7 10 19  2 18 27 13 31
  25068349.067    -4836354.10349  -3753759.05149  25068347.5244   25068356.0534
  21757670.911    -3448811.67849  -2686622.29749  21757670.3984   21757676.1054
  23538543.919   -14724489.02149 -11267285.67649  23538542.7664   23538549.8014
  22978029.252     9150741.74449   7131311.25149  22978028.3924   22978034.6734
  22468914.587   -17732822.26949 -13733641.35249  22468913.9454   22468919.3854
  21650820.341   -19623688.71749 -15127775.03549  21650820.2294   21650823.9504
  22942395.310   -12835038.06949  -9909378.13149  22942394.3114   22942399.5794
 98  2  3 19 37 30.0040000  0  7 10 19  2 18 27 13 31
  25074356.009    -4804787.91949  -3729162.05349  25074355.1554   25074362.9334
  21761447.864    -3428963.75749  -2671156.38749  21761447.1844   21761452.7564
  23530573.779   -14766372.29549 -11299921.96349  23530572.4844   23530579.3084
  22996889.906     9249855.09449   7208542.37249  22996889.2654   22996895.4334
  22460686.099   -17776063.10449 -13767335.49549  22460685.3914   22460690.7694
  21647087.799   -19643303.33749 -15143059.14749  21647087.6334   21647091.4794
  22950165.305   -12794206.25249  -9877561.13249  22950164.5724   22950169.9714
 98  2  3 19 38  0.0040000  0  7 10 19  2 18 27 13 31
  25080455.945    -4772732.92249  -3704184.16049  25080455.6324   25080463.3274
  21765278.194    -3408835.27349  -2655471.85349  21765277.5724   21765283.2134
  23522659.890   -14807959.96649 -11332327.91349  23522658.8324   23522665.5614
  23015820.396     9349335.35749   7286059.39649  23015819.8994   23015826.1414
  22452487.086   -17819149.40349 -13800909.22349  22452486.1874   22452491.6294
  21643460.933   -19662362.79549 -15157910.66749  21643460.8344   21643464.4614
  22958057.854   -12752730.45149  -9845242.32649  22958057.0584   22958062.3474
 98  2  3 19 38 30.0040000  0  7 10 19  2 18 27 13 31
  25086648.010    -4740193.69849  -3678828.94549  25086647.9054   25086655.1554
  21769161.109    -3388430.39949  -2639571.95049  21769160.4544   21769165.7824
  23514802.455   -14849251.04849 -11364502.75549  23514801.5724   23514808.3304
  23034819.957     9449178.53049   7363859.20849  23034819.3664   23034826.0054
  22444318.254   -17862076.68449 -13834359.03649  22444317.7124   22444322.8134
  21639941.724   -19680856.32649 -15172321.20649  21639941.6004   21639945.4374
  22966075.290   -12710598.51049  -9812412.24249  22966074.3484   22966079.7654
 98  2  3 19 39  0.0040000  0  7 10 19  2 18 27 13 31
  25092936.215    -4707148.99649  -3653079.84849  25092935.4224   25092942.7504
  21773100.337    -3367729.56449  -2623441.43149  21773099.6674   21773104.8874
  23507000.870   -14890248.58649 -11396448.85849  23506999.5634   23507006.3824
  23053889.036     9549387.14849   7441943.77649  23053888.6854   23053895.0344
  22436183.115   -17904827.20049 -13867671.11349  22436182.4844   22436187.7064
  21636530.585   -19698781.91649 -15186289.19349  21636530.3224   21636534.1374
  22974219.617   -12667799.89549  -9779062.67549  22974219.1094   22974224.4574
 98  2  3 19 39 30.0040000  0  7 10 19  2 18 27 13 31
  25099318.090    -4673611.93149  -3626947.11649  25099316.8054   25099325.8414
  21777096.396    -3346730.23849  -2607078.31649  21777095.3914   21777101.0394
  23499250.209   -14930978.54449 -11428186.45249  23499249.1184   23499255.6854
  23073026.050     9649952.37849   7520306.23649  23073025.6374   23073032.3304
  22428081.501   -17947401.43849 -13900845.82749  22428080.8634   22428086.1674
  21633227.873   -19716137.85949 -15199813.29849  21633227.6584   21633231.4944
  22982485.924   -12624360.31649  -9745213.65849  22982484.9274   22982490.4634
 98  2  3 19 40  0.0040000  0  7 10 19  2 18 27 13 31
  25105793.052    -4639585.95849  -3600433.39449  25105791.9024   25105800.2604
  21781150.850    -3325423.65249  -2590475.77749  21781149.9044   21781155.6384
  23491548.434   -14971451.26149 -11459723.59849  23491547.2404   23491554.1474
  23092231.503     9750877.26149   7598948.93649  23092231.2114   23092237.3654
  22420015.495   -17989788.63049 -13933874.78749  22420014.6774   22420020.1974
  21630034.087   -19732921.47949 -15212891.44149  21630033.7894   21630037.6674
  22990872.349   -12580289.46149  -9710872.73649  22990871.2614   22990877.2414
 98  2  3 19 40 30.0040000  0  7 10 19  2 18 27 13 31
  25112358.329    -4605085.41349  -3573549.87749  25112357.0574   25112365.1734
  21785262.534    -3303816.36549  -2573638.93149  21785261.7674   21785267.1834
  23483893.387   -15011678.69449 -11491069.62349  23483892.2804   23483898.7564
  23111505.205     9852160.81249   7677871.11249  23111504.6584   23111511.1424
  22411985.614   -18031986.06449 -13966755.89149  22411984.8264   22411990.1104
  21626944.997   -19749154.76449 -15225540.75949  21626944.8484   21626948.5064
  22999376.583   -12535599.20249  -9676049.17449  22999375.6244   22999381.1854
 98  2  3 19 41  0.0040000  0  7 10 19  2 18 27 13 31
  25119017.745    -4570090.08649  -3546280.82449  25119016.3474   25119024.8334
  21789439.611    -3281865.61649  -2556534.44249  21789439.1054   21789444.2064
  23476291.671   -15051625.88249 -11522197.26749  23476290.4424   23476297.3304
  23130852.022     9953828.49949   7757092.62649  23130852.0044   23130858.4584
  22403997.772   -18073962.42049 -13999464.71649  22403997.0664   22404002.4054
  21623966.869   -19764804.95749 -15237735.70649  21623966.7094   21623970.4384
  23008001.521   -12490275.09149  -9640731.69749  23008000.6234   23008005.8204
 98  2  3 19 41 30.0040000  0  7 10 19  2 18 27 13 31
  25125764.574    -4534635.34749  -3518653.78049  25125763.7464   25125771.2834
  21793676.897    -3259598.51549  -2539183.44749  21793676.4624   21793681.6764
  23468740.537   -15091306.98949 -11553117.57849  23468739.3004   23468746.0104
  23150267.457    10055856.56049   7836594.94649  23150267.0444   23150273.1314
  22396047.085   -18115743.58949 -14032021.44849  22396046.3904   22396051.6434
  21621096.895   -19779886.62849 -15249487.65549  21621096.7364   21621100.6094
  23016739.927   -12444354.47849  -9604949.41049  23016738.8534   23016744.2444
 98  2  3 19 42  0.0040000  0  7 10 19  2 18 27 13 31
  25132607.618    -4498674.72649  -3490632.53849  25132606.2094   25132614.0864
  21797978.872    -3236991.53249  -2521567.61849  21797978.2744   21797983.5764
  23461250.548   -15130667.14849 -11583787.80349  23461249.5254   23461256.4264
  23169756.896    10158273.84249   7916400.54849  23169756.6114   23169762.6134
  22388138.965   -18157301.02349 -14064403.84349  22388138.1644   22388143.5274
  21618341.157   -19794368.12249 -15260771.93849  21618340.9844   21618344.8404
  23025598.890   -12397800.19349  -9568673.35549  23025597.9904   23025603.4964
 98  2  3 19 42 30.0040000  0  7 10 19  2 18 27 13 31
  25139537.194    -4462259.56549  -3462257.10749  25139536.5414   25139543.2944
  21802331.355    -3214119.17549  -2503744.99849  21802330.6014   21802336.0664
  23453812.999   -15169751.49349 -11614243.10149  23453812.0344   23453818.9284
  23189308.119    10261015.72249   7996459.09449  23189307.5164   23189313.6544
  22380261.523   -18198697.06049 -14096660.47649  22380260.7884   22380266.2744
  21615688.979   -19808305.53249 -15271632.25649  21615688.8104   21615692.4744
  23034568.429   -12350665.04149  -9531944.67349  23034567.3614   23034573.1454
 98  2  3 19 43  0.0040000  0  7 10 19  2 18 27 13 31
  25146566.098    -4425322.50249  -3433475.01249  25146564.8454   25146573.3694
  21806745.234    -3190924.07649  -2485670.90149  21806744.6254   21806750.0534
  23446442.030   -15208486.35649 -11644426.08549  23446440.9474   23446447.8344
  23208932.311    10364140.92749   8076816.33149  23208931.7214   23208938.0274
  22372424.878   -18239878.74449 -14128750.07949  22372424.2134   22372429.6004
  21613154.498   -19821624.48449 -15282010.66649  21613154.3054   21613157.9564
  23043659.610   -12302890.46649  -9494717.74749  23043658.5674   23043664.2184
 98  2  3 19 43 30.0040000  0  7 10 19  2 18 27 13 31
  25153693.186    -4387870.01049  -3404291.29049  25153691.7824   25153700.6614
  21811215.793    -3167431.29249  -2467364.84549  21811215.3104   21811220.6444
  23439135.860   -15246880.59449 -11674343.65249  23439134.8254   23439141.2494
  23228627.909    10467641.73549   8157466.23849  23228627.2164   23228633.6784
  22364627.721   -18280852.93149 -14160678.00249  22364626.8514   22364632.1924
  21610733.897   -19834344.96249 -15291922.73349  21610733.7204   21610737.3534
  23052872.842   -12254474.70549  -9456991.20049  23052872.0894   23052877.2934
 98  2  3 19 44  0.0040000  0  7 10 19  2 18 27 13 31
  25160908.409    -4349953.61649  -3374746.09349  25160907.5164   25160915.8124
  21815735.088    -3143682.28049  -2448859.12349  21815734.3514   21815739.7874
  23431886.088   -15284978.50049 -11704030.30349  23431885.0644   23431891.3404
  23248387.507    10571479.00149   8238378.33149  23248387.1074   23248393.3714
  22356863.904   -18321652.07349 -14192469.52349  22356863.3964   22356868.3954
  21608418.923   -19846510.07049 -15301402.04249  21608418.6934   21608422.6994
  23062204.050   -12205439.12749  -9418781.67249  23062203.2494   23062208.8204
 98  2  3 19 44 30.0040000  0  7 10 19  2 18 27 13 31
  25168209.890    -4311584.31549  -3344847.96849  25168208.0324   25168217.3614
  21820307.014    -3119656.49449  -2430137.72949  21820306.3364   21820311.8344
  23424692.667   -15322779.71949 -11733485.77249  23424691.3944   23424697.9844
  23268213.938    10675667.50949   8319564.12249  23268213.3714   23268219.6904
  22349138.102   -18362251.43149 -14224105.36149  22349137.3844   22349142.5814
  21606213.694   -19858098.53849 -15310432.01249  21606213.4504   21606217.2464
  23071656.470   -12155766.08349  -9380075.41149  23071655.3154   23071661.1784
 98  2  3 19 45  0.0040000  0  8 10  7 19  2 18 27 13 31
  25175595.054    -4272775.02449  -3314607.01049  25175593.5694   25175602.5284
  25748190.904    -2954957.35749  -2278794.27249  25748188.9204   25748198.6604
  21824934.914    -3095336.76649  -2411187.29749  21824934.2324   21824939.6064
  23417554.465   -15360290.97149 -11762715.29449  23417553.3954   23417559.8664
  23288107.108    10780206.70949   8401023.17149  23288106.4294   23288112.6284
  22341452.105   -18402641.51749 -14255578.13849  22341451.1854   22341456.4024
  21604119.158   -19869105.36549 -15319008.76349  21604118.8604   21604122.6804
  23081228.838   -12105463.09849  -9340878.28549  23081228.1084   23081233.2084
 98  2  3 19 45 30.0040000  0  8 10  7 19  2 18 27 13 31
  25183068.224    -4233503.44549  -3284005.80649  25183066.9764   25183074.9264
  25729807.008    -3051564.99749  -2354072.93749  25729806.1564   25729813.2984
  21829625.747    -3070686.30549  -2391979.15049  21829625.1154   21829630.5034
  23410475.138   -15397493.20349 -11791704.02149  23410473.8264   23410480.6974
  23308072.098    10885123.37849   8482776.35949  23308071.5584   23308077.5794
  22333813.069   -18442784.94049 -14286858.71049  22333812.1144   22333817.5494
  21602140.705   -19879502.16549 -15327110.16749  21602140.4994   21602144.3534
  23090926.097   -12054503.84649  -9301169.77949  23090925.4354   23090930.9174
 98  2  3 19 46  0.0040000  0  8 10  7 19  2 18 27 13 31
  25190622.383    -4193805.88349  -3253072.68449  25190622.1954   25190629.1644
  25711426.041    -3148157.39949  -2429339.72649  25711424.5314   25711433.2734
  21834372.893    -3045740.00449  -2372540.48149  21834372.2094   21834377.5254
  23403445.223   -15434435.31649 -11820490.05049  23403444.2034   23403450.8034
  23328099.320    10990367.27849   8564784.52649  23328098.8334   23328105.2444
  22326211.254   -18482732.66549 -14317986.79249  22326210.4864   22326215.7954
  21600272.910   -19889317.65349 -15334758.59849  21600272.7624   21600276.5064
  23100736.816   -12002948.21849  -9260996.56649  23100735.8134   23100740.9614
 98  2  3 19 46 30.0040000  0  8 10  7 19  2 18 27 13 31
  25198261.791    -4153660.49649  -3221790.59649  25198260.2474   25198267.7334
  25693051.242    -3244717.05849  -2504580.97749  25693049.7724   25693060.4534
  21839179.768    -3020479.75249  -2352857.17249  21839178.9614   21839184.8024
  23396466.982   -15471106.01249 -11849064.58949  23396465.8144   23396472.5394
  23348188.777    11095937.88649   8647047.28349  23348188.1664   23348194.6654
  22318646.941   -18522483.21549 -14348961.23049  22318646.0934   22318651.6944
  21598516.944   -19898545.38049 -15341949.03449  21598516.6684   21598520.5074
  23110659.184   -11950805.78549  -9220366.10049  23110658.0444   23110663.8264
 98  2  3 19 47  0.0040000  0  8 10  7 19  2 18 27 13 31
  25205992.860    -4113033.70649  -3190133.40549  25205991.5954   25206000.1564
  25674685.680    -3341228.35049  -2579784.53149  25674684.3964   25674693.4534
  21844047.454    -2994899.86849  -2332924.80549  21844046.6914   21844052.5384
  23389540.363   -15507505.49049 -11877427.78449  23389539.0794   23389545.9594
  23368342.861    11201847.68849   8729574.34049  23368342.5234   23368349.4054
  22311120.545   -18562034.29549 -14379780.23849  22311119.7434   22311125.1934
  21596871.350   -19907193.12349 -15348687.54049  21596871.2274   21596874.7994
  23120694.267   -11898071.07849  -9179274.12149  23120693.6574   23120699.1344
 98  2  3 19 47 30.0040000  0  8 10  7 19  2 18 27 13 31
  25213813.444    -4071936.69849  -3158109.81449  25213813.2104   25213820.2074
  25656322.968    -3437724.68049  -2654976.39349  25656321.4484   25656331.3634
  21848969.279    -2969035.40549  -2312770.68549  21848968.4744   21848974.1084
  23382658.843   -15543667.83649 -11905606.19649  23382657.6734   23382664.6014
  23388556.132    11308069.32349   8812344.38749  23388555.3704   23388562.3114
  22303625.025   -18601423.41849 -14410473.04249  22303623.9724   22303629.4734
  21595332.388   -19915280.54949 -15354989.43949  21595332.2134   21595335.9524
  23130839.651   -11844756.95649  -9137730.64049  23130838.9634   23130844.5924
 98  2  3 19 48  0.0040000  0  8 10  7 19  2 18 27 13 31
  25221729.236    -4030339.35449  -3125696.36249  25221728.3314   25221736.0324
  25637967.607    -3534183.05549  -2730138.69449  25637966.6254   25637976.4704
  21853949.935    -2942861.84749  -2292375.71249  21853949.1364   21853954.5584
  23375828.334   -15579562.52049 -11933576.03449  23375827.2924   23375834.1154
  23408833.517    11414627.26949   8895376.49649  23408833.2424   23408839.4644
  22296164.534   -18640628.24749 -14441022.23649  22296163.6974   22296169.2714
  21593904.638   -19922783.45149 -15360835.86049  21593904.5114   21593908.1924
  23141102.689   -11790824.27249  -9095705.16149  23141101.6094   23141107.1984
 98  2  3 19 48 30.0040000  0  8 10  7 19  2 18 27 13 31
  25229737.780    -3988254.48149  -3092903.01349  25229736.4774   25229744.9014
  25619617.915    -3630610.61349  -2805276.95349  25619616.7484   25619627.0994
  21858990.499    -2916373.40849  -2271735.37449  21858989.8164   21858995.1194
  23369050.042   -15615182.37349 -11961331.71749  23369049.1044   23369055.7884
  23429176.453    11521529.52949   8978676.89349  23429176.2594   23429182.8054
  22288742.103   -18679633.21349 -14471415.69749  22288741.1664   22288746.5654
  21592588.225   -19929701.13849 -15366226.26849  21592587.9424   21592591.7224
  23151485.390   -11736262.87549  -9053189.78549  23151484.0814   23151489.9194
 98  2  3 19 49  0.0040000  0  8 10  7 19  2 18 27 13 31
  25237836.557    -3945695.23149  -3059740.01649  25237834.7414   25237843.4804
  25601272.069    -3727018.74649  -2880400.08449  25601271.5494   25601280.2464
  21864089.237    -2889579.40549  -2250856.93649  21864088.5664   21864094.0934
  23362322.566   -15650535.40949 -11988879.49249  23362321.5814   23362328.2514
  23449585.193    11628777.45049   9062246.64949  23449584.9904   23449591.0304
  22281357.308   -18718440.41749 -14501655.06249  22281356.6484   22281361.9494
  21591385.665   -19936020.58449 -15371150.51149  21591385.4454   21591389.2814
  23161986.473   -11681078.97349  -9010189.34449  23161985.3914   23161991.6814
 98  2  3 19 49 30.0040000  0  8 10  7 19  2 18 27 13 31
  25246019.891    -3902691.11149  -3026230.35449  25246018.2354   25246027.0194
  25582928.757    -3823413.53749  -2955512.82749  25582927.1884   25582937.9374
  21869246.343    -2862478.78449  -2229739.57949  21869245.6864   21869251.1334
  23355646.288   -15685619.53249 -12016217.71649  23355645.0534   23355651.9454
  23470056.146    11736352.45649   9146071.26649  23470055.5694   23470062.8094
  22274007.618   -18757063.18149 -14531750.70849  22274006.6664   22274012.3604
  21590296.365   -19941744.87049 -15375610.99949  21590296.2094   21590299.9464
  23172601.964   -11625293.94849  -8966720.50249  23172601.2824   23172606.8264
 98  2  3 19 50  0.0040000  0  8 10  7 19  2 18 27 13 31
  25254282.145    -3859272.92249  -2992398.03649  25254281.0854   25254289.4924
  25564587.998    -3919794.75449  -3030614.96449  25564585.8854   25564596.4154
  21874461.090    -2835075.12649  -2208386.09149  21874460.3964   21874465.8514
  23349021.836   -15720431.17549 -12043343.62049  23349020.7794   23349027.2684
  23490584.906    11844231.37749   9230132.70849  23490584.2174   23490591.0214
  22266691.958   -18795507.03849 -14561706.94449  22266691.1304   22266696.5594
  21589315.933   -19946897.13149 -15379625.74849  21589315.8284   21589319.6064
  23183325.281   -11568942.46749  -8922810.25449  23183324.2594   23183330.1724
 98  2  3 19 50 30.0040000  0  8 10  7 19  2 18 27 13 31
  25262627.900    -3815415.95849  -2958223.81449  25262626.3784   25262634.3714
  25546258.042    -4016118.86949  -3105672.61049  25546256.6944   25546267.5044
  21879739.102    -2807338.84749  -2186773.41749  21879738.5424   21879744.0034
  23342453.823   -15754946.13949 -12070238.34449  23342452.6264   23342459.2794
  23511175.753    11952436.77749   9314448.54149  23511174.8624   23511181.1864
  22259417.026   -18833737.02349 -14591496.53349  22259416.1874   22259421.5884
  21588451.623   -19951439.26049 -15383165.07249  21588451.5564   21588455.1154
  23194160.128   -11512004.76249  -8878443.21149  23194159.5074   23194165.1194
 98  2  3 19 51  0.0040000  0  8 10  7 19  2 18 27 13 31
  25271055.824    -3771126.94349  -2923712.94649  25271054.5634   25271063.4564
  25527937.406    -4112394.07149  -3180692.14349  25527935.1484   25527946.5524
  21885076.521    -2779290.51849  -2164917.58449  21885075.9574   21885081.1564
  23335937.693   -15789188.50149 -12096920.65149  23335936.3374   23335942.8354
  23531823.325    12060940.43749   9398996.78049  23531822.2284   23531829.1524
  22252178.662   -18871774.79849 -14621136.34049  22252177.8784   22252183.4014
  21587698.461   -19955397.15949 -15386249.14549  21587698.2374   21587702.2004
  23205104.661   -11454491.00049  -8833627.28149  23205103.5214   23205109.3384
 98  2  3 19 51 30.0040000  0  8 10  7 19  2 18 27 13 31
  25279563.630    -3726418.18849  -2888874.99249  25279563.6024   25279571.8204
  25509626.472    -4208618.66449  -3255672.24649  25509625.6244   25509634.1794
  21890471.592    -2750939.18049  -2142825.64249  21890471.0524   21890476.5554
  23329473.407   -15823158.29149 -12123390.57149  23329472.1824   23329478.6704
  23552525.443    12169731.01349   9483768.59349  23552524.5474   23552531.4634
  22244976.247   -18909623.83049 -14650629.07549  22244975.5144   22244980.8484
  21587052.388   -19958792.29949 -15388894.70649  21587052.1254   21587055.8804
  23216158.594   -11396402.44549  -8788363.47349  23216157.9184   23216162.9464
 98  2  3 19 52  0.0040000  0  8 10  7 19  2 18 27 13 31
  25288149.184    -3681301.10349  -2853718.86349  25288147.8604   25288156.6154
  25491324.637    -4304794.65549  -3330614.44449  25491322.3354   25491334.0414
  21895920.840    -2722303.27749  -2120511.96049  21895920.1704   21895925.6184
  23323059.724   -15856862.17049 -12149653.28249  23323058.3334   23323064.7644
  23573281.384    12278804.29349   9568760.69249  23573280.3784   23573286.9454
  22237812.046   -18947271.84349 -14679965.16049  22237811.2244   22237816.7244
  21586513.686   -19961623.19849 -15391100.59449  21586513.5484   21586517.2394
  23227322.639   -11337735.19849  -8742648.72349  23227321.8604   23227327.3414
 98  2  3 19 52 30.0040000  0  8 10  7 19  2 18 27 13 31
  25296813.977    -3635768.04949  -2818238.59549  25296812.4314   25296820.8824
  25473029.358    -4400936.44849  -3405530.02449  25473027.3504   25473038.2194
  21901421.560    -2693396.89649  -2097987.51849  21901420.8524   21901426.2854
  23316692.838   -15890320.19849 -12175724.42549  23316691.6104   23316698.4394
  23594094.218    12388176.81849   9653985.97949  23594092.7494   23594100.3434
  22230687.510   -18984711.54449 -14709138.93049  22230686.5664   22230691.8804
  21586081.373   -19963895.02849 -15392870.84049  21586081.2474   21586084.9154
  23238598.674   -11278479.26049  -8696475.25349  23238597.4444   23238603.0744
 98  2  3 19 53  0.0040000  0  8 10  7 19  2 18 27 13 31
  25305558.389    -3589816.13649  -2782431.95149  25305557.2274   25305565.3684
  25454739.057    -4497052.02049  -3480425.18049  25454736.4734   25454746.1194
  21906974.578    -2664215.66049  -2075248.90549  21906973.8784   21906979.3624
  23310371.759   -15923537.56149 -12201608.03849  23310370.5464   23310377.1374
  23614964.489    12497851.50849   9739446.71049  23614963.1914   23614970.5124
  22223603.066   -19021940.25349 -14738148.29349  22223602.1704   22223607.7554
  21585753.949   -19965615.61949 -15394211.55149  21585753.7244   21585757.2774
  23249986.603   -11218635.19649  -8649843.50449  23249985.6604   23249991.7014
 98  2  3 19 53 30.0040000  0  8 10  7 19  2 18 27 13 31
  25314383.322    -3543441.04449  -2746295.57849  25314381.4684   25314390.1104
  25436458.789    -4593114.48049  -3555278.90949  25436456.7474   25436466.3984
  21912582.544    -2634745.87349  -2052285.44849  21912581.9154   21912587.2084
  23304101.225   -15956489.35849 -12227284.72649  23304100.1774   23304106.3894
  23635896.682    12607851.09549   9825160.59949  23635896.2304   23635903.1184
  22216562.136   -19058940.75449 -14766979.84049  22216561.2754   22216566.7284
  21585535.503   -19966763.45649 -15395105.96449  21585535.2354   21585538.8344
  23261486.185   -11158204.37549  -8602754.55249  23261485.2494   23261491.1924
 98  2  3 19 54  0.0040000  0  8 10  7 19  2 18 27 13 31
  25323287.788    -3496647.60749  -2709833.20649  25323286.7134   25323294.4884
  25418186.988    -4689132.95749  -3630098.38049  25418184.6374   25418194.8464
  21918242.689    -2605001.63149  -2029108.12349  21918242.1474   21918247.6104
  23297877.113   -15989197.18049 -12252771.29749  23297875.7664   23297882.2734
  23656885.853    12718149.83249   9911107.61649  23656885.4494   23656891.6294
  22209563.719   -19095717.65549 -14795637.14549  22209562.8604   22209568.2354
  21585425.166   -19967343.06049 -15395557.59149  21585424.8514   21585428.6754
  23273095.398   -11097197.42049  -8555216.66249  23273094.2324   23273100.1484
 98  2  3 19 54 30.0040000  0  8 10  7 19  2 18 27 13 31
  25332268.745    -3449452.00049  -2673057.45349  25332266.7274   25332275.1944
  25399918.576    -4785132.56149  -3704903.13849  25399916.9934   25399926.5414
  21923950.823    -2575005.06349  -2005734.18449  21923950.2254   21923955.6474
  23291694.133   -16021688.64549 -12278089.28749  23291692.9374   23291699.3034
  23677924.564    12828708.79349   9997257.38749  23677924.2244   23677930.8844
  22202601.018   -19132306.81349 -14824148.16049  22202600.2404   22202605.5934
  21585418.270   -19967379.38149 -15395585.88449  21585417.9864   21585421.8694
  23284808.559   -11035644.53349  -8507253.37449  23284807.8734   23284813.4494
 98  2  3 19 55  0.0040000  0  8 10  7 19  2 18 27 13 31
  25341323.395    -3401869.48649  -2635980.21649  25341321.5684   25341331.2004
  25381657.251    -4881095.86449  -3779679.60549  25381654.9564   25381666.0734
  21929708.745    -2544747.19449  -1982156.63049  21929708.2194   21929713.5244
  23285556.982   -16053939.36349 -12303219.67349  23285555.5554   23285562.0594
  23699008.212    12939503.64949  10083590.97749  23699007.9984   23699014.9394
  22195672.855   -19168714.48549 -14852517.75149  22195672.0964   22195677.1664
  21585517.252   -19966859.19449 -15395180.53249  21585517.0674   21585520.8234
  23296625.050   -10973548.56649  -8458866.89949  23296623.9834   23296629.9474
 98  2  3 19 55 30.0040000  0  8 10  7 19  2 18 27 13 31
  25350449.594    -3353910.90849  -2598609.93649  25350448.3304   25350456.9894
  25363404.734    -4977012.89149  -3854420.04149  25363403.3814   25363411.9954
  21935514.836    -2514236.11249  -1958381.76849  21935514.0904   21935519.7754
  23279467.663   -16085938.45249 -12328153.98749  23279466.3814   23279472.8524
  23720135.399    13050527.14949  10170102.72749  23720135.0324   23720141.8304
  22188779.686   -19204938.36749 -14880744.13849  22188778.8184   22188784.1684
  21585723.452   -19965775.64249 -15394336.19749  21585723.2054   21585726.9264
  23308543.122   -10910918.44749  -8410064.21149  23308542.1424   23308547.6234
 98  2  3 19 56  0.0040000  0  8 10  7 19  2 18 27 13 31
  25359655.078    -3305535.80249  -2560915.08949  25359653.0974   25359661.5194
  25345164.582    -5072864.77649  -3929109.68849  25345163.1394   25345172.2084
  21941376.521    -2483432.65149  -1934379.08349  21941375.8424   21941381.2464
  23273429.665   -16117668.15649 -12352878.39149  23273428.6214   23273434.9554
  23741310.467    13161801.68149  10256810.07949  23741310.2134   23741316.5594
  22181928.552   -19240941.33749 -14908798.38649  22181927.6914   22181933.0084
  21586044.200   -19964089.81949 -15393022.56249  21586043.8934   21586048.0174
  23320570.344   -10847715.03649  -8360814.80249  23320569.1864   23320575.1284
 98  2  3 19 56 30.0040000  0  8 10  7 19  2 18 27 13 31
  25368931.913    -3256785.87349  -2522928.17449  25368931.1644   25368939.5274
  25326931.186    -5168681.65849  -4003772.06449  25326930.0314   25326939.2244
  21947290.701    -2452353.37449  -1910161.47449  21947290.0574   21947295.4484
  23267437.276   -16149158.35149 -12377416.16149  23267436.0994   23267442.5534
  23762529.593    13273308.02649  10343698.07149  23762529.2234   23762535.6354
  22175112.504   -19276759.70449 -14936708.78549  22175111.6704   22175116.9164
  21586474.218   -19961829.94649 -15391261.61549  21586473.8854   21586477.9014
  23332698.724   -10783980.31949  -8311151.38349  23332698.3394   23332703.4154
 98  2  3 19 57  0.0040000  0  8 10  7 19  2 18 27 13 31
  25378282.253    -3207649.55649  -2484640.18849  25378281.2714   25378289.6184
  25308708.795    -5264440.90949  -4078389.53949  25308707.6864   25308716.8694
  21953262.753    -2420969.99149  -1885706.90349  21953262.0434   21953267.6664
  23261493.411   -16180393.34149 -12401755.07649  23261492.1144   23261498.7404
  23783799.606    13385082.22549  10430794.77749  23783799.4684   23783805.7934
  22168335.178   -19312374.75849 -14964460.75749  22168334.4714   22168339.5924
  21587016.025   -19958982.68849 -15389042.97149  21587015.7904   21587019.6454
  23344930.138   -10719703.89349  -8261065.86149  23344929.4224   23344934.9204
 98  2  3 19 57 30.0040000  0  8 10  7 19  2 18 27 13 31
  25387705.282    -3158131.43949  -2446054.69849  25387704.3784   25387713.7614
  25290492.839    -5360166.00449  -4152980.41849  25290492.2074   25290500.9714
  21959291.157    -2389290.41049  -1861021.53149  21959290.4204   21959295.8434
  23255589.708   -16211417.31349 -12425929.55849  23255588.6314   23255595.1084
  23805118.789    13497114.76649  10518092.77749  23805118.5494   23805125.2814
  22161592.816   -19347805.86749 -14992069.39249  22161591.8394   22161597.0184
  21587665.644   -19955568.70149 -15386382.72149  21587665.5304   21587669.2654
  23357260.919   -10654905.51049  -8210573.61849  23357259.7964   23357265.4154
 98  2  3 19 58  0.0040000  0  8 10  7 19  2 18 27 13 31
  25397198.966    -3108242.66949  -2407180.36749  25397198.1164   25397206.3204
  25272280.330    -5455873.34849  -4227557.45749  25272279.2454   25272288.3144
  21965376.343    -2357312.48249  -1836103.67549  21965375.6974   21965381.0664
  23249725.019   -16242236.23849 -12449944.25549  23249723.5514   23249730.2844
  23826486.357    13609401.41949  10605588.79549  23826485.8074   23826492.0254
  22154882.372   -19383069.42049 -15019547.45849  22154881.6454   22154886.6994
  21588420.817   -19951600.33049 -15383290.47849  21588420.6474   21588424.4154
  23369690.382   -10589588.47749  -8159677.23549  23369689.1014   23369694.6824
 98  2  3 19 58 30.0040000  0  8 10  7 19  2 18 27 13 31
  25406765.462    -3057970.72849  -2368007.45049  25406764.1634   25406772.9344
  25254077.315    -5551531.26349  -4302095.99749  25254076.4774   25254084.9274
  21971521.961    -2325017.07949  -1810938.43449  21971521.4424   21971526.8574
  23243907.285   -16272808.20749 -12473766.52149  23243906.2294   23243912.6864
  23847906.480    13721964.49349  10693300.20349  23847906.0684   23847913.1364
  22148205.075   -19418158.59549 -15046889.64749  22148204.3974   22148209.4454
  21589283.376   -19947067.63449 -15379758.50149  21589283.1504   21589286.9584
  23382223.278   -10523727.47849  -8108356.97649  23382222.0744   23382228.0964
 98  2  3 19 59  0.0040000  0  8 10  7 19  2 18 27 13 31
  25416399.487    -3007343.39649  -2328557.62649  25416398.1444   25416407.8794
  25235878.413    -5647167.08849  -4376617.32549  25235877.7854   25235886.6284
  21977718.733    -2292453.07149  -1785563.89749  21977718.1824   21977723.6944
  23238132.300   -16303155.78849 -12497413.94649  23238131.2374   23238137.9084
  23869370.965    13834760.92049  10781193.42749  23869371.0584   23869377.1294
  22141554.388   -19453108.17449 -15074123.06649  22141553.7414   22141558.8524
  21590247.682   -19942000.12549 -15375809.79649  21590247.3734   21590251.2734
  23394855.781   -10457342.92349  -8056628.76649  23394854.9094   23394860.4224
 98  2  3 19 59 30.0040000  0  8 10  7 19  2 18 27 13 31
  25426103.868    -2956346.60449  -2288819.89949  25426101.9164   25426111.9254
  25217687.601    -5742760.66049  -4451105.71849  25217686.1694   25217695.1164
  21983966.468    -2259621.25749  -1759980.68149  21983966.1274   21983971.3814
  23232404.602   -16333254.94549 -12520867.78749  23232403.5224   23232409.8384
  23890878.843    13947785.53749  10869264.47949  23890878.4394   23890885.0344
  22134935.038   -19487893.06949 -15101228.15549  22134934.4144   22134939.5234
  21591319.947   -19936365.32349 -15371419.04449  21591319.6704   21591323.7134
  23407592.206   -10390412.34249  -8004475.07149  23407591.4124   23407596.9774
 98  2  3 20  0  0.0040000  0  8 10  7 19  2 18 27 13 31
  25435877.104    -2904987.97349  -2248800.21749  25435876.1094   25435884.6564
  25199507.334    -5838298.22649  -4525550.48149  25199505.5854   25199514.3434
  21990262.028    -2226537.91249  -1734201.47149  21990261.4094   21990266.8724
  23226727.720   -16363087.16149 -12544113.62849  23226726.5024   23226732.9894
  23912429.530    14061035.26949  10957510.94249  23912428.6004   23912436.4524
  22128349.166   -19522502.26249 -15128196.33149  22128348.3634   22128353.6924
  21592501.225   -19930157.73049 -15366581.96749  21592501.1534   21592504.8474
  23420432.272   -10322937.27549  -7951897.10749  23420431.4034   23420436.7624
 98  2  3 20  0 30.0040000  0  8 10  7 19  2 18 27 13 31
  25445716.344    -2853282.65449  -2208510.39949  25445715.5984   25445723.9004
  25181335.228    -5933792.62849  -4599961.60349  25181334.2054   25181343.2624
  21996600.746    -2193227.79149  -1708245.54749  21996600.0414   21996605.5984
  23221097.972   -16392671.39749 -12567166.23049  23221096.8194   23221103.2084
  23934017.014    14174478.61549  11045908.28349  23934016.1154   23934023.9624
  22121795.966   -19556939.52249 -15155030.52649  22121795.1404   22121800.2894
  21593789.979   -19923385.28649 -15361304.73949  21593789.7504   21593793.5914
  23433371.754   -10254939.88349  -7898912.13449  23433370.9554   23433376.2764
 98  2  3 20  1  0.0040000  0  8 10  7 19  2 18 27 13 31
  25455619.916    -2801238.99049  -2167956.93749  25455618.1324   25455627.8864
  25163171.091    -6029245.37049  -4674340.25849  25163169.9904   25163178.8184
  22002984.583    -2159680.47649  -1682104.79949  22002984.1214   22002989.5544
  23215514.491   -16422012.58749 -12590029.45449  23215513.2754   23215519.7864
  23955642.417    14288121.08849  11134460.76549  23955641.2554   23955649.2704
  22115281.162   -19591174.96849 -15181707.47049  22115280.3204   22115285.6254
  21595189.628   -19916030.07049 -15355573.40949  21595189.3914   21595193.1544
  23446408.051   -10186433.55049  -7845530.58749  23446406.8904   23446412.5844
 98  2  3 20  1 30.0040000  0  8 10  7 19  2 18 27 13 31
  25465583.225    -2748881.35849  -2127158.81649  25465582.6644   25465590.3924
  25145011.533    -6124673.50649  -4748699.72949  25145010.4814   25145019.2384
  22009412.338    -2125902.43849  -1655784.26549  22009411.8514   22009417.2344
  23209970.843   -16451144.61049 -12612729.68749  23209969.6924   23209976.1724
  23977302.111    14401944.13349  11223153.96249  23977301.2304   23977309.3114
  22108802.129   -19625222.36049 -15208237.87649  22108801.2954   22108806.4244
  21596694.852   -19908120.15649 -15349409.84349  21596694.5004   21596698.4954
  23459535.065   -10117450.43649  -7791777.52049  23459534.0834   23459539.8304
 98  2  3 20  2  0.0040000  0  8 10  7 19  2 18 27 13 31
  25475604.438    -2696219.74549  -2086123.83849  25475603.0474   25475611.9724
  25126855.125    -6220086.07749  -4823047.11349  25126853.2214   25126863.2264
  22015885.242    -2091887.15049  -1629278.85649  22015884.6704   22015890.2204
  23204462.690   -16480089.94749 -12635284.45149  23204461.3364   23204467.9814
  23998994.421    14515937.96049  11311980.23049  23998993.5824   23999000.7844
  22102356.410   -19659094.74349 -15234631.91249  22102355.5784   22102361.0054
  21598300.469   -19899682.43049 -15342834.99449  21598300.0984   21598304.0434
  23472750.046   -10048005.13149  -7737664.30449  23472749.0244   23472754.8824
 98  2  3 20  2 30.0040000  0  8 10  7 19  2 18 27 13 31
  25485682.986    -2643257.11549  -2044854.31549  25485681.3504   25485690.0924
  25108702.209    -6315480.17849  -4897380.11849  25108700.6684   25108710.1204
  22022408.336    -2057608.15449  -1602567.96449  22022407.6144   22022413.1054
  23198988.922   -16508854.54249 -12657698.38649  23198987.8454   23198994.2014
  24020720.033    14630107.16249  11400943.16249  24020719.5424   24020727.1464
  22095944.660   -19692788.59549 -15260886.83849  22095943.7364   22095949.0304
  21600006.958   -19890714.60649 -15335847.08649  21600006.7274   21600010.6114
  23486053.299    -9978096.01449  -7683189.68649  23486052.5244   23486058.1514
 98  2  3 20  3  0.0040000  0  8 10  7 19  2 18 27 13 31
  25495816.646    -2590004.90449  -2003359.13649  25495815.9544   25495824.4374
  25090552.640    -6410856.52049  -4971699.31249  25090550.7234   25090559.2274
  22028981.458    -2023066.18449  -1575652.15049  22028980.7744   22028986.1784
  23193543.671   -16537469.25749 -12679995.53449  23193542.3854   23193548.9484
  24042478.035    14744446.50249  11490038.64649  24042477.5794   24042485.3434
  22089565.160   -19726312.71649 -15287009.50749  22089564.2434   22089569.5514
  21601811.777   -19881230.18749 -15328456.63749  21601811.5674   21601815.4394
  23499442.331    -9907736.19149  -7628363.85749  23499441.1954   23499446.7194
 98  2  3 20  3 30.0040000  0  8 10  7 19  2 18 27 13 31
  25506006.071    -2536459.65249  -1961635.60949  25506005.0304   25506013.5014
  25072408.390    -6506204.78749  -5045996.61249  25072408.2134   25072415.6614
  22035603.713    -1988266.06849  -1548535.17949  22035603.1594   22035608.6144
  23188122.494   -16565957.65049 -12702194.24549  23188121.2684   23188127.8524
  24064265.940    14858942.42449  11579256.16249  24064265.7454   24064273.6384
  22083215.397   -19759680.78349 -15313010.56749  22083214.6094   22083220.0894
  21603711.674   -19871246.03449 -15320676.77449  21603711.6224   21603715.4344
  23512915.860    -9836932.37049  -7573192.04949  23512915.0684   23512920.4174
 98  2  3 20  4  0.0040000  0  8 10  7 19  2 18 27 13 31
  25516256.911    -2482591.32149  -1919660.32549  25516256.0444   25516265.2434
  25054273.579    -6601503.89049  -5120255.60649  25054271.3094   25054280.5384
  22042282.529    -1953168.80949  -1521186.67749  22042281.7864   22042287.4804
  23182732.465   -16594282.13449 -12724265.24049  23182731.2094   23182737.5364
  24086088.762    14973621.15049  11668616.10249  24086088.6284   24086095.7564
  22076902.132   -19792857.17549 -15338862.27549  22076901.2794   22076906.6384
  21605712.239   -19860733.11349 -15312484.89549  21605712.1674   21605715.8624
  23526479.107    -9765657.25549  -7517653.02049  23526478.1884   23526483.4274
 98  2  3 20  4 30.0040000  0  8 10  7 19  2 18 27 13 31
  25526553.000    -2428485.00449  -1877499.61549  25526551.0964   25526561.2964
  25036131.654    -6696839.57749  -5194543.09849  25036129.2784   25036137.9924
  22049000.671    -1917864.79849  -1493677.05949  22049000.0454   22049005.3824
  23177358.674   -16622521.54149 -12746269.93649  23177357.3994   23177363.9204
  24107932.110    15088407.89549  11758060.22749  24107931.6864   24107939.8244
  22070609.526   -19825924.91249 -15364629.31049  22070608.7554   22070614.0464
  21607798.990   -19849767.26649 -15303940.08049  21607798.8424   21607802.5244
  23540114.274    -9694004.02949  -7461819.35749  23540113.3794   23540118.9824
 98  2  3 20  5  0.0040000  0  8 10  7 19  2 18 27 13 31
  25536909.784    -2374059.22049  -1835089.97949  25536907.8174   25536917.7904
  25017995.679    -6792144.31649  -5268806.46349  25017994.1134   25018003.2004
  22055766.547    -1882309.83749  -1465971.89649  22055765.8514   22055771.3804
  23172014.833   -16650603.40749 -12768151.87549  23172013.6594   23172019.8794
  24129808.480    15203368.41549  11847639.76049  24129808.8314   24129816.1824
  22064349.969   -19858819.02649 -15390261.06049  22064349.1794   22064354.6354
  21609982.677   -19838292.02749 -15294998.34049  21609982.6204   21609986.2824
  23553834.681    -9621902.77549  -7405636.57849  23553833.7404   23553838.8804
 98  2  3 20  5 30.0040000  0  8 10  7 19  2 18 27 13 31
  25547328.892    -2319306.69449  -1792425.72649  25547328.5424   25547337.3344
  24999867.360    -6887409.06549  -5343038.67249  24999865.5734   24999874.6014
  22062580.194    -1846503.92749  -1438071.18749  22062579.5644   22062585.1084
  23166707.277   -16678494.38349 -12789885.07149  23166705.8634   23166712.4614
  24151718.538    15318506.12949  11937357.36149  24151718.6834   24151725.6924
  22058122.966   -19891542.17549 -15415759.58849  22058122.0404   22058127.3824
  21612264.354   -19826301.90049 -15285655.38649  21612264.2814   21612267.9284
  23567642.322    -9549343.26849  -7349096.73149  23567641.4614   23567647.0154
 98  2  3 20  6  0.0040000  0  8 10  7 19  2 18 27 13 31
  25557798.508    -2264289.15849  -1749554.97249  25557797.8654   25557806.1974
  24981733.910    -6982700.22549  -5417291.45649  24981731.6974   24981741.1364
  22069428.020    -1810518.62049  -1410030.68749  22069427.3034   22069432.6814
  23161428.087   -16706236.59549 -12811502.34549  23161427.1484   23161433.4864
  24173651.533    15433764.39749  12027168.89949  24173651.5894   24173659.0504
  22051916.093   -19924159.23349 -15441175.45349  22051915.1974   22051920.3754
  21614634.938   -19813844.41149 -15275948.25549  21614634.9204   21614638.6024
  23581525.698    -9476385.57749  -7292246.61349  23581524.6404   23581530.2064
 98  2  3 20  6 30.0040000  0  8 10  7 19  2 18 27 13 31
  25568328.080    -2208957.01449  -1706439.07649  25568326.8164   25568335.8694
  24963610.115    -7077939.74549  -5491503.97849  24963608.2244   24963617.8364
  22076317.798    -1774312.36749  -1381818.01749  22076316.8344   22076322.5094
  23156188.506   -16733770.76649 -12832957.50549  23156187.4054   23156193.8694
  24195619.053    15549203.99749  12117121.72649  24195618.7024   24195626.5444
  22045740.306   -19956613.09949 -15466464.15849  22045739.4424   22045744.5074
  21617106.876   -19800854.35049 -15265826.12949  21617106.7684   21617110.4694
  23595496.663    -9402967.72349  -7235037.92549  23595495.5684   23595501.8884
 98  2  3 20  7  0.0040000  0  8 10  7 19  2 18 27 13 31
  25578914.201    -2153326.71249  -1663090.85349  25578913.0274   25578922.9544
  24945496.590    -7173124.79649  -5565674.05849  24945495.1234   24945504.5854
  22083250.350    -1737881.27249  -1353430.14249  22083249.5344   22083255.2344
  23150990.257   -16761087.55649 -12854243.27649  23150989.2144   23150995.4564
  24217617.863    15664808.26549  12207202.86849  24217616.5734   24217625.6144
  22039596.666   -19988897.89849 -15491621.12249  22039595.8554   22039601.2094
  21619679.150   -19787337.05649 -15255293.17149  21619678.9584   21619682.6904
  23609554.727    -9329092.07549  -7177472.52449  23609553.8864   23609560.3074
 98  2  3 20  7 30.0040000  0  8 10  7 19  2 18 27 13 31
  25589549.345    -2097438.47649  -1619541.65149  25589547.9254   25589557.3694
  24927389.962    -7268274.46049  -5639816.55849  24927388.1084   24927398.1264
  22090224.912    -1701229.68949  -1324870.45749  22090224.1764   22090229.8254
  23145828.450   -16788213.04349 -12875379.98249  23145827.3874   23145833.8024
  24239644.088    15780556.81049  12297396.43849  24239643.3444   24239650.6904
  22033483.614   -20021022.17749 -15516653.00749  22033482.6974   22033488.0234
  21622351.704   -19773292.74149 -15244349.54549  21622351.5184   21622355.3204
  23623694.776    -9254785.62149  -7119571.41949  23623693.6574   23623699.2534
 98  2  3 20  8  0.0040000  0  8 10  7 19  2 18 27 13 31
  25600237.280    -2041273.26249  -1575776.60649  25600235.7964   25600245.5274
  24909295.403    -7363360.68449  -5713909.61249  24909293.0554   24909304.2144
  22097246.178    -1664332.53249  -1296119.41449  22097245.5854   22097251.1794
  23140705.442   -16815134.49249 -12896357.69349  23140704.4744   23140710.7924
  24261701.338    15896468.06549  12387716.79249  24261700.2444   24261708.0154
  22027406.646   -20052956.66049 -15541536.99849  22027405.8744   22027411.1984
  21625129.728   -19758693.98549 -15232973.88249  21625129.4844   21625133.2804
  23637921.194    -9180025.80049  -7061317.05349  23637920.6684   23637926.2274
 98  2  3 20  8 30.0040000  0  8 10  7 19  2 18 27 13 31
  25610975.245    -1984844.76949  -1531806.42749  25610974.3314   25610983.6134
  24891212.655    -7458384.67849  -5787954.18049  24891210.6234   24891220.8904
  22104315.914    -1627180.92549  -1267170.09449  22104315.1114   22104320.7614
  23135621.407   -16841851.46949 -12917176.07049  23135620.3834   23135626.6804
  24283785.108    16012518.43949  12478145.54949  24283784.8464   24283793.1284
  22021365.354   -20084703.79749 -15566275.00749  22021364.6364   22021369.8324
  21628012.134   -19743546.88749 -15221170.93949  21628011.8694   21628015.8294
  23652233.940    -9104812.12749  -7002709.01449  23652232.8204   23652238.5184
 98  2  3 20  9  0.0040000  0  8 10  7 19  2 18 27 13 31
  25621766.948    -1928134.46049  -1487616.63849  25621766.3204   25621774.6434
  24873143.966    -7553334.86849  -5861941.22949  24873141.7724   24873152.7594
  22111437.930    -1589754.47249  -1238006.61049  22111437.4004   22111442.9264
  23130578.849   -16868350.17649 -12937824.37149  23130577.6944   23130583.8224
  24305896.014    16128711.20449  12568685.27149  24305895.4694   24305903.9424
  22015361.486   -20116254.36149 -15590859.84449  22015360.7534   22015365.8124
  21631003.491   -19727827.12449 -15208921.76349  21631003.3184   21631007.0134
  23666635.465    -9029132.04949  -6943737.55549  23666634.8204   23666639.9964
